Date StartTime U_cm/s V_cm/s W_cm/s Ustd_cm/s Vstd_cm/s Wstd_cm/s Uvar_(cm/s)^2 Vvar_(cm/s)^2 Wvar_(cm/s)^2 KE_(m/s)^2 TurbulentKE_(m/s)^2 HorizWindSpeed_cm/s FrictionSpeec_cm/s DragCoef SpeedOfSound_m/s SonicTemperature_C Pressure_mb 
07/16/2013  00:00:00       -1.731       55.878       -0.574       36.900       47.103       24.997     1361.639     2218.663      624.857        0.366        0.210       55.904       18.764        0.113      346.514       24.817      857.741
07/16/2013  00:01:00      -43.648       71.428      -11.213       40.359       79.572       24.947     1628.843     6331.729      622.365        0.786        0.429       83.708       22.757        0.074      346.506       24.803      857.714
07/16/2013  00:02:00     -106.698      110.721      -17.537       54.349       54.397       37.467     2953.845     2959.031     1403.748        1.563        0.366      153.764       28.360        0.034      346.451       24.707      857.732
07/16/2013  00:03:00     -129.711       13.855       -6.774       89.051       55.415       36.414     7930.125     3070.829     1326.013        1.469        0.616      130.449       44.211        0.115      346.431       24.671      857.720
07/16/2013  00:04:00     -111.764       64.490       -2.954       65.922       48.999       37.984     4345.653     2400.928     1442.775        1.242        0.409      129.035       37.420        0.084      346.361       24.552      857.731
07/16/2013  00:05:00     -169.593       99.041      -26.565       69.738       65.941       37.929     4863.322     4348.177     1438.627        2.496        0.533      196.395       44.736        0.052      346.408       24.632      857.721
07/16/2013  00:06:00     -188.271       41.331      -12.261      120.167       91.177       48.806    14440.062     8313.252     2382.009        3.121        1.257      192.755       60.585        0.099      346.329       24.494      857.712
07/16/2013  00:07:00      -36.678      107.465       -5.866       31.264       42.944       29.435      977.460     1844.175      866.406        0.831        0.184      113.552       23.437        0.043      346.350       24.536      857.688
07/16/2013  00:08:00      -83.863      100.807       -4.021       38.054       38.062       30.163     1448.143     1448.703      909.790        1.051        0.190      131.130       23.449        0.032      346.366       24.561      857.694
07/16/2013  00:09:00     -110.529       -3.410      -15.138       92.158       95.927       41.623     8493.129     9201.919     1732.499        1.594        0.971      110.581       48.757        0.194      346.381       24.587      857.705
07/16/2013  00:10:00      -30.233      -12.102       17.822       78.225       52.391       29.651     6119.115     2744.792      879.211        0.556        0.487       32.566       28.275        0.754      346.289       24.429      857.697
07/16/2013  00:11:00     -119.385       99.667      -28.916       48.266       67.863       30.593     2329.627     4605.415      935.924        1.645        0.394      155.520       30.722        0.039      346.411       24.637      857.689
07/16/2013  00:12:00     -110.901      107.451      -31.698       55.916       77.387       28.455     3126.640     5988.802      809.660        1.739        0.496      154.418       34.916        0.051      346.455       24.712      857.703
07/16/2013  00:13:00      -59.621       -6.563       -6.830       35.110       65.393       17.846     1232.741     4276.293      318.484        0.473        0.291       59.981       11.048        0.034      346.417       24.650      857.716
07/16/2013  00:14:00     -115.978       60.942      -18.251       47.007       44.232       20.185     2209.667     1956.448      407.434        1.103        0.229      131.015       19.828        0.023      346.417       24.647      857.737
07/16/2013  00:15:00      -71.767       -3.656      -11.769       56.083       61.376       22.162     3145.255     3766.965      491.136        0.635        0.370       71.860       17.013        0.056      346.410       24.637      857.748
07/16/2013  00:16:00     -168.736      -40.831       -9.032       50.766       42.820       24.487     2577.179     1833.591      599.590        1.761        0.251      173.606       20.251        0.014      346.346       24.524      857.754
07/16/2013  00:17:00     -126.098       60.829      -37.774       55.732       59.977       36.733     3106.051     3597.288     1349.287        1.454        0.403      140.003       27.722        0.039      346.393       24.607      857.730
07/16/2013  00:18:00      -88.099       24.674       -3.855       81.751       38.616       25.233     6683.178     1491.223      636.701        0.860        0.441       91.489       22.572        0.061      346.335       24.508      857.723
07/16/2013  00:19:00     -227.861       82.514      -23.431       91.104       57.826       35.510     8299.928     3343.838     1260.966        3.609        0.645      242.341       16.620        0.005      346.308       24.458      857.713
07/16/2013  00:20:00     -143.661      -29.072       -1.408       41.999       62.115       24.773     1763.957     3858.257      613.718        1.386        0.312      146.573       17.120        0.014      346.291       24.432      857.716
07/16/2013  00:21:00      -60.842       16.656       -0.524       36.838       82.492       25.021     1357.017     6804.926      626.051        0.638        0.439       63.080       25.395        0.162      346.218       24.307      857.702
07/16/2013  00:22:00      -99.610      -10.687       -8.484       38.676       49.268       26.296     1495.835     2427.307      691.468        0.736        0.231      100.181       21.904        0.048      346.243       24.351      857.696
07/16/2013  00:23:00      -42.698       -8.491       -7.447       40.408       29.824       15.234     1632.766      889.482      232.065        0.235        0.138       43.534       16.693        0.147      346.219       24.310      857.710
07/16/2013  00:24:00      -94.061      -46.420      -20.973       46.385       33.164       27.470     2151.607     1099.871      754.583        0.772        0.200      104.892        9.463        0.008      346.256       24.372      857.727
07/16/2013  00:25:00      -77.195        1.024       -9.505       34.499       32.210       18.053     1190.186     1037.489      325.901        0.430        0.128       77.202       15.650        0.041      346.186       24.250      857.730
07/16/2013  00:26:00     -199.465      -73.473      -10.663       70.849       52.371       38.832     5019.605     2742.723     1507.945        2.728        0.464      212.566       37.135        0.031      346.202       24.276      857.732
07/16/2013  00:27:00     -106.436      -32.646       -0.637       80.393       43.094       32.162     6463.034     1857.115     1034.383        1.087        0.468      111.330       41.285        0.138      346.220       24.311      857.715
07/16/2013  00:28:00     -108.418      -49.123       -7.159       62.152       50.389       29.779     3862.811     2539.004      886.790        1.075        0.364      119.028       33.073        0.077      346.192       24.261      857.708
07/16/2013  00:29:00      -93.946      -41.740        0.375       59.721       75.245       35.241     3566.602     5661.776     1241.960        1.052        0.524      102.802       33.713        0.108      346.126       24.149      857.683
07/16/2013  00:30:00     -150.458      -66.456       -9.564       84.797       37.938       24.842     7190.484     1439.326      617.129        1.819        0.462      164.481       23.964        0.021      346.225       24.318      857.645
07/16/2013  00:31:00      -97.536        7.663       -4.370       49.555       39.500       20.747     2455.662     1560.231      430.423        0.702        0.222       97.837       23.462        0.058      346.219       24.310      857.633
07/16/2013  00:32:00     -105.153       27.175      -12.231       54.843       40.143       20.721     3007.722     1611.449      429.379        0.850        0.252      108.607       21.663        0.040      346.195       24.267      857.640
07/16/2013  00:33:00     -233.683      -53.629      -12.278      117.159       58.084       46.441    13726.327     3373.786     2156.802        3.844        0.963      239.758       51.908        0.047      346.194       24.264      857.639
07/16/2013  00:34:00     -168.359      -19.486      -24.933       87.201       73.149       44.452     7603.957     5350.776     1975.941        2.214        0.747      169.483       33.819        0.040      346.327       24.493      857.623
07/16/2013  00:35:00     -163.303      -68.985       -4.842       88.645       57.774       37.873     7857.949     3337.835     1434.377        2.204        0.632      177.276       31.151        0.031      346.272       24.398      857.608
07/16/2013  00:36:00      -18.199       54.425       -0.687       41.576       49.661       30.442     1728.547     2466.196      926.732        0.421        0.256       57.387       19.584        0.116      346.224       24.319      857.610
07/16/2013  00:37:00      -17.663      123.745       -1.540       33.401       64.564       27.173     1115.640     4168.557      738.361        1.082        0.301      124.999       29.632        0.056      346.243       24.350      857.592
07/16/2013  00:38:00      -70.196       45.761      -22.477       44.573       43.653       20.969     1986.779     1905.547      439.685        0.593        0.217       83.795       22.704        0.073      346.160       24.207      857.600
07/16/2013  00:39:00      -45.371      -24.632       -6.320       32.732       37.514       13.399     1071.372     1407.319      179.528        0.268        0.133       51.627       14.793        0.082      346.138       24.171      857.615
07/16/2013  00:40:00     -131.919      -19.168      -26.131       68.607       42.569       35.179     4706.973     1812.137     1237.541        1.310        0.388      133.305       24.118        0.033      346.147       24.182      857.607
07/16/2013  00:41:00     -135.994      -66.437       -4.139       65.821       65.163       33.344     4332.365     4246.179     1111.839        1.631        0.485      151.354       27.451        0.033      346.138       24.168      857.612
07/16/2013  00:42:00      -40.788        6.464       -5.076       29.723       28.131       20.406      883.437      791.365      416.422        0.191        0.105       41.297        7.314        0.031      346.166       24.217      857.613
07/16/2013  00:43:00     -100.476       17.861      -11.529       33.860       25.921       18.859     1146.482      671.882      355.645        0.636        0.109      102.051       11.854        0.013      346.139       24.172      857.620
07/16/2013  00:44:00      -56.941       70.172      -17.978       30.495       51.254       19.590      929.974     2627.008      383.773        0.621        0.197       90.369       17.618        0.038      346.142       24.177      857.619
07/16/2013  00:45:00      -78.695       16.682      -10.264       25.142       23.949       13.722      632.135      573.564      188.280        0.398        0.070       80.444        5.756        0.005      346.220       24.310      857.655
07/16/2013  00:46:00      -88.552       42.308      -16.604       24.320       58.208       18.187      591.460     3388.127      330.752        0.711        0.216       98.140       22.739        0.054      346.204       24.282      857.686
07/16/2013  00:47:00      -66.808       56.761      -20.824       22.910       31.119       18.014      524.873      968.413      324.517        0.497        0.091       87.665       15.357        0.031      346.162       24.210      857.697
07/16/2013  00:48:00      -49.157       24.560       -9.933       17.105       10.775       14.544      292.568      116.092      211.519        0.187        0.031       54.951       10.461        0.036      346.145       24.181      857.705
07/16/2013  00:49:00      -41.062        9.820        1.789       34.796       20.922       21.579     1210.792      437.721      465.645        0.195        0.106       42.220       24.880        0.347      346.064       24.043      857.698
07/16/2013  00:50:00      -27.207       15.663        0.553       41.344       10.820       16.884     1709.342      117.064      285.053        0.155        0.106       31.394       23.856        0.577      345.956       23.857      857.681
07/16/2013  00:51:00     -277.026      -20.707      -27.238      100.303       61.636       39.464    10060.758     3799.053     1557.399        4.666        0.771      277.799       38.433        0.019      346.210       24.289      857.711
07/16/2013  00:52:00      -52.082       13.941       -5.775       50.953       49.994       28.304     2596.184     2499.421      801.131        0.442        0.295       53.915       19.159        0.126      346.157       24.203      857.703
07/16/2013  00:53:00     -146.808       49.106       -7.261      117.572       44.356       30.599    13823.240     1967.422      936.311        2.037        0.836      154.803       42.317        0.075      346.119       24.135      857.701
07/16/2013  00:54:00     -240.253       38.725      -25.992       58.385       51.750       35.327     3408.857     2678.087     1247.972        3.361        0.367      243.354       23.693        0.009      346.128       24.148      857.707
07/16/2013  00:55:00     -145.407       40.564       -5.750       61.627       44.909       28.432     3797.936     2016.855      808.376        1.472        0.331      150.959       27.426        0.033      346.087       24.083      857.710
07/16/2013  00:56:00     -122.743       37.674      -17.770       58.641       36.926       24.250     3438.778     1363.493      588.076        1.109        0.270      128.395       15.107        0.014      346.021       23.968      857.712
07/16/2013  00:57:00      -65.480       18.415       -5.312       40.817       36.083       24.757     1665.997     1301.953      612.919        0.412        0.179       68.020       24.566        0.130      346.010       23.950      857.701
07/16/2013  00:58:00      -30.478       88.636       -7.538       58.658       51.984       37.652     3440.792     2702.367     1417.693        0.820        0.378       93.730       30.760        0.108      345.976       23.892      857.688
07/16/2013  00:59:00      -78.196       11.847       -0.376       68.729       62.306       26.448     4723.682     3882.089      699.474        0.778        0.465       79.088       36.916        0.218      345.987       23.910      857.686
07/16/2013  01:00:00     -106.336      -55.232       -8.947       44.324       34.659       21.999     1964.636     1201.242      483.972        0.904        0.182      119.824       18.953        0.025      346.040       24.001      857.681
07/16/2013  01:01:00     -185.977      -49.265        0.560      103.868       60.245       39.480    10788.528     3629.407     1558.679        2.649        0.799      192.392       34.259        0.032      346.044       24.006      857.674
07/16/2013  01:02:00     -202.996      -63.227      -15.745       79.940       63.205       43.615     6390.467     3994.921     1902.229        2.887        0.614      212.615       43.771        0.042      346.067       24.044      857.672
07/16/2013  01:03:00     -139.177        8.706      -12.058       64.684       31.047       27.725     4184.034      963.894      768.669        1.275        0.296      139.449       33.448        0.058      346.034       23.990      857.680
07/16/2013  01:04:00      -76.833       25.044       -8.190       25.297       24.413       14.860      639.934      595.995      220.818        0.403        0.073       80.811        7.511        0.009      345.939       23.827      857.681
07/16/2013  01:05:00      -88.912       77.311      -15.621       27.818       36.515       21.914      773.821     1333.316      480.216        0.836        0.129      117.824       18.947        0.026      346.020       23.968      857.696
07/16/2013  01:06:00      -78.665       59.824      -11.371       39.228       34.289       17.363     1538.817     1175.723      301.475        0.646        0.151       98.828       18.821        0.036      346.045       24.009      857.711
07/16/2013  01:07:00      -97.881       66.496      -18.893       44.380       28.973       23.126     1969.566      839.444      534.825        0.885        0.167      118.332       25.810        0.048      346.084       24.077      857.699
07/16/2013  01:08:00      -50.366       54.643      -20.043       20.376       25.547       14.518      415.170      652.654      210.768        0.360        0.064       74.314       15.617        0.044      346.068       24.049      857.707
07/16/2013  01:09:00     -138.903       -4.174      -16.462       53.152       35.491       28.428     2825.151     1259.613      808.141        1.224        0.245      138.966       32.308        0.054      346.089       24.084      857.745
07/16/2013  01:10:00     -137.520       43.642       -3.040       50.576       25.696       19.654     2557.913      660.267      386.271        1.221        0.180      144.279       16.487        0.013      346.052       24.021      857.747
07/16/2013  01:11:00      -64.814       50.850       -8.372       32.600       29.827       15.963     1062.782      889.626      254.831        0.453        0.110       82.380       14.453        0.031      346.063       24.042      857.748
07/16/2013  01:12:00      -19.841        2.147        1.042       24.282       21.255       15.129      589.601      451.754      228.874        0.083        0.064       19.956       13.121        0.432      346.064       24.041      857.751
07/16/2013  01:13:00      -42.185        4.459      -11.801       30.470       13.652       20.931      928.439      186.389      438.120        0.175        0.078       42.420       18.853        0.198      346.161       24.210      857.731
07/16/2013  01:14:00      -61.229       49.503      -18.280       28.691       18.282       15.723      823.162      334.218      247.202        0.397        0.070       78.737       14.544        0.034      346.104       24.111      857.751
07/16/2013  01:15:00      -17.422       19.326       -2.864       20.513       46.421       25.606      420.788     2154.871      655.674        0.196        0.162       26.020       20.064        0.595      346.289       24.427      857.737
07/16/2013  01:16:00       10.869      101.841       -4.646       43.958       59.635       33.720     1932.316     3556.376     1137.060        0.857        0.331      102.419       33.547        0.107      346.199       24.273      857.725
07/16/2013  01:17:00      -50.735      134.038      -22.367       56.533       64.620       26.950     3195.990     4175.781      726.320        1.457        0.405      143.318        4.661        0.001      346.131       24.158      857.676
07/16/2013  01:18:00      -58.868       47.337       -8.103       54.943       53.473       22.161     3018.775     2859.357      491.094        0.607        0.318       75.540       13.622        0.033      345.986       23.909      857.696
07/16/2013  01:19:00      -29.806      -28.823        1.852       56.431       20.165       13.333     3184.509      406.640      177.770        0.274        0.188       41.463       13.585        0.107      345.873       23.714      857.719
07/16/2013  01:20:00      -97.523      -29.324        1.757       54.454       25.323       21.118     2965.191      641.245      445.981        0.721        0.203      101.836       26.305        0.067      345.971       23.883      857.733
07/16/2013  01:21:00      -45.255        3.341       -2.741       26.521       34.472       20.250      703.339     1188.332      410.059        0.218        0.115       45.378       16.707        0.136      345.906       23.772      857.745
07/16/2013  01:22:00      125.288       90.425       24.722       53.068       30.615       26.788     2816.211      937.293      717.592        1.448        0.224      154.511       22.795        0.022      345.994       23.924      857.699
07/16/2013  01:23:00      -24.973       40.716       14.185       76.378       36.833       40.786     5833.661     1356.668     1663.508        0.567        0.443       47.765       47.717        0.998      346.167       24.219      857.714
07/16/2013  01:24:00      -92.433      -18.424       -9.898       29.824       34.274       15.376      889.451     1174.729      236.416        0.564        0.115       94.251        9.972        0.011      345.790       23.573      857.747
07/16/2013  01:25:00     -107.738      -38.144       -4.425       30.089       37.144       18.203      905.321     1379.690      331.353        0.785        0.131      114.291       12.815        0.013      345.861       23.696      857.758
07/16/2013  01:26:00        1.759       12.219        5.684       40.631       18.595       12.395     1650.844      345.775      153.643        0.117        0.108       12.345       16.593        1.807      345.930       23.813      857.746
07/16/2013  01:27:00       33.942       15.899        2.314       26.777       24.555       12.033      717.020      602.971      144.781        0.144        0.073       37.481       10.492        0.078      345.756       23.515      857.702
07/16/2013  01:28:00      -49.255        6.949       -7.092       25.591       21.619       12.295      654.918      467.397      151.162        0.190        0.064       49.743       13.738        0.076      345.837       23.654      857.712
07/16/2013  01:29:00      -89.912       -7.097      -11.994       17.243       24.854       11.195      297.324      617.721      125.326        0.466        0.052       90.192        9.721        0.012      345.884       23.737      857.731
07/16/2013  01:30:00      -60.615      -19.993       -4.590       20.798       19.000       13.586      432.574      361.011      184.586        0.254        0.049       63.827        8.920        0.020      345.771       23.539      857.725
07/16/2013  01:31:00      -87.727      -30.077       -8.882       25.407       39.486       15.300      645.511     1559.182      234.103        0.556        0.122       92.740       10.274        0.012      345.699       23.416      857.736
07/16/2013  01:32:00      -49.386      -28.644        1.105       42.881       24.761       19.378     1838.738      613.114      375.515        0.304        0.141       57.092       23.783        0.174      345.540       23.144      857.748
07/16/2013  01:33:00        0.204       10.654        3.399        8.873       10.725        9.959       78.728      115.019       99.180        0.021        0.015       10.656        3.634        0.116      345.538       23.140      857.738
07/16/2013  01:34:00       36.775       31.855       13.558       12.780        9.887       15.230      163.330       97.750      231.941        0.152        0.025       48.654       10.366        0.045      345.655       23.341      857.715
07/16/2013  01:35:00       -2.620       26.010       -2.287       28.625       11.381       10.679      819.407      129.537      114.031        0.088        0.053       26.142       13.203        0.255      345.816       23.616      857.714
07/16/2013  01:36:00      -85.803       27.941      -17.165       29.095       26.753       11.757      846.539      715.747      138.224        0.507        0.085       90.238        7.727        0.007      345.686       23.395      857.757
07/16/2013  01:37:00      -26.400       51.089       -8.249       24.655       36.212       13.570      607.879     1311.283      184.144        0.274        0.105       57.506       10.071        0.031      345.671       23.368      857.759
07/16/2013  01:38:00        6.648       59.556       -8.341       23.588       23.676       14.620      556.390      560.562      213.730        0.250        0.067       59.926        7.526        0.016      345.799       23.587      857.736
07/16/2013  01:39:00       -6.182       73.399      -19.033       17.629       24.035        6.488      310.765      577.677       42.099        0.336        0.047       73.659        4.647        0.004      345.827       23.638      857.747
07/16/2013  01:40:00       19.001       54.559       -8.592       19.650       20.853       14.000      386.131      434.862      196.010        0.221        0.051       57.773       12.062        0.044      345.710       23.436      857.748
07/16/2013  01:41:00       22.182       55.426      -11.829       25.328       20.990       11.535      641.487      440.584      133.050        0.246        0.061       59.700       10.102        0.029      345.664       23.355      857.720
07/16/2013  01:42:00      -19.995       88.099      -14.518       23.722       25.739       14.787      562.726      662.486      218.641        0.491        0.072       90.340       10.693        0.014      345.740       23.487      857.723
07/16/2013  01:43:00       14.992       63.076       -7.286       25.930       36.679       16.720      672.379     1345.378      279.559        0.328        0.115       64.833       19.406        0.090      345.717       23.446      857.706
07/16/2013  01:44:00        7.914       34.029       -2.031       20.746       24.977       14.260      430.381      623.834      203.355        0.124        0.063       34.937       14.617        0.175      345.600       23.247      857.690
07/16/2013  01:45:00       15.070       38.868       -5.675       16.439       13.898        9.918      270.233      193.149       98.357        0.117        0.028       41.688       11.320        0.074      345.682       23.387      857.683
07/16/2013  01:46:00      -25.828       80.956       -9.820       14.422       28.856       14.881      208.002      832.668      221.444        0.429        0.063       84.976       15.245        0.032      345.712       23.438      857.702
07/16/2013  01:47:00       -5.043       93.492       -3.705       28.026       27.814       17.656      785.444      773.640      311.724        0.532        0.094       93.628       15.442        0.027      345.701       23.420      857.705
07/16/2013  01:48:00       -7.394      101.939      -10.943       31.846       57.323       22.660     1014.159     3285.944      513.485        0.769        0.241      102.207       30.212        0.087      345.643       23.320      857.683
07/16/2013  01:49:00      -11.737      141.539      -15.178       29.550       27.987       18.670      873.183      783.249      348.562        1.120        0.100      142.025       16.486        0.013      345.756       23.514      857.704
07/16/2013  01:50:00      -50.601       59.328       -4.386       27.195       36.951       21.137      739.591     1365.391      446.760        0.433        0.128       77.976       10.583        0.018      345.549       23.158      857.708
07/16/2013  01:51:00      -92.522       94.380      -18.701       36.923       34.835       19.793     1363.287     1213.480      391.749        1.039        0.148      132.166       16.010        0.015      345.672       23.371      857.719
07/16/2013  01:52:00      -56.650       70.423       -3.936       34.895       39.652       20.104     1217.654     1572.306      404.170        0.569        0.160       90.380       14.401        0.025      345.638       23.312      857.714
07/16/2013  01:53:00      -15.236      113.040      -16.550       23.249       26.089       20.122      540.521      680.641      404.882        0.745        0.081      114.062       14.383        0.016      345.737       23.481      857.672
07/16/2013  01:54:00      -72.643       85.705      -14.831       34.035       29.273       21.412     1158.385      856.885      458.482        0.766        0.124      112.349       14.703        0.017      345.635       23.305      857.662
07/16/2013  01:55:00     -133.096      -45.645       -6.617       57.403       41.668       24.299     3295.096     1736.236      590.424        1.273        0.281      140.705       11.549        0.007      345.653       23.337      857.667
07/16/2013  01:56:00     -178.525      -28.356       -1.733       71.671       38.769       27.161     5136.731     1503.052      737.719        2.003        0.369      180.763       29.931        0.027      345.454       22.992      857.703
07/16/2013  01:57:00      -97.844        1.374       -9.973       22.991       28.467       16.535      528.607      810.392      273.414        0.564        0.081       97.853       11.403        0.014      345.456       23.000      857.701
07/16/2013  01:58:00      -35.750       30.872      -10.196       20.621       22.656       10.572      425.234      513.302      111.778        0.169        0.053       47.235        7.604        0.026      345.390       22.885      857.699
07/16/2013  01:59:00      -23.479       23.253       -4.815       41.113       23.458       12.044     1690.263      550.276      145.048        0.175        0.119       33.044        9.930        0.090      345.493       23.062      857.705
07/16/2013  02:00:00      -27.061       41.266        2.721       40.199       28.748       18.253     1615.989      826.448      333.166        0.261        0.139       49.348       17.697        0.129      345.452       22.992      857.700
07/16/2013  02:01:00       -0.108       30.177       -3.815       37.599       32.890       17.792     1413.690     1081.776      316.554        0.187        0.141       30.177       23.020        0.582      345.488       23.053      857.686
07/16/2013  02:02:00      -71.788       -5.318       -2.982       53.963       50.973       25.402     2912.031     2598.251      645.247        0.567        0.308       71.985       23.009        0.102      345.517       23.103      857.705
07/16/2013  02:03:00      -90.128       51.155      -13.049       36.832       44.032       24.321     1356.571     1938.848      591.515        0.740        0.194      103.634       23.684        0.052      345.528       23.123      857.716
07/16/2013  02:04:00      -95.126      105.849      -25.104       35.029       39.549       24.616     1227.032     1564.140      605.951        1.214        0.170      142.313       26.278        0.034      345.654       23.339      857.714
07/16/2013  02:05:00      -74.502       31.684      -10.602       29.976       20.290       16.314      898.552      411.691      266.162        0.412        0.079       80.959       14.446        0.032      345.560       23.178      857.709
07/16/2013  02:06:00      -23.939       71.634      -11.281       43.266       23.195       21.956     1871.990      538.029      482.064        0.436        0.145       75.528       25.554        0.114      345.583       23.216      857.703
07/16/2013  02:07:00      -15.414        2.129       -8.665       24.488       26.895       20.041      599.680      723.362      401.644        0.102        0.086       15.561       18.876        1.472      345.635       23.305      857.692
07/16/2013  02:08:00       -7.348       11.093        9.572       26.033       13.796       18.494      677.720      190.325      342.023        0.074        0.061       13.306        3.381        0.065      345.552       23.163      857.684
07/16/2013  02:09:00      -76.604       54.090      -15.954       34.103       53.195       22.852     1163.002     2829.663      522.212        0.678        0.226       93.775       17.692        0.036      345.604       23.253      857.692
07/16/2013  02:10:00      -40.004       93.244       -3.681       57.396       65.420       37.582     3294.250     4279.770     1412.439        0.965        0.449      101.463       41.018        0.163      345.605       23.255      857.672
07/16/2013  02:11:00      -68.669       60.957        2.425       57.927       73.646       35.942     3355.515     5423.740     1291.854        0.925        0.504       91.821       30.588        0.111      345.535       23.135      857.671
07/16/2013  02:12:00     -221.262      -90.753       -1.258      101.412      111.222       49.188    10284.353    12370.234     2419.479        4.113        1.254      239.151       43.856        0.034      345.657       23.340      857.680
07/16/2013  02:13:00     -173.866      -43.619       10.135      127.425       67.502       51.766    16237.235     4556.530     2679.697        2.785        1.174      179.254       45.837        0.065      345.760       23.519      857.665
07/16/2013  02:14:00      -84.544      -94.980      -14.593       77.620       70.350       34.121     6024.870     4949.134     1164.264        1.426        0.607      127.157       30.689        0.058      345.729       23.468      857.682
07/16/2013  02:15:00     -129.383      -49.685        6.845       90.679       71.724       42.298     8222.668     5144.269     1789.081        1.720        0.758      138.595       50.330        0.132      345.711       23.435      857.704
07/16/2013  02:16:00      -96.627     -151.703        8.716       68.730       58.995       35.703     4723.863     3480.436     1274.691        2.095        0.474      179.863       33.626        0.035      345.930       23.813      857.701
07/16/2013  02:17:00     -122.037      -95.124       -1.349       77.039       49.804       35.044     5935.056     2480.473     1228.052        1.679        0.482      154.731       32.109        0.043      345.959       23.862      857.690
07/16/2013  02:18:00     -104.134      -91.692       -0.555       62.359       47.750       29.417     3888.601     2280.087      865.369        1.314        0.352      138.749       28.424        0.042      345.920       23.795      857.712
07/16/2013  02:19:00     -144.938     -114.625       -0.339       68.267       70.802       38.648     4660.435     5012.978     1493.654        2.265        0.558      184.786       38.401        0.043      346.032       23.986      857.718
07/16/2013  02:20:00     -138.977     -242.002       -5.497       92.114       83.202       50.422     8485.042     6922.494     2542.350        4.793        0.897      279.069       44.132        0.025      346.228       24.319      857.706
07/16/2013  02:21:00     -178.340      -89.034       -4.047       62.714       57.560       35.725     3932.996     3313.120     1276.245        2.413        0.426      199.329       36.406        0.033      345.986       23.906      857.694
07/16/2013  02:22:00      -87.983      -25.175       -3.628       42.781       25.011       21.913     1830.189      625.565      480.172        0.566        0.147       91.514       17.841        0.038      345.858       23.687      857.709
07/16/2013  02:23:00      -15.103      -30.922       20.633       28.226       24.323       17.902      796.729      591.631      320.466        0.166        0.085       34.413       14.612        0.180      345.811       23.607      857.700
07/16/2013  02:24:00       10.493        5.026       13.018       26.072       18.590       12.093      679.739      345.600      146.238        0.074        0.059       11.635       10.568        0.825      345.696       23.411      857.670
07/16/2013  02:25:00       -3.531       19.124       -5.468       34.737       19.460       10.158     1206.678      378.697      103.194        0.105        0.084       19.447       11.926        0.376      345.768       23.535      857.632
07/16/2013  02:26:00      -51.191      -34.017       -4.366       27.224       28.705       11.992      741.134      823.958      143.805        0.275        0.085       61.463        5.166        0.007      345.914       23.785      857.641
07/16/2013  02:27:00      -69.302        3.604       -0.216       16.639       16.983       11.263      276.845      288.427      126.862        0.275        0.035       69.395        9.624        0.019      345.752       23.508      857.636
07/16/2013  02:28:00      -25.089        8.119       -4.319       20.449       13.615        8.792      418.142      185.379       77.291        0.070        0.034       26.370        5.891        0.050      345.589       23.226      857.609
07/16/2013  02:29:00      -16.461       42.110        2.803       19.575       25.166       14.308      383.163      633.309      204.714        0.164        0.061       45.213       13.760        0.093      345.703       23.422      857.572
07/16/2013  02:30:00       -5.235        2.498        3.128       16.031       15.482       13.199      256.996      239.701      174.218        0.036        0.034        5.801       11.537        3.956      345.636       23.308      857.550
07/16/2013  02:31:00      -48.110       -4.768       -0.307       25.999       18.021       11.517      675.929      324.754      132.650        0.174        0.057       48.346        9.823        0.041      345.693       23.406      857.579
07/16/2013  02:32:00      -45.886       24.496       -5.929       13.981       27.474       12.018      195.460      754.814      144.438        0.192        0.055       52.015        4.694        0.008      345.539       23.142      857.614
07/16/2013  02:33:00        5.239       33.571       -4.882       14.655        9.365        7.903      214.773       87.695       62.450        0.077        0.018       33.977        4.153        0.015      345.501       23.076      857.632
07/16/2013  02:34:00      117.174       50.136       26.690       44.259       41.391       26.293     1958.844     1713.222      691.297        1.066        0.218      127.450       30.490        0.057      345.515       23.100      857.604
07/16/2013  02:35:00      114.782       71.029        1.659       31.663       24.752       30.826     1002.556      612.659      950.247        1.039        0.128      134.981       20.997        0.024      345.482       23.042      857.585
07/16/2013  02:36:00       58.771       49.036       -3.989       55.239       35.732       23.244     3051.398     1276.754      540.291        0.537        0.243       76.541        8.869        0.013      345.425       22.946      857.615
07/16/2013  02:37:00      -18.503       22.531      -17.750       23.291       21.793       14.031      542.480      474.952      196.882        0.119        0.061       29.154       13.813        0.224      345.374       22.858      857.658
07/16/2013  02:38:00       44.792      -24.289       24.475       45.176       32.633       34.509     2040.893     1064.930     1190.858        0.375        0.215       50.953       26.399        0.268      345.487       23.051      857.650
07/16/2013  02:39:00      -44.742        9.894        3.341       33.332       21.864       21.223     1111.001      478.033      450.416        0.207        0.102       45.823       18.543        0.164      345.637       23.310      857.645
07/16/2013  02:40:00     -100.099        9.558       -8.621       65.539       91.499       29.818     4295.356     8372.134      889.103        1.187        0.678      100.554       16.748        0.028      345.775       23.547      857.636
07/16/2013  02:41:00      -16.555      -62.513       11.379       21.863       28.990       14.475      477.979      840.441      209.518        0.292        0.076       64.668        8.304        0.016      345.906       23.773      857.625
07/16/2013  02:42:00       32.539       25.062       17.651       14.752       25.975       10.547      217.622      674.688      111.245        0.150        0.050       41.072        9.315        0.051      345.575       23.203      857.635
07/16/2013  02:43:00      -48.329      -24.077       -4.519       39.056       32.789       14.901     1525.358     1075.149      222.045        0.288        0.141       53.994        9.451        0.031      345.696       23.412      857.642
07/16/2013  02:44:00      -36.074      -37.683       14.012       49.592       41.536       25.134     2459.376     1725.269      631.725        0.387        0.241       52.166       24.534        0.221      345.558       23.174      857.618
07/16/2013  02:45:00      -34.838       16.288       17.820       32.175       39.643       39.782     1035.229     1571.565     1582.598        0.299        0.209       38.458       29.299        0.580      345.477       23.034      857.621
07/16/2013  02:46:00      -64.746       10.123       -0.578       39.293       37.009       28.880     1543.978     1369.651      834.043        0.402        0.187       65.533       20.203        0.095      345.728       23.465      857.608
07/16/2013  02:47:00     -115.061      -16.185       -6.562       38.091       38.789       22.112     1450.959     1504.559      488.922        0.849        0.172      116.194       22.090        0.036      345.680       23.383      857.604
07/16/2013  02:48:00      -11.463      -80.746       10.144       30.682       37.315       19.929      941.360     1392.436      397.159        0.474        0.137       81.556        9.355        0.013      345.658       23.345      857.599
07/16/2013  02:49:00     -127.152      -28.444       -5.167       51.879       44.658       23.595     2691.416     1994.301      556.728        1.112        0.262      130.295       18.247        0.020      345.664       23.356      857.617
07/16/2013  02:50:00      -95.686     -141.811       -2.381       97.970      101.491       45.112     9598.194    10300.487     2035.138        2.560        1.097      171.074       51.208        0.090      345.678       23.378      857.605
07/16/2013  02:51:00     -147.282     -129.439       -6.679      115.664       87.792       54.163    13378.123     7707.479     2933.598        3.125        1.201      196.078       61.834        0.099      345.686       23.390      857.606
07/16/2013  02:52:00     -176.134     -117.187       -5.126       76.938       63.264       43.533     5919.443     4002.337     1895.126        2.830        0.591      211.556       41.909        0.039      345.724       23.457      857.604
07/16/2013  02:53:00     -103.090      -56.870       -1.322       35.497       36.702       22.506     1260.034     1347.046      506.509        0.849        0.156      117.736       19.085        0.026      345.683       23.389      857.610
07/16/2013  02:54:00     -109.534      -61.541      -16.211       55.078       35.389       23.182     3033.597     1252.373      537.400        1.043        0.241      125.639       18.806        0.022      345.700       23.420      857.620
07/16/2013  02:55:00      -49.100      -14.860        2.203       42.711       20.101       12.652     1824.250      404.049      160.069        0.251        0.119       51.300        9.998        0.038      345.688       23.397      857.617
07/16/2013  02:56:00     -135.721      -43.952      -11.428       69.071       40.808       32.111     4770.783     1665.261     1031.100        1.397        0.373      142.660       38.609        0.073      345.683       23.387      857.623
07/16/2013  02:57:00     -134.869      -11.296       -2.030       46.411       55.124       29.988     2153.944     3038.675      899.261        1.221        0.305      135.341       28.893        0.046      345.601       23.247      857.618
07/16/2013  02:58:00     -135.881      -42.569       -4.374       51.325       56.638       24.574     2634.207     3207.904      603.902        1.337        0.322      142.393       21.138        0.022      345.736       23.479      857.610
07/16/2013  02:59:00     -179.403      -51.906       -8.151       45.632       40.239       27.676     2082.266     1619.217      765.987        1.971        0.223      186.761       24.739        0.018      345.742       23.490      857.603
07/16/2013  03:00:00      -98.881      -19.803        2.114       59.987       48.555       26.386     3598.390     2357.601      696.208        0.841        0.333      100.844       22.326        0.049      345.622       23.283      857.611
07/16/2013  03:01:00      -68.582      -29.598        4.560       49.942       37.134       27.338     2494.213     1378.910      747.370        0.511        0.231       74.696       25.352        0.115      345.610       23.262      857.609
07/16/2013  03:02:00     -101.647      -14.996       12.012       76.072       69.045       34.270     5787.006     4767.240     1174.405        1.121        0.586      102.747       37.964        0.137      345.593       23.234      857.607
07/16/2013  03:03:00      -22.092      -35.475       18.553       63.235       58.043       41.483     3998.700     3369.037     1720.831        0.559        0.454       41.791       38.562        0.851      345.587       23.224      857.621
07/16/2013  03:04:00      -95.916      -65.934       -8.549       64.555       41.746       30.256     4167.359     1742.732      915.400        1.022        0.341      116.392       24.160        0.043      345.653       23.337      857.634
07/16/2013  03:05:00     -109.870      -27.605       -7.718       28.475       37.654       20.651      810.854     1417.836      426.460        0.777        0.133      113.285       13.367        0.014      345.644       23.323      857.657
07/16/2013  03:06:00      -32.818       10.663        1.077       21.520       24.837       13.318      463.090      616.875      177.371        0.122        0.063       34.507       13.360        0.150      345.496       23.069      857.662
07/16/2013  03:07:00      -57.837       32.403       -7.829       17.135       28.173       12.355      293.611      793.723      152.654        0.285        0.062       66.295       14.022        0.045      345.567       23.189      857.658
07/16/2013  03:08:00      -11.509       38.896       -1.141       15.508       13.267       10.586      240.511      176.007      112.062        0.109        0.026       40.563        9.138        0.051      345.491       23.057      857.642
07/16/2013  03:09:00      -29.309       22.247       -5.010       16.802       14.848        6.532      282.312      220.456       42.664        0.096        0.027       36.796        8.074        0.048      345.438       22.968      857.643
07/16/2013  03:10:00      -17.903       23.855        1.504       21.321       15.491       10.979      454.589      239.957      120.547        0.085        0.041       29.825       15.360        0.265      345.440       22.973      857.629
07/16/2013  03:11:00      -57.851       12.397       -6.526       14.151       16.288        9.020      200.240      265.292       81.368        0.204        0.027       59.165        7.950        0.018      345.254       22.654      857.652
07/16/2013  03:12:00      -81.164        6.687       -9.052       21.421       12.900       11.638      458.860      166.418      135.432        0.374        0.038       81.439        8.052        0.010      345.202       22.565      857.663
07/16/2013  03:13:00      -30.496       67.835       -3.400       20.142       34.078       14.219      405.710     1161.297      202.177        0.366        0.088       74.374       13.625        0.034      345.405       22.911      857.658
07/16/2013  03:14:00      -18.627      -20.427        2.503       27.033       23.053       17.893      730.799      531.462      320.162        0.118        0.079       27.645       12.913        0.218      345.371       22.853      857.644
07/16/2013  03:15:00      -49.232      -22.394       -7.061       35.570       21.008       14.148     1265.203      441.331      200.158        0.244        0.095       54.086       17.353        0.103      345.467       23.016      857.641
07/16/2013  03:16:00      -92.982      -35.182       -9.750       32.822       34.743       16.620     1077.265     1207.087      276.218        0.627        0.128       99.416       17.238        0.030      345.628       23.294      857.640
07/16/2013  03:17:00      -66.678       -9.057       -1.640       28.813       22.692       15.751      830.182      514.927      248.091        0.306        0.080       67.291       15.651        0.054      345.590       23.227      857.636
07/16/2013  03:18:00      -53.685      -22.746       -5.352       26.757       30.128       15.750      715.933      907.704      248.054        0.265        0.094       58.305       14.051        0.058      345.580       23.213      857.636
07/16/2013  03:19:00      -68.168      -40.018        4.912       42.771       24.080       16.173     1829.367      579.840      261.557        0.447        0.134       79.046       10.561        0.018      345.528       23.124      857.644
07/16/2013  03:20:00     -111.880      -19.850       -7.192       32.183       33.166       16.314     1035.755     1099.960      266.139        0.768        0.120      113.627       16.474        0.021      345.469       23.021      857.652
07/16/2013  03:21:00      -71.266       21.199      -10.322       18.042       21.733        6.385      325.515      472.335       40.769        0.324        0.042       74.352        7.609        0.010      345.467       23.019      857.660
07/16/2013  03:22:00      -13.065       97.955      -10.381       24.280       27.307       14.346      589.520      745.681      205.796        0.571        0.077       98.823        9.300        0.009      345.497       23.071      857.655
07/16/2013  03:23:00      -56.906       62.459      -12.302       21.732       45.191       17.343      472.268     2042.231      300.766        0.505        0.141       84.495       17.789        0.044      345.329       22.782      857.671
07/16/2013  03:24:00      -41.443       72.673      -10.819       29.790       32.294       21.706      887.444     1042.930      471.141        0.476        0.120       83.659       24.480        0.086      345.256       22.656      857.681
07/16/2013  03:25:00        6.899      135.778       -9.156       22.969       23.190       16.915      527.594      537.772      286.132        0.996        0.068      135.954        9.090        0.004      345.583       23.218      857.693
07/16/2013  03:26:00        4.502       34.741       -1.818       27.670       47.224       20.437      765.633     2230.091      417.689        0.232        0.171       35.032       19.566        0.312      345.587       23.224      857.679
07/16/2013  03:27:00      -15.578       31.362      -14.463       30.665       24.148       17.097      940.322      583.142      292.301        0.163        0.091       35.018       14.816        0.179      345.504       23.081      857.673
07/16/2013  03:28:00        6.487       -1.452       11.236       15.234       22.216       10.575      232.069      493.554      111.838        0.050        0.042        6.648       10.113        2.315      345.505       23.083      857.671
07/16/2013  03:29:00       -3.397       45.767        2.734       25.244       18.328       21.226      637.278      335.915      450.547        0.177        0.071       45.893       17.832        0.151      345.512       23.095      857.641
07/16/2013  03:30:00        1.988       56.819       12.223       24.390       41.076       22.180      594.896     1687.260      491.944        0.308        0.139       56.854       27.488        0.234      345.476       23.033      857.641
07/16/2013  03:31:00       22.855       -5.495       -2.081       23.171       21.139       17.510      536.883      446.864      306.617        0.092        0.065       23.507       11.350        0.233      345.426       22.949      857.652
07/16/2013  03:32:00       10.290        6.429       11.548       12.860       14.912       13.262      165.373      222.375      175.887        0.042        0.028       12.134       10.770        0.788      345.339       22.797      857.645
07/16/2013  03:33:00       19.654        8.111        1.235       19.149       19.858        8.115      366.703      394.355       65.850        0.064        0.041       21.261       11.690        0.302      345.509       23.091      857.644
07/16/2013  03:34:00        1.321       40.480        1.548       11.796       21.936       16.960      139.146      481.194      287.639        0.128        0.045       40.501       15.001        0.137      345.686       23.393      857.647
07/16/2013  03:35:00      -15.170       11.393       13.152       19.701       14.003       14.437      388.144      196.083      208.433        0.066        0.040       18.972        9.590        0.255      345.650       23.332      857.662
07/16/2013  03:36:00       27.067      -56.214       -3.280       15.282       19.547       13.694      233.549      382.066      187.536        0.235        0.040       62.391       12.671        0.041      345.554       23.165      857.672
07/16/2013  03:37:00       47.112       -2.673        9.622       17.049       23.755       20.036      290.683      564.289      401.450        0.179        0.063       47.188       18.322        0.151      345.398       22.900      857.658
07/16/2013  03:38:00       31.765        4.334       27.626       38.845       31.752       22.465     1508.926     1008.188      504.671        0.241        0.151       32.059       17.476        0.297      345.483       23.046      857.674
07/16/2013  03:39:00      -31.742       39.337       -0.054       27.872       47.019       22.630      776.870     2210.821      512.127        0.303        0.175       50.546       22.873        0.205      345.667       23.362      857.699
07/16/2013  03:40:00      -13.204       -9.539       -1.559       14.624       32.786        9.654      213.854     1074.940       93.191        0.082        0.069       16.289        8.341        0.262      345.604       23.253      857.694
07/16/2013  03:41:00       -5.493       -3.098        8.658       25.826       40.050       23.755      667.004     1603.992      564.284        0.147        0.142        6.306       13.157        4.353      345.483       23.048      857.684
07/16/2013  03:42:00       -8.066      -42.127       -9.911       14.524       15.896       15.056      210.939      252.692      226.685        0.131        0.035       42.893        7.845        0.033      345.577       23.207      857.692
07/16/2013  03:43:00       -4.330      -69.078        7.399       31.132       25.141       16.484      969.222      632.072      271.714        0.336        0.094       69.214       11.376        0.027      345.656       23.341      857.674
07/16/2013  03:44:00        1.506      -84.389       -1.068       31.784       30.716       19.824     1010.201      943.481      393.000        0.474        0.117       84.402       20.093        0.057      345.590       23.230      857.668
07/16/2013  03:45:00        1.647        9.857       10.615       46.995       31.872       18.119     2208.528     1015.810      328.295        0.188        0.178        9.994       23.178        5.379      345.482       23.043      857.671
07/16/2013  03:46:00       15.373       36.153       -3.900       15.117       16.821        9.307      228.516      282.936       86.621        0.108        0.030       39.286        6.967        0.031      345.283       22.704      857.675
07/16/2013  03:47:00       -5.299       39.090        1.894       15.571       22.344       18.974      242.441      499.238      360.021        0.133        0.055       39.448       12.761        0.105      345.140       22.458      857.676
07/16/2013  03:48:00      -34.249       42.513       -5.909       21.336       19.684        8.451      455.211      387.451       71.419        0.196        0.046       54.593        6.294        0.013      345.348       22.815      857.692
07/16/2013  03:49:00      -43.585       41.312       -6.102       25.179       15.376       10.571      633.973      236.422      111.740        0.231        0.049       60.053        6.791        0.013      345.235       22.620      857.701
07/16/2013  03:50:00      -35.893       16.665       -0.073       12.448       22.068       11.156      154.942      487.015      124.458        0.117        0.038       39.573        8.849        0.050      345.393       22.891      857.705
07/16/2013  03:51:00      -42.577      -16.326       -0.377       18.900       22.310       13.657      357.222      497.745      186.508        0.156        0.052       45.599        8.501        0.035      345.241       22.631      857.700
07/16/2013  03:52:00      -11.204      -33.205        2.476       16.676       11.044        8.080      278.091      121.976       65.280        0.085        0.023       35.045        4.673        0.018      345.339       22.798      857.694
07/16/2013  03:53:00       -1.634      -39.342       -4.095        8.784        7.663        5.377       77.150       58.722       28.916        0.087        0.008       39.376        3.210        0.007      345.466       23.015      857.664
07/16/2013  03:54:00      -14.135      -48.854       -4.145        9.379        7.838        5.283       87.966       61.442       27.914        0.139        0.009       50.858        3.567        0.005      345.442       22.975      857.647
07/16/2013  03:55:00      -28.900      -70.856       -6.666       14.454       21.375       11.146      208.913      456.902      124.223        0.335        0.040       76.523        7.480        0.010      345.474       23.029      857.630
07/16/2013  03:56:00      -50.030      -80.225       -2.230       23.717       38.793       15.900      562.474     1504.903      252.796        0.563        0.116       94.547       15.962        0.029      345.484       23.048      857.601
07/16/2013  03:57:00      -50.762      -85.274        3.664       28.722       33.807       17.998      824.949     1142.941      323.937        0.608        0.115       99.239       14.891        0.023      345.437       22.965      857.591
07/16/2013  03:58:00      -68.496      -83.418        7.102       39.373       44.718       25.846     1550.240     1999.706      668.005        0.796        0.211      107.937       17.490        0.026      345.376       22.861      857.585
07/16/2013  03:59:00      -48.549      -37.658        7.371       32.756       33.596       17.177     1072.953     1128.685      295.039        0.316        0.125       61.442       12.502        0.041      345.308       22.745      857.585
07/16/2013  04:00:00      -71.601      -36.679        1.189       31.063       31.790       15.350      964.885     1010.626      235.608        0.434        0.111       80.449       16.159        0.040      345.318       22.761      857.593
07/16/2013  04:01:00      -62.119      -84.462       10.433       63.220       58.690       35.200     3996.824     3444.539     1239.056        0.989        0.434      104.846       31.216        0.089      345.324       22.772      857.598
07/16/2013  04:02:00      -43.668      -21.092        1.197       31.614       43.585       19.710      999.449     1899.675      388.473        0.282        0.164       48.495       15.123        0.097      345.214       22.585      857.599
07/16/2013  04:03:00     -115.032      -15.120       -1.328       44.892       62.728       21.611     2015.319     3934.824      467.041        0.994        0.321      116.022       15.270        0.017      345.266       22.673      857.602
07/16/2013  04:04:00     -111.475      -23.690      -21.343       18.871       26.137       13.559      356.114      683.159      183.838        0.733        0.061      113.965        7.758        0.005      345.006       22.230      857.619
07/16/2013  04:05:00     -136.732      -34.965       -5.267       51.357       41.820       16.453     2637.496     1748.911      270.707        1.230        0.233      141.132       12.141        0.007      344.923       22.087      857.635
07/16/2013  04:06:00      -24.836      -18.413        2.879       23.995       38.148       16.690      575.756     1455.234      278.553        0.164        0.115       30.917       13.451        0.189      345.058       22.319      857.639
07/16/2013  04:07:00      -24.189      -24.749        6.646       29.203       31.564       16.110      852.794      996.310      259.532        0.167        0.105       34.607       16.867        0.238      345.096       22.381      857.663
07/16/2013  04:08:00      -26.162      -46.676        6.526       31.968       19.780       16.748     1021.960      391.235      280.494        0.230        0.085       53.508       12.337        0.053      345.146       22.468      857.678
07/16/2013  04:09:00      -56.440      -72.638        1.042       38.115       38.016       27.662     1452.786     1445.195      765.180        0.606        0.183       91.987       26.777        0.085      345.089       22.372      857.690
07/16/2013  04:10:00      -44.327      -50.445       -0.005       35.590       37.595       16.778     1266.649     1413.402      281.488        0.373        0.148       67.154       11.025        0.027      345.147       22.469      857.685
07/16/2013  04:11:00      -78.381      -32.380        8.932       35.331       32.353       19.823     1248.269     1046.715      392.965        0.498        0.134       84.806       18.109        0.046      345.060       22.322      857.688
07/16/2013  04:12:00       -7.753      -67.248        6.284       27.164       45.524       21.256      737.869     2072.460      451.815        0.394        0.163       67.693       26.264        0.151      345.055       22.313      857.675
07/16/2013  04:13:00      -41.482      -74.865        1.192       37.084       38.373       19.077     1375.209     1472.497      363.949        0.527        0.161       85.590       19.849        0.054      345.039       22.285      857.669
07/16/2013  04:14:00      -88.369     -108.630        2.467       53.008       54.168       27.317     2809.866     2934.209      746.222        1.305        0.325      140.034       22.850        0.027      344.982       22.187      857.669
07/16/2013  04:15:00     -124.270      -84.536       -2.742       45.572       47.275       27.129     2076.766     2234.940      736.003        1.382        0.252      150.297       25.002        0.028      344.939       22.114      857.660
07/16/2013  04:16:00      -94.390      -83.855       -1.325       55.452       43.433       26.666     3074.932     1886.420      711.075        1.081        0.284      126.258       29.274        0.054      344.966       22.158      857.661
07/16/2013  04:17:00     -105.684      -65.137       -5.009       66.551       37.556       28.285     4429.059     1410.440      800.049        1.104        0.332      124.145       29.279        0.056      344.962       22.153      857.662
07/16/2013  04:18:00      -57.208      -35.668        6.246       44.290       33.723       19.889     1961.568     1137.232      395.571        0.404        0.175       67.416       24.969        0.137      344.942       22.117      857.678
07/16/2013  04:19:00      -51.572      -59.608        8.297       40.760       31.331       21.616     1661.409      981.639      467.230        0.470        0.156       78.821       15.472        0.039      345.003       22.222      857.684
07/16/2013  04:20:00      -28.194      -42.968       11.561       38.485       29.513       22.082     1481.083      871.046      487.607        0.281        0.142       51.392       17.908        0.121      345.041       22.290      857.690
07/16/2013  04:21:00      -15.697      -42.617       10.259       20.448       27.933       13.633      418.114      780.260      185.862        0.178        0.069       45.416       12.194        0.072      344.972       22.170      857.695
07/16/2013  04:22:00      -45.762      -83.249       -3.107       24.684       31.003       14.037      609.303      961.170      197.041        0.540        0.088       94.997       11.320        0.014      344.968       22.164      857.704
07/16/2013  04:23:00       -6.541      -31.830       27.236       15.917       36.615       22.404      253.353     1340.635      501.935        0.195        0.105       32.495       13.459        0.172      344.846       21.955      857.701
07/16/2013  04:24:00       -2.531      -32.998        8.957       25.438       29.829       24.067      647.091      889.757      579.199        0.165        0.106       33.095       17.981        0.295      344.851       21.962      857.698
07/16/2013  04:25:00      -26.348      -23.715       -4.722       25.848       19.474       14.647      668.106      379.245      214.546        0.127        0.063       35.449        5.590        0.025      344.901       22.051      857.698
07/16/2013  04:26:00      -63.523      -41.425       -2.224       30.082       27.517       19.517      904.902      757.180      380.929        0.390        0.102       75.836       14.831        0.038      344.890       22.031      857.710
07/16/2013  04:27:00      -72.243      -51.940        1.944       34.307       26.218       20.969     1176.978      687.367      439.684        0.511        0.115       88.977       12.958        0.021      344.824       21.916      857.723
07/16/2013  04:28:00      -87.016      -37.606       -7.934       36.649       23.555       18.699     1343.137      554.835      349.670        0.565        0.112       94.794       10.977        0.013      344.803       21.882      857.733
07/16/2013  04:29:00      -98.326      -53.662       -0.430       28.619       25.887       15.770      819.033      670.147      248.690        0.714        0.087      112.016       10.938        0.010      344.771       21.826      857.745
07/16/2013  04:30:00      -29.332      -33.227       14.691       32.035       23.720       18.157     1026.226      562.624      329.682        0.205        0.096       44.322       18.484        0.174      344.739       21.772      857.766
07/16/2013  04:31:00     -109.400      -31.154        1.286       47.383       27.401       19.110     2245.105      750.789      365.204        0.815        0.168      113.749       20.631        0.033      344.750       21.791      857.784
07/16/2013  04:32:00      -77.761      -71.226        2.612       60.178       45.480       31.122     3621.379     2068.403      968.555        0.889        0.333      105.451       33.097        0.099      344.774       21.831      857.793
07/16/2013  04:33:00     -107.816      -74.580       -0.638       68.837       45.701       28.415     4738.553     2088.605      807.392        1.241        0.382      131.097       23.320        0.032      344.811       21.896      857.782
07/16/2013  04:34:00      -56.732      -98.618       -2.385       37.302       45.205       22.344     1391.446     2043.529      499.239        0.844        0.197      113.772       13.429        0.014      344.828       21.922      857.764
07/16/2013  04:35:00      -35.535      -76.839      -10.747       40.544       38.829       20.141     1643.856     1507.676      405.674        0.542        0.178       84.658       19.620        0.054      344.858       21.975      857.754
07/16/2013  04:36:00      -64.263      -53.266       -2.078       40.268       51.904       22.383     1621.510     2694.019      501.004        0.589        0.241       83.468       17.622        0.045      344.804       21.884      857.753
07/16/2013  04:37:00      -70.351      -96.920       -7.123       33.345       41.284       17.249     1111.886     1704.380      297.532        0.875        0.156      119.761       15.434        0.017      344.797       21.870      857.754
07/16/2013  04:38:00      -64.426      -44.581      -10.425       44.623       31.837       21.917     1991.179     1013.598      480.335        0.487        0.174       78.346       11.127        0.020      344.760       21.807      857.751
07/16/2013  04:39:00      -39.210      -66.479       -3.496       42.605       36.502       19.241     1815.157     1332.415      370.208        0.474        0.176       77.181       13.636        0.031      344.818       21.907      857.753
07/16/2013  04:40:00      -48.727      -35.579        7.111       42.910       26.326       22.451     1841.232      693.075      504.045        0.336        0.152       60.334        9.601        0.025      344.737       21.768      857.767
07/16/2013  04:41:00      -48.769      -58.669       -4.296       38.381       37.502       22.300     1473.116     1406.390      497.306        0.461        0.169       76.292       16.135        0.045      344.766       21.817      857.770
07/16/2013  04:42:00      -16.595      -41.713        1.165       27.081       28.499       21.819      733.361      812.201      476.067        0.202        0.101       44.893       16.721        0.139      344.746       21.783      857.767
07/16/2013  04:43:00      -36.391      -38.278      -11.200       33.025       25.462       19.381     1090.623      648.296      375.613        0.251        0.106       52.816       15.281        0.084      344.744       21.780      857.777
07/16/2013  04:44:00      -46.917      -45.091        4.220       52.330       31.072       16.196     2738.405      965.491      262.310        0.411        0.198       65.072       18.037        0.077      344.696       21.698      857.792
07/16/2013  04:45:00      -63.232      -62.632        3.792       58.860       34.873       22.396     3464.483     1216.157      501.565        0.656        0.259       89.000       20.194        0.051      344.666       21.647      857.801
07/16/2013  04:46:00      -86.550     -104.532       -1.989       37.436       26.970       23.552     1401.420      727.392      554.687        1.055        0.134      135.713       20.227        0.022      344.652       21.622      857.807
07/16/2013  04:47:00     -105.761      -86.767      -12.032       40.579       31.055       19.477     1646.678      964.382      379.348        1.092        0.150      136.799       11.782        0.007      344.660       21.637      857.806
07/16/2013  04:48:00      -81.101      -61.289        3.565       49.177       43.130       33.800     2418.398     1860.173     1142.420        0.788        0.271      101.655       29.356        0.083      344.635       21.594      857.796
07/16/2013  04:49:00     -102.845      -82.718       -5.870       37.574       39.197       22.120     1411.783     1536.375      489.302        1.045        0.172      131.983       18.708        0.020      344.604       21.540      857.794
07/16/2013  04:50:00      -62.250      -59.547        0.201       45.233       37.540       25.012     2046.066     1409.260      625.597        0.575        0.204       86.145       19.163        0.049      344.640       21.603      857.797
07/16/2013  04:51:00      -85.987      -89.675       -7.234       31.006       30.145       14.748      961.382      908.715      217.499        0.879        0.104      124.239       10.521        0.007      344.656       21.630      857.799
07/16/2013  04:52:00      -38.369      -69.501       -1.947       46.564       47.367       23.849     2168.194     2243.643      568.775        0.564        0.249       79.388       22.809        0.083      344.703       21.708      857.798
07/16/2013  04:53:00      -64.289      -49.050       -0.025       43.614       34.606       21.701     1902.186     1197.560      470.942        0.505        0.179       80.864       24.181        0.089      344.600       21.535      857.802
07/16/2013  04:54:00      -88.221      -59.746       -6.906       36.791       43.128       20.588     1353.609     1860.033      423.864        0.752        0.182      106.548       10.440        0.010      344.603       21.541      857.805
07/16/2013  04:55:00      -98.957      -44.041        2.269       33.284       34.370       19.239     1107.815     1181.314      370.148        0.720        0.133      108.315       15.431        0.020      344.589       21.514      857.818
07/16/2013  04:56:00      -82.225      -19.167       -0.896       32.958       31.704       16.621     1086.219     1005.119      276.256        0.475        0.118       84.429        9.886        0.014      344.543       21.437      857.828
07/16/2013  04:57:00      -66.654       26.862       -4.237       36.822       26.414       15.779     1355.874      697.687      248.963        0.374        0.115       71.864       16.556        0.053      344.442       21.264      857.833
07/16/2013  04:58:00      -80.429        4.369       -9.117       37.096       21.045       14.541     1376.099      442.913      211.448        0.430        0.102       80.548       15.654        0.038      344.295       21.013      857.837
07/16/2013  04:59:00      -57.404       17.977       -7.432       18.788       16.031       12.609      352.971      257.005      158.984        0.222        0.038       60.153        8.225        0.019      344.305       21.031      857.847
07/16/2013  05:00:00      -47.676        7.711      -11.343       19.147       18.676       10.176      366.594      348.811      103.558        0.164        0.041       48.295        7.178        0.022      344.366       21.135      857.853
07/16/2013  05:01:00      -66.379       -8.150       -7.554       18.945       20.401       14.861      358.918      416.213      220.849        0.276        0.050       66.877        5.815        0.008      344.378       21.153      857.860
07/16/2013  05:02:00      -50.329      -40.065       -8.463       26.570       13.207       10.987      705.991      174.431      120.708        0.261        0.050       64.329       10.347        0.026      344.477       21.322      857.864
07/16/2013  05:03:00      -23.743      -54.305        3.035       33.471       22.826       17.816     1120.279      521.021      317.415        0.274        0.098       59.269       15.017        0.064      344.531       21.416      857.877
07/16/2013  05:04:00     -100.665      -74.046       -8.868       43.103       28.511       22.115     1857.858      812.851      489.064        0.943        0.158      124.965       20.557        0.027      344.515       21.389      857.884
07/16/2013  05:05:00      -75.495      -80.014       -0.719       59.445       38.829       28.110     3533.731     1507.656      790.197        0.897        0.292      110.008       35.100        0.102      344.506       21.373      857.907
07/16/2013  05:06:00     -104.081      -62.593       -1.199       26.799       25.053       21.219      718.206      627.636      450.227        0.827        0.090      121.453       18.423        0.023      344.491       21.348      857.924
07/16/2013  05:07:00     -113.807      -41.626      -10.240       26.683       36.207       21.172      711.996     1310.921      448.248        0.863        0.124      121.181       16.678        0.019      344.449       21.276      857.930
07/16/2013  05:08:00     -103.090      -34.064       -1.372       43.508       32.697       21.408     1892.964     1069.122      458.300        0.760        0.171      108.572       23.489        0.047      344.378       21.156      857.928
07/16/2013  05:09:00     -132.898      -47.961        9.974       58.838       35.060       23.535     3461.860     1229.180      553.918        1.265        0.262      141.288       28.100        0.040      344.306       21.031      857.934
07/16/2013  05:10:00     -169.082      -52.190       -7.030       52.572       43.366       25.154     2763.836     1880.612      632.706        1.832        0.264      176.954       28.777        0.026      344.330       21.070      857.937
07/16/2013  05:11:00     -150.672      -39.596       -3.275       27.939       26.415       17.669      780.599      697.778      312.198        1.304        0.090      155.787       13.392        0.007      344.342       21.094      857.952
07/16/2013  05:12:00      -96.613      -50.746        3.294       25.589       27.516       15.762      654.818      757.133      248.434        0.679        0.083      109.129       13.593        0.016      344.316       21.050      857.964
07/16/2013  05:13:00      -96.909      -49.418       -0.423       24.914       24.267       16.006      620.706      588.888      256.177        0.665        0.073      108.782       14.171        0.017      344.349       21.104      857.967
07/16/2013  05:14:00      -93.156      -38.234       -5.615       31.363       17.080       10.403      983.646      291.737      108.227        0.578        0.069      100.696       11.116        0.012      344.362       21.128      857.969
07/16/2013  05:15:00      -32.375      -19.824        1.281       31.190       19.451       11.671      972.835      378.330      136.222        0.146        0.074       37.962        8.962        0.056      344.302       21.026      857.975
07/16/2013  05:16:00      -24.648      -42.800        0.002       27.557       21.759       16.511      759.391      473.450      272.601        0.197        0.075       49.390       15.459        0.098      344.342       21.092      857.983
07/16/2013  05:17:00      -14.705      -49.954        3.581       24.307       29.307       16.243      590.854      858.875      263.845        0.222        0.086       52.073       16.222        0.097      344.327       21.068      857.990
07/16/2013  05:18:00      -43.505      -83.590       -9.250       10.927       12.593        9.825      119.398      158.583       96.529        0.467        0.019       94.234        5.766        0.004      344.344       21.096      857.985
07/16/2013  05:19:00      -39.272      -39.050        2.305       17.852       22.175       13.375      318.696      491.741      178.881        0.203        0.049       55.383        6.443        0.014      344.348       21.107      857.979
07/16/2013  05:20:00       -5.634      -24.242        8.534       13.782       25.709       14.853      189.952      660.931      220.605        0.088        0.054       24.888       17.003        0.467      344.309       21.037      857.979
07/16/2013  05:21:00      -48.556      -70.774       -6.023       42.285       31.000       14.609     1787.994      961.012      213.418        0.518        0.148       85.829       10.840        0.016      344.356       21.116      857.983
07/16/2013  05:22:00      -67.854      -60.024       -3.839       27.249       23.707       14.660      742.488      562.002      214.919        0.487        0.076       90.593       16.644        0.034      344.257       20.948      857.979
07/16/2013  05:23:00      -80.894      -62.972       -0.598       36.099       33.778       14.324     1303.160     1140.934      205.170        0.658        0.132      102.515       14.535        0.020      344.237       20.912      857.971
07/16/2013  05:24:00      -73.410      -52.964        0.900       45.326       26.540       21.095     2054.418      704.370      444.983        0.570        0.160       90.522       22.725        0.063      344.241       20.921      857.975
07/16/2013  05:25:00      -62.724      -39.042        1.968       31.412       23.916       16.003      986.687      571.993      256.089        0.364        0.091       73.882       15.561        0.044      344.251       20.938      857.972
07/16/2013  05:26:00      -58.356      -57.042       -7.981       36.401       28.712       18.797     1325.014      824.386      353.317        0.461        0.125       81.605       22.630        0.077      344.162       20.784      857.962
07/16/2013  05:27:00      -72.250      -67.386       -2.409       17.814       12.329       15.262      317.337      152.003      232.942        0.523        0.035       98.798       12.012        0.015      344.156       20.775      857.948
07/16/2013  05:28:00      -40.776      -37.617        6.019       32.098       24.436       16.690     1030.274      597.099      278.571        0.251        0.095       55.477       16.876        0.093      344.125       20.722      857.942
07/16/2013  05:29:00      -67.351      -40.574        6.288       29.105       16.737       13.870      847.092      280.132      192.371        0.377        0.066       78.628       16.150        0.042      344.085       20.656      857.949
07/16/2013  05:30:00      -83.705      -33.917        2.015       28.245       17.395       13.190      797.801      302.595      173.987        0.472        0.064       90.316       15.356        0.029      344.058       20.607      857.949
07/16/2013  05:31:00      -51.162      -34.723        1.933       30.758       19.908       12.841      946.054      396.341      164.901        0.267        0.075       61.833       12.214        0.039      344.179       20.814      857.957
07/16/2013  05:32:00      -62.461      -28.669       -4.144       15.319       12.120        9.555      234.669      146.883       91.290        0.261        0.024       68.726        7.725        0.013      344.160       20.782      857.967
07/16/2013  05:33:00      -33.318      -12.041        1.153       19.485       13.578       11.734      379.675      184.369      137.688        0.098        0.035       35.427       10.137        0.082      344.052       20.597      857.984
07/16/2013  05:34:00      -49.236      -16.712      -17.909       17.481       22.997       12.811      305.587      528.865      164.115        0.201        0.050       51.995       15.284        0.086      344.181       20.818      857.988
07/16/2013  05:35:00      -22.779      -18.411       -6.576       18.312       28.606       12.810      335.320      818.318      164.083        0.111        0.066       29.289       10.903        0.139      344.220       20.884      857.981
07/16/2013  05:36:00      -46.975       18.074      -10.132        6.814        8.451        4.734       46.425       71.426       22.407        0.139        0.007       50.332        2.250        0.002      344.070       20.631      857.979
07/16/2013  05:37:00      -53.073       41.271      -11.019       12.859       18.351        9.350      165.364      336.762       87.414        0.262        0.029       67.231        7.534        0.013      343.953       20.427      857.974
07/16/2013  05:38:00      -43.889       20.979       -3.682       22.468       15.529       13.280      504.793      241.156      176.369        0.165        0.046       48.646        9.257        0.036      343.878       20.302      857.965
07/16/2013  05:39:00      -54.268        5.979        1.113       29.332       20.354       14.790      860.362      414.304      218.746        0.224        0.075       54.596       11.853        0.047      343.888       20.317      857.950
07/16/2013  05:40:00      -40.448       -3.536       -2.047       15.367       17.689        8.724      236.150      312.913       76.114        0.114        0.031       40.602        6.243        0.024      343.892       20.325      857.944
07/16/2013  05:41:00      -36.041      -15.986      -14.788       13.241       10.339        8.784      175.315      106.901       77.153        0.107        0.018       39.427        4.344        0.012      343.940       20.405      857.945
07/16/2013  05:42:00        8.403      -21.652        0.931        9.247        9.166       11.738       85.509       84.021      137.773        0.042        0.015       23.226        6.223        0.072      343.898       20.335      857.958
07/16/2013  05:43:00        3.866       -0.770        1.751        8.927        6.841        4.587       79.688       46.802       21.041        0.008        0.007        3.942        3.005        0.581      343.834       20.226      857.976
07/16/2013  05:44:00      -27.162      -11.913       -5.152       12.618       11.450        8.893      159.217      131.094       79.090        0.064        0.018       29.660        6.468        0.048      343.788       20.147      857.989
07/16/2013  05:45:00      -50.772      -13.794       -0.568       10.551        7.819        8.285      111.329       61.133       68.640        0.150        0.012       52.613        2.752        0.003      343.581       19.792      857.987
07/16/2013  05:46:00      -20.065      -15.838       -6.875       13.050        5.339        4.516      170.297       28.507       20.391        0.046        0.011       25.563        3.530        0.019      343.694       19.984      857.985
07/16/2013  05:47:00       -7.310      -32.600       -2.162        4.669       12.792        3.692       21.797      163.641       13.634        0.066        0.010       33.409        3.923        0.014      343.993       20.498      857.981
07/16/2013  05:48:00       -2.550      -46.091        7.028        8.777       18.281       14.275       77.029      334.210      203.764        0.140        0.031       46.161        8.471        0.034      343.972       20.460      857.979
07/16/2013  05:49:00      -32.525      -12.460       -0.107       30.212       15.241       12.665      912.783      232.277      160.396        0.126        0.065       34.830       16.582        0.227      343.907       20.350      857.996
07/16/2013  05:50:00      -77.802       -3.111       -3.268       42.929       24.264       18.264     1842.869      588.718      333.581        0.442        0.138       77.865       18.717        0.058      343.594       19.817      858.031
07/16/2013  05:51:00      -16.595        4.856        3.080       18.169       19.682       19.209      330.098      387.398      368.994        0.070        0.054       17.291       10.860        0.395      343.456       19.580      858.057
07/16/2013  05:52:00      -56.470       -3.946       -3.503       39.256       38.772       19.382     1541.053     1503.305      375.675        0.332        0.171       56.608       25.484        0.203      343.688       19.975      858.090
07/16/2013  05:53:00       -1.576      -44.197        7.124       23.548       19.329       19.492      554.518      373.615      379.927        0.166        0.065       44.225       16.691        0.142      343.787       20.146      858.121
07/16/2013  05:54:00      -21.785      -93.580        6.280       35.805       46.069       20.591     1281.994     2122.310      423.996        0.655        0.191       96.082       22.719        0.056      343.843       20.241      858.166
07/16/2013  05:55:00      -27.534      -70.536        6.480       32.619       27.476       25.774     1064.002      754.927      664.325        0.413        0.124       75.719       17.777        0.055      343.940       20.405      858.182
07/16/2013  05:56:00      -78.965      -41.959       -0.152       38.872       34.481       29.529     1511.019     1188.949      871.956        0.578        0.179       89.421       25.657        0.082      343.851       20.254      858.203
07/16/2013  05:57:00      -74.954      -81.836        0.334       28.124       41.343       18.644      790.966     1709.259      347.601        0.758        0.142      110.974       11.284        0.010      343.727       20.041      858.208
07/16/2013  05:58:00      -50.824      -20.020        4.626       46.416       26.774       21.743     2154.458      716.824      472.756        0.317        0.167       54.625       19.706        0.130      343.653       19.917      858.204
07/16/2013  05:59:00      -79.123      -30.646        3.169       38.314       35.797       24.078     1467.976     1281.428      579.763        0.527        0.166       84.850       21.539        0.064      343.670       19.945      858.193
07/16/2013  06:00:00     -114.691        6.464       -9.690       25.276       24.789       13.910      638.855      614.490      193.501        0.737        0.072      114.873       10.115        0.008      343.581       19.793      858.188
07/16/2013  06:01:00      -73.351        4.356       -2.036       36.172       26.298       16.265     1308.388      691.568      264.548        0.383        0.113       73.480       18.453        0.063      343.430       19.537      858.198
07/16/2013  06:02:00     -115.519       -0.377       -6.758       30.171       23.535       10.492      910.310      553.884      110.091        0.748        0.079      115.520       10.425        0.008      343.588       19.805      858.214
07/16/2013  06:03:00      -64.918      -27.614        2.587       25.296       26.072       14.111      639.891      679.728      199.130        0.325        0.076       70.547       11.579        0.027      343.541       19.726      858.231
07/16/2013  06:04:00      -92.014      -43.537       -7.727       17.372       19.388       12.848      301.789      375.879      165.077        0.563        0.042      101.794        8.620        0.007      343.549       19.738      858.241
07/16/2013  06:05:00      -89.073      -49.339       -5.411       23.264       21.755       11.942      541.229      473.293      142.600        0.578        0.058      101.824        9.538        0.009      343.521       19.692      858.244
07/16/2013  06:06:00      -80.864      -30.584       -6.894       11.805       11.327        8.164      139.351      128.305       66.656        0.393        0.017       86.455        3.001        0.001      343.573       19.780      858.240
07/16/2013  06:07:00      -56.286      -29.826       -0.566       21.484       14.196        9.843      461.581      201.515       96.879        0.241        0.038       63.700        5.201        0.007      343.585       19.802      858.228
07/16/2013  06:08:00      -60.447       -2.716       -2.219       26.598       11.727       13.475      707.475      137.529      181.573        0.235        0.051       60.508       13.984        0.053      343.508       19.669      858.214
07/16/2013  06:09:00      -68.368       10.044       -8.238       11.289        9.712        6.416      127.440       94.328       41.167        0.255        0.013       69.102        1.869        0.001      343.485       19.629      858.208
07/16/2013  06:10:00      -66.271       -5.890       -8.511       13.372       15.983        9.777      178.820      255.456       95.594        0.251        0.026       66.532        8.184        0.015      343.562       19.761      858.205
07/16/2013  06:11:00      -16.494      -27.129       -3.860       21.180        9.554        8.716      448.609       91.287       75.960        0.082        0.031       31.749        8.183        0.066      343.721       20.032      858.201
07/16/2013  06:12:00      -12.168      -29.440       -1.917       10.580        6.304        5.030      111.926       39.739       25.305        0.060        0.009       31.856        3.850        0.015      343.909       20.353      858.183
07/16/2013  06:13:00      -44.604       -3.252       -1.602       12.239        6.622        4.048      149.784       43.847       16.384        0.111        0.011       44.723        6.074        0.018      343.993       20.495      858.181
07/16/2013  06:14:00      -34.174       -8.724       -2.772       13.920       12.900        9.533      193.763      166.421       90.880        0.085        0.023       35.270        8.939        0.064      344.032       20.562      858.167
07/16/2013  06:15:00      -33.201      -14.266       -2.944       10.203       22.318        9.720      104.110      498.095       94.473        0.101        0.035       36.136        8.825        0.060      344.106       20.690      858.153
07/16/2013  06:16:00        1.105      -11.218       -3.182       15.638       10.687        7.082      244.557      114.215       50.156        0.027        0.020       11.272        4.519        0.161      344.063       20.616      858.147
07/16/2013  06:17:00      -29.632       -6.204       -8.170        9.381        6.888        7.373       87.996       47.445       54.355        0.059        0.009       30.275        4.978        0.027      344.120       20.713      858.147
07/16/2013  06:18:00      -44.095       -8.801       -7.424       11.631       14.912       10.446      135.288      222.377      109.129        0.127        0.023       44.964        6.306        0.020      343.853       20.256      858.158
07/16/2013  06:19:00        1.234       -6.091        6.816       11.403       11.204       13.148      130.024      125.537      172.862        0.026        0.021        6.215        8.775        1.994      344.131       20.731      858.171
07/16/2013  06:20:00      -11.413       -3.146        7.073       15.910        6.816        9.258      253.117       46.463       85.718        0.029        0.019       11.838       10.364        0.766      344.027       20.554      858.184
07/16/2013  06:21:00       -2.285       -8.840       -4.331        7.584        6.170        5.974       57.524       38.073       35.689        0.012        0.007        9.130        1.879        0.042      344.075       20.637      858.204
07/16/2013  06:22:00       -1.535        0.720       11.709        4.897        6.259        6.210       23.978       39.172       38.563        0.012        0.005        1.695        4.041        5.681      344.412       21.210      858.224
07/16/2013  06:23:00        2.604        0.522        8.833        6.622        2.723        5.051       43.844        7.415       25.508        0.008        0.004        2.656        1.621        0.373      344.379       21.155      858.245
07/16/2013  06:24:00       -8.000       -5.570        1.561        9.358        8.153        3.879       87.580       66.466       15.047        0.013        0.008        9.748        5.397        0.306      344.151       20.766      858.272
07/16/2013  06:25:00        4.208       -9.241       -5.170        6.543        6.149        6.237       42.807       37.813       38.896        0.012        0.006       10.154        3.349        0.109      344.241       20.921      858.283
07/16/2013  06:26:00      -12.606       -2.130        1.393       14.795        7.801        5.664      218.897       60.862       32.083        0.024        0.016       12.785        6.748        0.279      344.220       20.885      858.286
07/16/2013  06:27:00      -30.382       -1.382       -1.568        6.650        6.797        7.018       44.221       46.203       49.258        0.053        0.007       30.413        4.603        0.023      344.048       20.590      858.284
07/16/2013  06:28:00      -20.901       -5.861        0.358        9.618        6.658        5.376       92.511       44.333       28.898        0.032        0.008       21.707        5.827        0.072      344.049       20.591      858.283
07/16/2013  06:29:00      -15.326        5.915        1.010        3.549        2.809        3.738       12.598        7.890       13.973        0.015        0.002       16.428        1.283        0.006      344.042       20.582      858.277
07/16/2013  06:30:00      -16.233      -14.015       -0.026        5.831       18.320        4.394       34.002      335.609       19.304        0.042        0.019       21.446        2.641        0.015      344.132       20.736      858.284
07/16/2013  06:31:00      -12.038      -59.366       -9.925       15.948       14.486       12.834      254.336      209.849      164.704        0.220        0.031       60.574        6.305        0.011      344.208       20.863      858.305
07/16/2013  06:32:00      -15.863      -34.863      -19.148       15.845       17.431       11.010      251.069      303.856      121.225        0.125        0.034       38.302        6.771        0.031      344.165       20.790      858.318
07/16/2013  06:33:00      -23.296      -26.012        2.105       30.379       24.159       16.313      922.880      583.647      266.106        0.150        0.089       34.918        7.008        0.040      344.144       20.754      858.342
07/16/2013  06:34:00      -43.358      -45.279       -1.482       27.924       30.469       15.280      779.754      928.337      233.492        0.294        0.097       62.691        6.592        0.011      344.010       20.526      858.366
07/16/2013  06:35:00      -24.394      -29.462       -0.563       18.912       33.108       12.415      357.650     1096.112      154.144        0.154        0.080       38.250       14.163        0.137      344.057       20.605      858.382
07/16/2013  06:36:00      -14.663       -3.976       11.872       18.304       12.904       11.146      335.050      166.500      124.230        0.050        0.031       15.193        7.364        0.235      344.170       20.799      858.409
07/16/2013  06:37:00      -15.177      -21.593        8.973       27.886       22.843       19.199      777.646      521.795      368.595        0.122        0.083       26.394       15.212        0.332      344.131       20.733      858.423
07/16/2013  06:38:00      -41.908      -51.782        3.547       52.091       31.306       24.055     2713.480      980.065      578.622        0.436        0.214       66.615       21.557        0.105      343.902       20.340      858.450
07/16/2013  06:39:00      -36.306      -55.935        6.135       65.094       43.286       32.086     4237.217     1873.704     1029.493        0.581        0.357       66.685       28.836        0.187      343.929       20.387      858.457
07/16/2013  06:40:00      -78.889      -67.410       -3.104       70.422       43.259       34.649     4959.252     1871.361     1200.556        0.940        0.402      103.767       39.144        0.142      343.753       20.087      858.458
07/16/2013  06:41:00     -105.185      -70.060       -1.387       52.301       35.895       23.606     2735.382     1288.426      557.236        1.028        0.229      126.381       14.157        0.013      343.680       19.962      858.460
07/16/2013  06:42:00       -3.516      -25.014       -0.084       25.438       25.448       15.333      647.101      647.589      235.105        0.108        0.076       25.260       13.521        0.287      343.837       20.229      858.445
07/16/2013  06:43:00      -17.423      -65.064       -1.145       42.112       26.428       28.105     1773.458      698.423      789.906        0.390        0.163       67.357       26.373        0.153      343.872       20.290      858.444
07/16/2013  06:44:00       -7.717      -94.816        4.003       32.518       52.020       25.747     1057.399     2706.052      662.908        0.675        0.221       95.130       23.382        0.060      343.925       20.380      858.435
07/16/2013  06:45:00      -27.562      -49.524       11.117       31.259       23.520       17.143      977.129      553.174      293.888        0.258        0.091       56.677        4.825        0.007      343.908       20.351      858.432
07/16/2013  06:46:00      -23.364      -58.497        0.130       38.420       46.623       23.475     1476.123     2173.711      551.085        0.408        0.210       62.990       18.189        0.083      343.931       20.390      858.432
07/16/2013  06:47:00      -50.677     -103.119       -1.391       35.871       52.322       23.685     1286.698     2737.584      560.988        0.889        0.229      114.899       24.090        0.044      343.858       20.266      858.436
07/16/2013  06:48:00      -47.716      -50.037        4.743       49.292       29.885       26.086     2429.715      893.086      680.482        0.440        0.200       69.141       16.258        0.055      343.918       20.367      858.447
07/16/2013  06:49:00      -60.630      -74.842        8.113       41.297       48.186       27.647     1705.413     2321.912      764.375        0.707        0.240       96.319       26.998        0.079      343.860       20.269      858.455
07/16/2013  06:50:00      -78.159      -83.814       -5.338       48.847       49.111       27.927     2386.059     2411.894      779.915        0.937        0.279      114.602       30.469        0.071      343.817       20.198      858.469
07/16/2013  06:51:00      -75.786      -58.584       -3.608       43.792       33.098       26.017     1917.710     1095.463      676.859        0.644        0.185       95.790       14.591        0.023      343.816       20.194      858.474
07/16/2013  06:52:00     -105.490      -79.800       -0.419       38.035       33.259       19.675     1446.675     1106.178      387.125        1.022        0.147      132.273       19.016        0.021      343.780       20.133      858.491
07/16/2013  06:53:00     -108.232      -61.635        6.173       60.105       39.346       29.054     3612.577     1548.099      844.127        1.078        0.300      124.551       28.235        0.051      343.895       20.329      858.493
07/16/2013  06:54:00      -86.791     -109.866        3.785       68.012       65.598       40.725     4625.621     4303.111     1658.498        1.510        0.529      140.012       47.441        0.115      343.935       20.396      858.524
07/16/2013  06:55:00      -58.555      -26.561       12.469       59.643       56.157       38.910     3557.282     3153.588     1513.985        0.626        0.411       64.298       40.728        0.401      344.036       20.571      858.545
07/16/2013  06:56:00      -64.691      -67.172        6.881       54.922       38.853       31.320     3016.419     1509.592      980.921        0.712        0.275       93.258       33.183        0.127      343.978       20.470      858.575
07/16/2013  06:57:00      -44.507      -55.490        3.382       38.194       23.452       18.230     1458.744      549.991      332.333        0.371        0.117       71.134       18.796        0.070      343.907       20.351      858.576
07/16/2013  06:58:00       -0.623       -7.197       18.049       17.426       14.518       11.494      303.659      210.782      132.105        0.051        0.032        7.224        9.844        1.857      344.287       20.999      858.584
07/16/2013  06:59:00      -64.271      -10.996        2.060       28.351       18.549       18.175      803.775      344.053      330.327        0.287        0.074       65.205       13.200        0.041      343.932       20.394      858.583
07/16/2013  07:00:00      -45.831      -32.399        1.881       32.947       18.372       14.626     1085.479      337.514      213.908        0.239        0.082       56.127       19.659        0.123      344.156       20.772      858.580
07/16/2013  07:01:00      -38.165      -50.055        3.143       18.647       24.478       13.783      347.710      599.167      189.978        0.255        0.057       62.945       13.985        0.049      344.157       20.775      858.584
07/16/2013  07:02:00      -33.197      -53.389        3.371       27.923       25.338       14.508      779.681      642.009      210.476        0.280        0.082       62.868       16.085        0.065      344.222       20.888      858.587
07/16/2013  07:03:00      -49.154      -81.651       -0.986       24.175       28.878       13.830      584.415      833.946      191.267        0.535        0.080       95.305       15.337        0.026      344.216       20.878      858.602
07/16/2013  07:04:00      -53.897      -73.360        2.928       19.475       20.685       14.430      379.262      427.860      208.236        0.466        0.051       91.030       10.832        0.014      344.210       20.866      858.608
07/16/2013  07:05:00      -50.262      -71.979       -2.515       23.131       31.936       11.623      535.066     1019.924      135.085        0.470        0.085       87.791        7.657        0.008      344.269       20.967      858.615
07/16/2013  07:06:00      -16.899      -48.178        7.698       21.031       21.040       14.970      442.316      442.686      224.109        0.189        0.055       51.056       10.621        0.043      344.358       21.119      858.620
07/16/2013  07:07:00      -39.644      -62.284        2.894       29.211       44.688       16.388      853.296     1997.023      268.568        0.429        0.156       73.831       23.514        0.101      344.455       21.288      858.609
07/16/2013  07:08:00      -11.747      -35.173       11.889       22.241       27.593       19.736      494.653      761.348      389.508        0.158        0.082       37.083       16.857        0.207      344.535       21.423      858.617
07/16/2013  07:09:00      -42.318      -53.220       10.443       39.847       33.142       23.843     1587.775     1098.394      568.488        0.399        0.163       67.994       24.796        0.133      344.506       21.372      858.612
07/16/2013  07:10:00      -75.662      -95.601       -2.359       26.754       27.876       21.102      715.750      777.091      445.295        0.840        0.097      121.919       17.295        0.020      344.328       21.070      858.631
07/16/2013  07:11:00      -73.351      -77.466       -5.686       34.950       20.714       15.831     1221.511      429.070      250.627        0.666        0.095      106.684       16.774        0.025      344.396       21.184      858.635
07/16/2013  07:12:00      -43.743      -51.364        0.762       35.272       29.410       20.525     1244.112      864.948      421.269        0.354        0.127       67.467       16.302        0.058      344.426       21.235      858.642
07/16/2013  07:13:00      -52.102      -58.459        1.254       43.686       36.078       21.580     1908.451     1301.588      465.703        0.490        0.184       78.308       20.335        0.067      344.461       21.296      858.661
07/16/2013  07:14:00      -69.217      -85.999       -8.230       31.226       21.700       23.223      975.053      470.903      539.326        0.712        0.099      110.394       22.365        0.041      344.501       21.366      858.670
07/16/2013  07:15:00      -60.354      -61.734        0.864       40.275       27.262       16.350     1622.082      743.232      267.308        0.504        0.132       86.335       17.108        0.039      344.567       21.478      858.682
07/16/2013  07:16:00      -38.745      -29.196       13.160       34.394       34.118       18.575     1182.944     1164.015      345.048        0.261        0.135       48.514       21.449        0.195      344.763       21.813      858.686
07/16/2013  07:17:00      -53.104      -55.536       -1.643       23.130       26.430       15.641      535.010      698.557      244.632        0.369        0.074       76.839       11.717        0.023      344.586       21.511      858.694
07/16/2013  07:18:00      -57.186      -73.493        3.801       24.551       31.201       17.196      602.746      973.483      295.689        0.528        0.094       93.121       15.461        0.028      344.569       21.479      858.691
07/16/2013  07:19:00      -72.655      -71.916        2.617       37.957       25.937       22.091     1440.751      672.736      488.010        0.653        0.130      102.228       22.775        0.050      344.581       21.502      858.698
07/16/2013  07:20:00      -68.629      -76.323       -1.339       33.942       35.263       23.450     1152.061     1243.514      549.886        0.674        0.147      102.641       24.063        0.055      344.573       21.488      858.686
07/16/2013  07:21:00      -87.857     -104.181       -6.667       44.783       48.017       24.704     2005.473     2305.648      610.270        1.177        0.246      136.282       21.772        0.026      344.550       21.447      858.684
07/16/2013  07:22:00      -56.750      -84.426        4.351       34.898       51.911       29.659     1217.836     2694.728      879.640        0.758        0.240      101.727       31.265        0.094      344.665       21.645      858.682
07/16/2013  07:23:00      -61.847      -98.885        0.673       32.417       39.316       19.243     1050.878     1545.732      370.309        0.828        0.148      116.633       15.503        0.018      344.615       21.560      858.683
07/16/2013  07:24:00      -71.961      -97.224       -5.664       37.606       42.781       19.490     1414.232     1830.230      379.854        0.914        0.181      120.958       21.042        0.030      344.657       21.631      858.678
07/16/2013  07:25:00      -33.630      -97.448       -9.056       37.830       24.909       27.050     1431.141      620.460      731.682        0.675        0.139      103.088       17.254        0.028      344.721       21.741      858.688
07/16/2013  07:26:00      -28.897      -59.922       -0.910       21.363       46.502       24.230      456.384     2162.480      587.073        0.382        0.160       66.526       18.442        0.077      344.819       21.909      858.699
07/16/2013  07:27:00      -14.554     -118.125       -0.024       26.123       17.906       17.309      682.421      320.616      299.607        0.773        0.065      119.018        8.480        0.005      344.706       21.715      858.715
07/16/2013  07:28:00      -40.735     -124.397        1.917       29.601       33.839       22.478      876.225     1145.069      505.268        0.983        0.126      130.897       15.418        0.014      344.696       21.698      858.729
07/16/2013  07:29:00      -49.148      -38.298        1.988       30.533       36.110       19.153      932.268     1303.938      366.833        0.324        0.130       62.308       22.816        0.134      344.927       22.095      858.762
07/16/2013  07:30:00      -23.801      -31.200       13.426       20.188       28.137       19.376      407.574      791.687      375.445        0.165        0.079       39.242       15.223        0.150      344.988       22.199      858.785
07/16/2013  07:31:00       -5.610      -23.805        9.098       35.637       28.374       25.979     1269.986      805.066      674.919        0.171        0.137       24.457       13.108        0.287      345.001       22.219      858.820
07/16/2013  07:32:00      -14.585      -48.860       18.662       28.368       47.387       22.252      804.730     2245.499      495.155        0.325        0.177       50.990       22.344        0.192      345.087       22.366      858.836
07/16/2013  07:33:00      -27.790       16.932       18.252       21.683       27.656       21.602      470.168      764.837      466.649        0.155        0.085       32.542       11.306        0.121      345.091       22.375      858.838
07/16/2013  07:34:00       11.502      -49.507        0.079       34.324       39.459       30.028     1178.118     1557.051      901.674        0.311        0.182       50.826       25.218        0.246      345.037       22.282      858.838
07/16/2013  07:35:00      -32.186      -19.006        3.388       18.696       14.176       14.446      349.527      200.966      208.690        0.108        0.038       37.378        8.034        0.046      345.026       22.262      858.838
07/16/2013  07:36:00      -29.542        8.742        8.373       25.131       20.142       17.223      631.562      405.701      296.634        0.118        0.067       30.808       12.553        0.166      345.118       22.420      858.839
07/16/2013  07:37:00      -15.340      -19.620       -1.845       27.284       22.871       16.047      744.418      523.065      257.510        0.107        0.076       24.905        8.619        0.120      345.093       22.377      858.846
07/16/2013  07:38:00       -1.833      -11.990       10.620       26.658       21.183       18.975      710.628      448.702      360.060        0.089        0.076       12.130       17.057        1.977      345.276       22.692      858.854
07/16/2013  07:39:00        1.715      -22.629        1.213       21.129       31.453       21.178      446.444      989.283      448.503        0.120        0.094       22.694       10.353        0.208      345.285       22.707      858.864
07/16/2013  07:40:00        8.246      -91.605       -7.043       25.959       28.521       25.722      673.852      813.437      661.639        0.533        0.107       91.976       20.900        0.052      345.103       22.396      858.856
07/16/2013  07:41:00       -7.605      -11.181       27.365       12.469       22.424       12.828      155.476      502.835      164.546        0.088        0.041       13.522        7.811        0.334      345.845       23.668      858.847
07/16/2013  07:42:00       -3.155      -14.025       16.106        8.821       12.754       11.778       77.808      162.653      138.722        0.042        0.019       14.376        8.329        0.336      345.870       23.710      858.841
07/16/2013  07:43:00      -28.243       -6.555        1.474       18.852       11.477       14.145      355.412      131.723      200.069        0.076        0.034       28.994       12.323        0.181      345.223       22.601      858.854
07/16/2013  07:44:00      -20.679      -14.368        3.443       22.785       23.329       20.917      519.153      544.224      437.527        0.107        0.075       25.181       17.133        0.463      345.601       23.249      858.856
07/16/2013  07:45:00      -28.631      -35.699       12.565       34.030       21.967       17.242     1158.010      482.545      297.294        0.209        0.097       45.762       18.496        0.163      345.488       23.055      858.874
07/16/2013  07:46:00      -21.259      -13.200        7.212       34.036       20.522       21.829     1158.473      421.167      476.489        0.137        0.103       25.024       15.841        0.401      345.581       23.213      858.884
07/16/2013  07:47:00      -44.178      -34.844        4.344       30.951       42.725       19.158      957.970     1825.465      367.014        0.317        0.158       56.266       18.989        0.114      345.328       22.781      858.898
07/16/2013  07:48:00      -51.132      -33.768        5.479       24.625       23.010       14.291      606.378      529.482      204.236        0.256        0.067       61.276       14.720        0.058      345.324       22.774      858.899
07/16/2013  07:49:00      -57.702      -65.062        5.285       31.961       25.234       16.157     1021.529      636.754      261.035        0.475        0.096       86.963       20.527        0.056      345.263       22.668      858.918
07/16/2013  07:50:00      -57.439      -59.797       -7.938       15.928       13.620       11.103      253.702      185.493      123.286        0.375        0.028       82.915        9.002        0.012      345.155       22.486      858.931
07/16/2013  07:51:00      -51.169      -48.872       -4.507       15.141       22.069       13.676      229.242      487.037      187.043        0.297        0.045       70.758       10.040        0.020      345.257       22.656      858.940
07/16/2013  07:52:00      -33.367      -60.177       -1.922       26.135       31.548       18.122      683.027      995.252      328.410        0.337        0.100       68.809       18.711        0.074      345.414       22.927      858.969
07/16/2013  07:53:00      -21.123      -10.381       11.878       30.023       17.575       22.015      901.397      308.885      484.652        0.119        0.085       23.536       17.702        0.566      346.071       24.056      858.988
07/16/2013  07:54:00      -15.484      -22.696        8.720       22.159       23.798       22.214      491.005      566.367      493.480        0.119        0.078       27.475       16.196        0.348      345.733       23.475      859.010
07/16/2013  07:55:00      -60.851      -59.209        3.004       27.149       32.241       24.950      737.066     1039.482      622.508        0.481        0.120       84.903       17.275        0.041      345.416       22.930      859.030
07/16/2013  07:56:00      -39.843      -26.294        4.546       18.569       23.050       12.453      344.802      531.296      155.077        0.167        0.052       47.737        9.801        0.042      345.518       23.107      859.041
07/16/2013  07:57:00      -27.890        5.917       15.558       21.947       23.450       14.911      481.658      549.915      222.324        0.115        0.063       28.511        9.210        0.104      345.845       23.667      859.048
07/16/2013  07:58:00      -26.799       -0.051        1.628       13.319       24.766        9.465      177.394      613.368       89.591        0.080        0.044       26.799        7.398        0.076      345.522       23.112      859.048
07/16/2013  07:59:00      -29.546        0.059        5.951       19.082       15.378       13.623      364.112      236.477      185.597        0.085        0.039       29.546        9.702        0.108      345.729       23.469      859.045
07/16/2013  08:00:00      -24.097        6.102        5.078       20.301       16.065       24.158      412.123      258.089      583.607        0.095        0.063       24.858       10.506        0.179      345.901       23.764      859.043
07/16/2013  08:01:00      -21.045       12.143       17.180       16.707       17.129       19.263      279.115      293.419      371.070        0.091        0.047       24.297       11.860        0.238      346.138       24.172      859.037
07/16/2013  08:02:00      -13.513      -23.901        9.379       16.713       28.976       18.810      279.328      839.589      353.819        0.116        0.074       27.456       15.695        0.327      346.042       24.004      859.043
07/16/2013  08:03:00      -11.652      -46.926        7.586       31.876       31.263       28.913     1016.087      977.357      835.972        0.261        0.141       48.351       25.805        0.285      345.811       23.609      859.040
07/16/2013  08:04:00      -18.606      -17.022       21.214       27.045       36.426       34.051      731.422     1326.843     1159.492        0.215        0.161       25.218       17.847        0.501      346.087       24.083      859.045
07/16/2013  08:05:00      -13.786       36.322       45.037       32.865       30.242       31.394     1080.099      914.564      985.590        0.326        0.149       38.851       17.136        0.195      346.130       24.157      859.038
07/16/2013  08:06:00       13.274      -30.101       35.836       30.837       47.296       43.064      950.950     2236.874     1854.492        0.370        0.252       32.898       36.892        1.258      346.164       24.216      859.037
07/16/2013  08:07:00       -4.513        7.255       60.493       15.735       35.835       18.343      247.602     1284.152      336.462        0.280        0.093        8.544       10.355        1.469      346.467       24.736      859.035
07/16/2013  08:08:00      -33.142      -10.125       33.638       27.341       27.795       32.002      747.527      772.559     1024.123        0.244        0.127       34.654       26.297        0.576      345.983       23.903      859.030
07/16/2013  08:09:00      -19.573        6.258       12.684       23.002       20.591       24.637      529.109      423.980      606.991        0.107        0.078       20.549       17.460        0.722      346.346       24.528      859.042
07/16/2013  08:10:00       15.280      -34.155       22.464       33.566       76.416       29.625     1126.701     5839.373      877.664        0.487        0.392       37.417       30.739        0.675      346.116       24.133      859.047
07/16/2013  08:11:00      -43.628        2.108        6.706       25.743       23.828       17.028      662.722      567.779      289.948        0.174        0.076       43.679        3.454        0.006      345.855       23.683      859.049
07/16/2013  08:12:00      -22.855      -19.068        8.486       21.762       25.911       14.738      473.570      671.402      217.217        0.116        0.068       29.765        7.530        0.064      346.025       23.976      859.049
07/16/2013  08:13:00      -15.854        1.174       23.773       20.897       17.098       21.557      436.696      292.351      464.692        0.101        0.060       15.898       15.174        0.911      346.440       24.689      859.039
07/16/2013  08:14:00       -8.134       14.132       53.247       10.032       19.821       12.316      100.650      392.864      151.675        0.187        0.032       16.306       10.584        0.421      346.781       25.277      859.047
07/16/2013  08:15:00      -11.973       13.707       41.951       11.676       31.226       30.927      136.331      975.080      956.498        0.208        0.103       18.200       27.171        2.229      346.530       24.844      859.044
07/16/2013  08:16:00      -16.279      -20.422       14.570       21.131       29.486       24.876      446.509      869.416      618.839        0.141        0.097       26.116       23.256        0.793      346.224       24.318      859.054
07/16/2013  08:17:00       -4.619      -17.678       15.574       18.563       24.777       18.786      344.572      613.915      352.910        0.094        0.066       18.271       16.550        0.820      346.570       24.913      859.055
07/16/2013  08:18:00       -9.443       15.179       49.087       23.132       40.963       32.045      535.099     1677.966     1026.910        0.298        0.162       17.876       28.550        2.551      346.598       24.960      859.056
07/16/2013  08:19:00       15.860       -3.712       43.730       32.399       38.981       27.761     1049.666     1519.528      770.682        0.276        0.167       16.289       27.141        2.776      346.584       24.938      859.054
07/16/2013  08:20:00       21.185      -46.724       23.394       44.713       53.688       42.914     1999.271     2882.352     1841.570        0.495        0.336       51.303       39.565        0.595      346.298       24.446      859.042
07/16/2013  08:21:00       -0.637       22.717       49.653       27.058       32.264       28.859      732.129     1040.976      832.842        0.279        0.130       22.726        8.296        0.133      346.582       24.933      859.047
07/16/2013  08:22:00        3.619       20.208       70.232       24.583       39.026       19.846      604.314     1523.003      393.846        0.394        0.126       20.529       14.116        0.473      346.628       25.013      859.054
07/16/2013  08:23:00       10.134        7.960       45.521       36.163       50.922       32.543     1307.795     2593.019     1059.045        0.360        0.248       12.887       23.514        3.329      346.472       24.745      859.073
07/16/2013  08:24:00        1.254      -55.119       25.088       24.517       58.711       37.211      601.088     3447.009     1384.662        0.455        0.272       55.133       39.257        0.507      346.330       24.499      859.077
07/16/2013  08:25:00      -12.380      -30.587       17.772       28.593       46.055       30.106      817.549     2121.054      906.345        0.262        0.192       32.998       23.435        0.504      346.522       24.830      859.085
07/16/2013  08:26:00       -2.858       10.514       44.645       24.672       44.606       28.001      608.700     1989.709      784.041        0.275        0.169       10.895       23.030        4.468      346.757       25.234      859.089
07/16/2013  08:27:00       39.027      -10.193       37.250       47.885       53.713       29.274     2292.947     2885.056      856.943        0.452        0.302       40.336       27.208        0.455      346.343       24.524      859.092
07/16/2013  08:28:00       52.704      -43.138        6.268       50.861       57.514       38.900     2586.856     3307.803     1513.248        0.604        0.370       68.107       42.110        0.382      346.296       24.442      859.098
07/16/2013  08:29:00       -9.389      -52.071       21.234       36.253       47.591       30.465     1314.282     2264.922      928.141        0.388        0.225       52.911       25.244        0.228      346.470       24.741      859.101
07/16/2013  08:30:00       -2.202       40.177       56.122       26.801       36.583       20.033      718.284     1338.298      401.314        0.361        0.123       40.237       17.546        0.190      346.691       25.122      859.101
07/16/2013  08:31:00      -14.693       16.816       38.197       18.671       38.017       23.577      348.617     1445.281      555.861        0.215        0.117       22.331       19.582        0.769      346.488       24.773      859.089
07/16/2013  08:32:00      -56.070      -18.033       -7.480       26.387       22.879       18.374      696.286      523.442      337.615        0.254        0.078       58.899        7.694        0.017      346.031       23.986      859.091
07/16/2013  08:33:00      -55.977      -49.135        1.010       44.461       36.242       26.231     1976.802     1313.497      688.060        0.476        0.199       74.483       23.465        0.099      346.193       24.266      859.081
07/16/2013  08:34:00      -52.515      -66.466        3.264       33.794       36.385       20.076     1142.042     1323.852      403.032        0.503        0.143       84.709       11.897        0.020      346.147       24.186      859.090
07/16/2013  08:35:00      -57.123      -96.173       -5.894       22.447       24.340       13.757      503.881      592.451      189.250        0.692        0.064      111.858        7.943        0.005      345.878       23.725      859.097
07/16/2013  08:36:00      -70.424      -66.147       -5.777       14.090       36.321       15.133      198.519     1319.182      229.020        0.556        0.087       96.618       14.366        0.022      345.874       23.717      859.100
07/16/2013  08:37:00      -73.121      -14.560      -14.143       12.682       22.955       14.994      160.834      526.919      224.816        0.334        0.046       74.557       12.530        0.028      345.899       23.761      859.097
07/16/2013  08:38:00      -37.214       34.628       -9.621       16.203       20.838       14.142      262.532      434.214      200.007        0.179        0.045       50.833        9.956        0.038      346.147       24.186      859.096
07/16/2013  08:39:00      -33.314       14.544        2.782       31.363       18.515       18.979      983.649      342.800      360.189        0.151        0.084       36.351       17.072        0.221      346.426       24.664      859.096
07/16/2013  08:40:00       31.481       14.386       21.605       32.159       26.689       24.708     1034.174      712.316      610.505        0.201        0.118       34.612       19.665        0.323      346.796       25.303      859.094
07/16/2013  08:41:00      -16.095      -17.697       15.668       22.398       28.235       21.189      501.657      797.241      448.991        0.128        0.087       23.922       19.897        0.692      346.831       25.364      859.106
07/16/2013  08:42:00      -73.022      -28.017        1.135       43.498       27.583       20.699     1892.081      760.820      428.443        0.460        0.154       78.212       22.606        0.084      346.168       24.222      859.101
07/16/2013  08:43:00      -78.049       -7.311       -1.083       25.271       28.360       19.544      638.618      804.287      381.960        0.399        0.091       78.391       18.749        0.057      346.025       23.976      859.106
07/16/2013  08:44:00      -26.066        7.584       11.152       17.016       14.693       18.292      289.556      215.897      334.597        0.085        0.042       27.147       15.010        0.306      346.714       25.162      859.110
07/16/2013  08:45:00      -15.719      -19.994       19.804        9.723       14.480       10.970       94.537      209.669      120.352        0.073        0.021       25.433        7.706        0.092      346.582       24.934      859.111
07/16/2013  08:46:00        3.389        0.140       39.784       18.006       19.906       16.388      324.219      396.234      268.564        0.129        0.049        3.391       13.722       16.371      347.786       27.009      859.113
07/16/2013  08:47:00       12.693       37.646       39.671       28.620       34.524       20.026      819.129     1191.886      401.054        0.278        0.121       39.728       17.263        0.189      347.095       25.818      859.117
07/16/2013  08:48:00      -10.692       40.889       56.470       16.593       30.731       19.578      275.319      944.381      383.286        0.329        0.080       42.264       11.598        0.075      347.150       25.912      859.110
07/16/2013  08:49:00       -4.825        4.996       38.339       14.955       40.109       25.040      223.662     1608.729      627.014        0.199        0.123        6.946       26.080       14.098      346.925       25.524      859.114
07/16/2013  08:50:00       -4.523      -24.251        7.335       20.811       23.537       20.379      433.095      553.983      415.320        0.103        0.070       24.669       16.166        0.429      346.621       25.001      859.117
07/16/2013  08:51:00      -18.004      -17.146       12.362       43.355       26.245       27.806     1879.621      688.812      773.154        0.206        0.167       24.863       27.295        1.205      346.773       25.262      859.135
07/16/2013  08:52:00      -23.671      -64.555       -5.401       31.327       13.874       18.964      981.355      192.498      359.626        0.314        0.077       68.758       16.539        0.058      346.043       24.006      859.147
07/16/2013  08:53:00      -59.021        4.753      -13.384       23.736       27.619       18.638      563.403      762.807      347.365        0.268        0.084       59.212       11.597        0.038      346.168       24.221      859.160
07/16/2013  08:54:00      -12.905       45.141        9.291       17.902       32.445       23.348      320.491     1052.674      545.111        0.210        0.096       46.950       15.406        0.108      346.900       25.482      859.157
07/16/2013  08:55:00       29.966       45.596        9.917       33.117       26.428       21.783     1096.726      698.448      474.497        0.267        0.113       54.562       14.226        0.068      346.541       24.864      859.157
07/16/2013  08:56:00       -7.209        1.856       32.887       11.644       16.010       14.794      135.586      256.320      218.862        0.087        0.031        7.444       10.210        1.881      347.434       26.402      859.159
07/16/2013  08:57:00       52.852       -3.959       20.768       33.133       39.538       24.899     1097.796     1563.254      619.984        0.326        0.164       53.001       21.852        0.170      346.751       25.224      859.162
07/16/2013  08:58:00       76.465       19.355       33.431       26.961       45.490       28.877      726.902     2069.351      833.874        0.548        0.182       78.877       23.495        0.089      346.408       24.634      859.153
07/16/2013  08:59:00        4.670       70.867        5.510       43.840       26.308       32.654     1921.953      692.086     1066.265        0.438        0.184       71.021       25.308        0.127      346.349       24.534      859.143
07/16/2013  09:00:00      -25.942       22.590        2.971       40.074       33.305       22.778     1605.912     1109.196      518.839        0.221        0.162       34.399       15.808        0.211      346.550       24.877      859.126
07/16/2013  09:01:00      -49.275       43.558       -5.125       25.881       21.747       23.581      669.824      472.934      556.047        0.302        0.085       65.768       18.914        0.083      346.551       24.881      859.126
07/16/2013  09:02:00      -13.087       12.045       27.885       15.445       18.609       22.605      238.553      346.285      510.991        0.109        0.055       17.786       10.727        0.364      347.616       26.715      859.118
07/16/2013  09:03:00        8.824       10.686       23.824       13.508       15.951       12.258      182.462      254.428      150.252        0.067        0.029       13.858        6.871        0.246      347.559       26.617      859.112
07/16/2013  09:04:00       32.082       20.477       28.472       39.169       21.056       23.016     1534.178      443.369      529.744        0.238        0.125       38.060       18.183        0.228      347.266       26.110      859.109
07/16/2013  09:05:00       36.196       46.124       12.329       26.408       29.597       28.921      697.403      875.977      836.426        0.300        0.120       58.631       21.423        0.134      347.112       25.846      859.102
07/16/2013  09:06:00       -8.601       30.005       24.006       23.062       25.724       25.037      531.846      661.747      626.858        0.169        0.091       31.214       16.331        0.274      347.396       26.335      859.110
07/16/2013  09:07:00       34.049       25.238       35.008       25.550       25.938       27.600      652.778      672.776      761.778        0.255        0.104       42.382       13.449        0.101      347.122       25.863      859.105
07/16/2013  09:08:00        0.630       23.101       58.084       33.747       39.056       22.121     1138.857     1525.366      489.338        0.353        0.158       23.109       18.425        0.636      347.258       26.098      859.102
07/16/2013  09:09:00        7.995       22.099       60.251       30.479       40.091       24.499      928.995     1607.315      600.186        0.366        0.157       23.501       14.572        0.384      347.344       26.245      859.106
07/16/2013  09:10:00       38.342       10.313       30.049       45.604       30.122       32.579     2079.702      907.361     1061.423        0.326        0.202       39.705       23.219        0.342      346.868       25.426      859.106
07/16/2013  09:11:00       14.192       -5.768       28.807       23.541       34.499       24.846      554.182     1190.156      617.307        0.171        0.118       15.319       25.712        2.817      347.103       25.831      859.105
07/16/2013  09:12:00       12.526       25.355        3.620       27.156       32.584       17.476      737.441     1061.689      305.395        0.146        0.105       28.280       17.103        0.366      346.913       25.503      859.094
07/16/2013  09:13:00       30.195       62.350       15.573       36.135       42.278       34.308     1305.709     1787.393     1177.067        0.466        0.214       69.277       30.119        0.189      347.105       25.834      859.090
07/16/2013  09:14:00        7.874       36.061       13.334       31.014       21.782       29.436      961.852      474.462      866.483        0.192        0.115       36.911        9.768        0.070      347.178       25.961      859.080
07/16/2013  09:15:00       -8.211       21.876       16.636       18.868       27.160       19.968      355.988      737.682      398.722        0.116        0.075       23.366        9.105        0.152      347.468       26.461      859.076
07/16/2013  09:16:00      -16.079        8.746       30.931       19.745       17.143       11.296      389.882      293.878      127.589        0.105        0.041       18.304        2.427        0.018      347.684       26.831      859.072
07/16/2013  09:17:00      -54.161       38.101       13.374       23.268       24.831       28.230      541.413      616.558      796.945        0.326        0.098       66.220       17.546        0.070      346.791       25.294      859.059
07/16/2013  09:18:00        7.697       25.652       36.432       20.387       25.182       12.332      415.625      634.155      152.077        0.162        0.060       26.782        8.891        0.110      347.885       27.178      859.053
07/16/2013  09:19:00        1.345       23.743       28.292       21.825       21.737       15.544      476.348      472.478      241.621        0.128        0.060       23.781       12.372        0.271      347.848       27.114      859.047
07/16/2013  09:20:00      -15.402       -2.253       19.973       24.525       24.609       15.286      601.463      605.605      233.672        0.104        0.072       15.565       13.039        0.702      347.457       26.441      859.044
07/16/2013  09:21:00      -31.771      -37.886       -4.780       18.982       29.962       21.840      360.327      897.702      476.969        0.210        0.087       49.444       17.754        0.129      346.653       25.056      859.041
07/16/2013  09:22:00      -22.512       47.132        8.806       25.318       20.963       32.797      641.026      439.452     1075.643        0.248        0.108       52.232       10.054        0.037      347.134       25.884      859.038
07/16/2013  09:23:00      -40.182        2.057       13.175       42.589       31.521       28.348     1813.865      993.551      803.585        0.270        0.181       40.235       24.804        0.380      347.156       25.921      859.039
07/16/2013  09:24:00      -20.257      -49.164       -8.494       35.414       33.957       19.491     1254.123     1153.056      379.894        0.284        0.139       53.173        7.284        0.019      346.712       25.158      859.050
07/16/2013  09:25:00      -39.130        1.685        1.909       16.995       22.782       20.453      288.841      518.998      418.309        0.138        0.061       39.167       13.907        0.126      346.855       25.405      859.039
07/16/2013  09:26:00        7.856       13.185       30.582       28.011       19.194       18.657      784.597      368.420      348.083        0.134        0.075       15.348       14.362        0.876      347.661       26.793      859.047
07/16/2013  09:27:00       84.138       -3.160       27.805       62.685       43.110       46.940     3929.440     1858.483     2203.401        0.793        0.400       84.197       36.056        0.183      346.895       25.474      859.027
07/16/2013  09:28:00       96.778      -14.053       32.802       82.560       71.590       56.810     6816.170     5125.147     3227.367        1.290        0.758       97.793       52.694        0.290      347.020       25.686      859.018
07/16/2013  09:29:00       58.611       47.318       54.628       41.911       48.527       32.188     1756.545     2354.842     1036.091        0.690        0.257       75.328       15.808        0.044      347.072       25.777      859.006
07/16/2013  09:30:00       86.633      -18.506       24.313       78.550      110.196       69.070     6170.071    12143.081     4770.676        1.576        1.154       88.588       80.905        0.834      346.753       25.227      859.000
07/16/2013  09:31:00       15.367       43.410       87.363       48.296       73.764       54.266     2332.478     5441.162     2944.797        1.023        0.536       46.049       51.576        1.254      347.344       26.247      858.999
07/16/2013  09:32:00       59.500      -49.204       30.521       69.302      105.066       71.130     4802.806    11038.769     5059.527        1.389        1.045       77.209       69.345        0.807      346.906       25.490      858.995
07/16/2013  09:33:00       35.857      -53.246        7.049       51.211       54.231       29.427     2622.556     2941.043      865.970        0.530        0.321       64.194       27.345        0.181      346.959       25.582      859.011
07/16/2013  09:34:00      -11.608      -12.858       15.485       27.725       29.518       24.582      768.657      871.288      604.267        0.139        0.112       17.323       16.762        0.936      347.393       26.331      859.002
07/16/2013  09:35:00       12.029       35.970       30.755       31.934       33.903       26.397     1019.800     1149.422      696.799        0.262        0.143       37.928       20.969        0.306      347.449       26.426      858.987
07/16/2013  09:36:00      -15.705      -51.157       27.632       34.582       81.133       43.962     1195.939     6582.606     1932.632        0.667        0.486       53.513       39.502        0.545      347.246       26.078      858.974
07/16/2013  09:37:00      -51.062      -96.003       -5.019       37.649       46.421       29.336     1417.455     2154.930      860.616        0.814        0.222      108.738       18.697        0.030      347.048       25.734      858.962
07/16/2013  09:38:00       34.702     -134.293        4.865       44.147       84.549       50.653     1948.967     7148.455     2565.688        1.546        0.583      138.704       33.603        0.059      347.115       25.849      858.964
07/16/2013  09:39:00       47.203      -82.010       -1.643       32.559       65.019       56.221     1060.084     4227.433     3160.796        0.870        0.422       94.624       49.174        0.270      347.076       25.784      858.966
07/16/2013  09:40:00      -44.520      -20.546      -15.170       41.845       30.535       17.765     1750.976      932.373      315.599        0.282        0.150       49.032       12.294        0.063      346.684       25.110      858.963
07/16/2013  09:41:00      -61.680        4.893        6.505       46.618       30.683       22.343     2173.200      941.421      499.200        0.374        0.181       61.873       23.205        0.141      346.941       25.551      858.947
07/16/2013  09:42:00        5.551       -5.064       30.119       33.828       38.351       29.282     1144.309     1470.803      857.419        0.222        0.174        7.514       19.810        6.951      347.545       26.593      858.936
07/16/2013  09:43:00       16.686       24.325       38.354       38.424       43.091       23.872     1476.391     1856.833      569.862        0.312        0.195       29.498       10.690        0.131      347.343       26.243      858.933
07/16/2013  09:44:00       76.167        7.282       33.015       43.207       41.155       42.064     1866.834     1693.714     1769.342        0.614        0.266       76.515       35.249        0.212      347.015       25.680      858.942
07/16/2013  09:45:00      -13.079      -54.611      -11.676       22.473       37.366       29.006      505.022     1396.196      841.351        0.302        0.137       56.155       25.004        0.198      346.820       25.345      858.939
07/16/2013  09:46:00      -13.015      -33.375        2.813       16.925       17.172       15.029      286.462      294.877      225.862        0.105        0.040       35.823       12.408        0.120      346.998       25.650      858.928
07/16/2013  09:47:00       18.406      -17.986       48.966       63.576       60.896       55.371     4041.942     3708.369     3065.954        0.694        0.541       25.735       46.577        3.276      347.834       27.093      858.912
07/16/2013  09:48:00       29.786      -20.044       54.564       54.980      107.096       49.161     3022.850    11469.582     2416.782        1.058        0.845       35.902       64.445        3.222      347.230       26.048      858.907
07/16/2013  09:49:00       58.984      -98.097       19.147       73.428      115.820       68.585     5391.662    13414.229     4703.859        1.848        1.175      114.464       72.956        0.406      347.502       26.517      858.899
07/16/2013  09:50:00       96.385     -157.963       -7.286       68.651       84.205       63.841     4712.949     7090.431     4075.715        2.508        0.794      185.048       56.427        0.093      347.130       25.874      858.896
07/16/2013  09:51:00       23.652        2.639       56.280       51.413       54.999       53.372     2643.330     3024.865     2848.537        0.612        0.426       23.799       40.341        2.873      347.568       26.632      858.898
07/16/2013  09:52:00       17.584      -74.885       -0.129       35.437       40.033       24.862     1255.783     1602.625      618.102        0.470        0.174       76.921       13.695        0.032      346.957       25.579      858.884
07/16/2013  09:53:00       65.523     -190.948      -25.686       59.486       58.908       38.123     3538.594     3470.135     1453.363        2.494        0.423      201.877       33.654        0.028      347.294       26.156      858.877
07/16/2013  09:54:00      115.289      -77.099        1.073       69.702       77.307       42.173     4858.388     5976.308     1778.556        1.592        0.631      138.693       46.795        0.114      347.450       26.428      858.884
07/16/2013  09:55:00      -20.632      -26.535       30.105       44.293       76.335       32.322     1961.894     5827.105     1044.720        0.543        0.442       33.612       37.486        1.244      347.383       26.313      858.889
07/16/2013  09:56:00      -44.039      -74.522       -2.201       54.942       42.395       26.685     3018.626     1797.366      712.091        0.651        0.276       86.562       13.136        0.023      347.090       25.808      858.896
07/16/2013  09:57:00        3.663       11.695       30.073       21.222       19.365       17.775      450.376      375.014      315.947        0.110        0.057       12.256        6.550        0.286      348.114       27.575      858.897
07/16/2013  09:58:00       18.891       -6.234       28.342       25.065       35.055       18.886      628.269     1228.840      356.687        0.171        0.111       19.893       11.071        0.310      347.942       27.278      858.893
07/16/2013  09:59:00        9.374      -70.394       -9.107       32.891       45.814       26.883     1081.837     2098.946      722.690        0.451        0.195       71.016       26.668        0.141      347.290       26.152      858.901
07/16/2013  10:00:00       31.245       -6.789        9.828       42.735       42.075       31.282     1826.309     1770.289      978.586        0.285        0.229       31.974       36.520        1.305      347.223       26.039      858.899
07/16/2013  10:01:00       18.285       -3.240       29.093       29.609       31.675       26.054      876.696     1003.325      678.792        0.187        0.128       18.570       17.242        0.862      347.688       26.840      858.896
07/16/2013  10:02:00       33.396      -28.127       53.871       83.659      117.481       69.107     6998.875    13801.791     4775.747        1.519        1.279       43.663       74.623        2.921      347.688       26.838      858.884
07/16/2013  10:03:00       84.920     -109.871        7.436       97.748      105.289       73.980     9554.657    11085.860     5473.112        2.272        1.306      138.863       73.482        0.280      347.371       26.291      858.879
07/16/2013  10:04:00       81.268      -57.625       14.655       78.801       97.380       78.902     6209.566     9482.940     6225.469        1.602        1.096       99.625       77.206        0.601      347.581       26.654      858.877
07/16/2013  10:05:00       79.008      -95.773        2.515       69.876       77.363       60.722     4882.642     5985.014     3687.173        1.499        0.728      124.156       61.624        0.246      347.414       26.366      858.895
07/16/2013  10:06:00       51.027      -45.886       22.969       52.900       57.884       48.891     2798.439     3350.583     2390.360        0.689        0.427       68.625       41.869        0.372      347.674       26.815      858.909
07/16/2013  10:07:00       38.519       36.057       51.840       53.463       51.372       36.516     2858.270     2639.050     1333.401        0.615        0.342       52.762       41.816        0.628      347.431       26.394      858.904
07/16/2013  10:08:00        9.577     -112.810       -2.975       20.793       66.606       32.222      432.366     4436.401     1038.286        0.937        0.295      113.216       37.367        0.109      347.195       25.989      858.901
07/16/2013  10:09:00      -43.599      -52.168       -4.426       53.764       40.176       37.677     2890.580     1614.091     1419.530        0.528        0.296       67.988       29.478        0.188      347.127       25.872      858.910
07/16/2013  10:10:00       31.597       24.917       42.463       45.056       29.348       32.678     2030.083      861.322     1067.840        0.369        0.198       40.239       27.160        0.456      347.796       27.029      858.908
07/16/2013  10:11:00       70.754       57.034       13.200       28.277       26.372       26.567      799.610      695.483      705.812        0.532        0.110       90.879        8.817        0.009      347.249       26.082      858.911
07/16/2013  10:12:00       67.322       80.886       48.805       35.836       35.107       38.008     1284.246     1232.534     1444.584        0.871        0.198      105.237       22.897        0.047      347.177       25.957      858.917
07/16/2013  10:13:00       75.954       73.028       -4.295       36.298       25.964       31.209     1317.520      674.141      974.012        0.704        0.148      105.367       26.497        0.063      347.151       25.911      858.931
07/16/2013  10:14:00       86.922       50.685       12.964       48.367       50.196       28.976     2339.404     2519.680      839.597        0.799        0.285      100.620       15.734        0.024      347.078       25.787      858.922
07/16/2013  10:15:00       53.900       32.756        4.026       22.631       24.354       24.054      512.151      593.097      578.615        0.284        0.084       63.073       15.592        0.061      347.059       25.753      858.915
07/16/2013  10:16:00       30.428       60.289      -14.688       40.305       22.522       34.165     1624.526      507.239     1167.215        0.404        0.165       67.532       13.855        0.042      347.166       25.938      858.908
07/16/2013  10:17:00       21.677       27.159       42.278       36.112       43.152       24.606     1304.105     1862.138      605.480        0.338        0.189       34.749       17.454        0.252      347.979       27.341      858.901
07/16/2013  10:18:00        6.511      -14.979       35.208       35.526       45.598       33.547     1262.106     2079.198     1125.406        0.299        0.223       16.333       23.232        2.023      348.205       27.731      858.898
07/16/2013  10:19:00       67.441      -62.831       31.605       48.957       46.315       44.403     2396.762     2145.098     1971.600        0.800        0.326       92.174       29.168        0.100      347.329       26.220      858.914
07/16/2013  10:20:00       89.894       38.661       25.064       82.397       60.269       55.175     6789.321     3632.312     3044.228        1.183        0.673       97.855       42.441        0.188      347.169       25.943      858.928
07/16/2013  10:21:00       75.012      102.397       27.322       94.277       40.339       48.472     8888.218     1627.248     2349.521        1.486        0.643      126.933       56.336        0.197      347.015       25.677      858.930
07/16/2013  10:22:00       70.661       69.701       22.181       74.573       43.557       38.156     5561.173     1897.255     1455.893        0.963        0.446       99.253       25.891        0.068      347.619       26.721      858.928
07/16/2013  10:23:00       92.095       67.683       16.169       59.550       39.751       39.058     3546.181     1580.133     1525.534        0.999        0.333      114.291       12.017        0.011      347.727       26.904      858.921
07/16/2013  10:24:00       15.805       27.623       30.211       71.058       48.959       23.828     5049.287     2396.982      567.778        0.497        0.401       31.825       17.507        0.303      347.951       27.294      858.906
07/16/2013  10:25:00       66.715       55.014       47.563       66.186       39.404       32.179     4380.643     1552.673     1035.499        0.835        0.348       86.472       11.887        0.019      347.591       26.671      858.919
07/16/2013  10:26:00       86.030       61.094       36.987       28.770       21.251       26.035      827.704      451.603      677.824        0.723        0.098      105.516       12.390        0.014      347.154       25.918      858.921
07/16/2013  10:27:00       69.128        9.473       34.653       53.372       83.538       42.370     2848.602     6978.538     1795.253        0.884        0.581       69.774       42.231        0.366      347.593       26.675      858.910
07/16/2013  10:28:00      100.070       16.043       22.997       70.856       70.208       49.737     5020.635     4929.104     2473.806        1.161        0.621      101.348       48.550        0.229      347.384       26.315      858.918
07/16/2013  10:29:00      147.922      114.824       56.016       55.484       47.451       49.309     3078.486     2251.594     2431.365        2.298        0.388      187.258       35.411        0.036      347.150       25.908      858.906
07/16/2013  10:30:00       73.154       79.525       59.444       51.194       55.238       50.180     2620.859     3051.260     2517.985        1.170        0.410      108.055       19.585        0.033      347.446       26.420      858.904
07/16/2013  10:31:00      -12.636       68.739       83.866       34.512       50.513       41.757     1191.087     2551.552     1743.655        0.870        0.274       69.891       31.882        0.208      347.869       27.152      858.909
07/16/2013  10:32:00      106.256       78.822       26.561       58.657       36.891       49.593     3440.600     1360.927     2459.419        1.273        0.363      132.300       22.487        0.029      347.757       26.957      858.896
07/16/2013  10:33:00       99.523       67.306       35.952       59.961       40.527       46.545     3595.346     1642.445     2166.405        1.156        0.370      120.146       36.021        0.090      347.743       26.933      858.891
07/16/2013  10:34:00       10.151       26.326       34.270       46.179       36.876       36.930     2132.509     1359.809     1363.803        0.341        0.243       28.215       20.972        0.552      348.241       27.795      858.895
07/16/2013  10:35:00       29.869        2.715        9.813       87.167       66.823       49.669     7598.037     4465.297     2467.022        0.776        0.727       29.992       22.663        0.571      347.944       27.282      858.885
07/16/2013  10:36:00       21.972       14.037       43.524       34.752       46.409       36.992     1207.676     2153.841     1368.419        0.365        0.236       26.073       21.676        0.691      348.147       27.632      858.910
07/16/2013  10:37:00       31.508       13.201       17.645       36.060       39.395       33.946     1300.334     1551.963     1152.302        0.274        0.200       34.161       28.890        0.715      347.543       26.588      858.919
07/16/2013  10:38:00       31.460      -27.513       14.034       35.345       34.476       28.874     1249.283     1188.573      833.686        0.261        0.164       41.793       17.308        0.172      347.876       27.164      858.915
07/16/2013  10:39:00       45.254        8.495        9.854       43.987       28.112       30.271     1934.845      790.292      916.362        0.293        0.182       46.045       24.160        0.275      347.775       26.989      858.921
07/16/2013  10:40:00      100.181      -20.409       28.096       53.523       53.561       41.022     2864.706     2868.779     1682.811        0.933        0.371      102.238       30.827        0.091      347.550       26.599      858.916
07/16/2013  10:41:00       12.874       29.179       42.401       57.526       65.717       42.747     3309.200     4318.706     1827.295        0.613        0.473       31.893       32.317        1.027      347.605       26.696      858.907
07/16/2013  10:42:00       48.739      -85.275        5.514       53.415       77.781       50.250     2853.206     6049.895     2525.024        1.055        0.571       98.221       54.044        0.303      347.796       27.025      858.934
07/16/2013  10:43:00       48.062        4.163       40.773       56.026       41.727       44.571     3138.967     1741.166     1986.550        0.543        0.343       48.241       42.449        0.774      347.878       27.167      858.929
07/16/2013  10:44:00        0.670      -24.779      -12.965       53.841       34.866       24.059     2898.835     1215.612      578.836        0.274        0.235       24.788       22.932        0.856      347.444       26.416      858.936
07/16/2013  10:45:00     -184.364       33.762      -23.248       32.709       35.363       25.816     1069.889     1250.575      666.454        1.933        0.149      187.430       10.901        0.003      347.178       25.960      858.933
07/16/2013  10:46:00     -128.543       61.750       -6.331       41.258       31.041       28.476     1702.225      963.570      810.885        1.193        0.174      142.605       20.642        0.021      347.486       26.492      858.918
07/16/2013  10:47:00      -69.979      -46.799        3.786       59.087       57.342       32.801     3491.296     3288.081     1075.874        0.748        0.393       84.186       36.038        0.183      347.688       26.840      858.911
07/16/2013  10:48:00      -33.200      -90.566       -0.515       52.289       40.478       29.594     2734.147     1638.484      875.789        0.728        0.262       96.460       23.963        0.062      347.392       26.328      858.919
07/16/2013  10:49:00      -69.036      -20.019       -9.278       46.377       24.228       24.740     2150.830      587.013      612.064        0.430        0.167       71.880       29.066        0.164      347.494       26.503      858.909
07/16/2013  10:50:00      -44.371       -4.874        6.807       39.265       24.436       27.039     1541.776      597.127      731.098        0.245        0.144       44.638       21.315        0.228      348.149       27.636      858.908
07/16/2013  10:51:00       58.222       45.644       39.091       67.843       43.846       31.142     4602.616     1922.485      969.820        0.725        0.375       73.981       28.464        0.148      348.336       27.960      858.899
07/16/2013  10:52:00      132.264       99.203       33.712       44.793       46.630       47.210     2006.447     2174.373     2228.817        1.744        0.320      165.333       18.723        0.013      347.566       26.627      858.891
07/16/2013  10:53:00      122.682       84.384       11.622       38.115       38.243       31.059     1452.723     1462.542      964.658        1.309        0.194      148.901       13.728        0.008      347.538       26.579      858.880
07/16/2013  10:54:00      148.838      112.249       69.499       38.358       27.348       37.619     1471.308      747.908     1415.164        2.161        0.182      186.420       20.386        0.012      347.577       26.647      858.850
07/16/2013  10:55:00      106.541       66.823       25.387       47.085       36.281       39.924     2216.955     1316.345     1593.941        1.079        0.256      125.763       30.201        0.058      347.580       26.653      858.854
07/16/2013  10:56:00       66.033       54.402       33.723       70.956       57.032       47.808     5034.727     3252.688     2285.632        0.951        0.529       85.556       41.082        0.231      348.082       27.518      858.828
07/16/2013  10:57:00       19.417       57.501       90.288       55.774       66.838       51.790     3110.748     4467.370     2682.246        1.105        0.513       60.691       41.982        0.479      347.970       27.326      858.807
07/16/2013  10:58:00      -19.842       36.776       78.091       34.985       56.492       36.552     1223.933     3191.306     1336.029        0.680        0.288       41.788       30.986        0.550      348.450       28.156      858.802
07/16/2013  10:59:00       29.494       48.943       27.840       30.780       26.996       38.219      947.427      728.764     1460.678        0.359        0.157       57.143       17.358        0.092      348.058       27.477      858.796
07/16/2013  11:00:00      -65.081      -20.123       -8.993       28.219       29.527       18.133      796.286      871.842      328.816        0.336        0.100       68.121        9.524        0.020      348.200       27.722      858.809
07/16/2013  11:01:00      -72.745     -107.717       -2.132       36.963       59.067       29.871     1366.256     3488.885      892.305        1.132        0.287      129.980       21.773        0.028      348.067       27.491      858.804
07/16/2013  11:02:00      -25.841      -39.145        9.711       45.149       48.464       26.378     2038.447     2348.785      695.809        0.369        0.254       46.905       23.969        0.261      348.428       28.117      858.807
07/16/2013  11:03:00      -81.443       -7.756      -11.490       28.231       44.507       30.756      796.964     1980.909      945.907        0.527        0.186       81.812       26.357        0.104      348.022       27.415      858.807
07/16/2013  11:04:00       21.237      -33.333       28.416       37.811       52.551       34.402     1429.641     2761.595     1183.515        0.387        0.269       39.523       26.107        0.436      348.554       28.333      858.783
07/16/2013  11:05:00       56.347       62.249       46.170       45.452       47.789       41.424     2065.891     2283.800     1715.936        0.762        0.303       83.964       21.103        0.063      348.400       28.069      858.776
07/16/2013  11:06:00       54.815       53.392        8.886       70.437       39.890       28.279     4961.402     1591.238      799.706        0.664        0.368       76.521       18.970        0.061      348.418       28.101      858.765
07/16/2013  11:07:00      -63.581      113.161       -3.016      110.534       85.060       44.929    12217.843     7235.257     2018.622        1.916        1.074      129.799       41.007        0.100      348.612       28.434      858.751
07/16/2013  11:08:00      -89.306       73.948       -9.746       63.062       74.736       39.445     3976.866     5585.504     1555.939        1.233        0.556      115.947       30.574        0.070      348.386       28.043      858.754
07/16/2013  11:09:00      -74.002       53.050        4.122       67.609       48.687       36.969     4571.007     2370.458     1366.730        0.831        0.415       91.053       44.412        0.238      348.409       28.084      858.758
07/16/2013  11:10:00     -149.908      -25.300       -3.608      109.567       57.739       30.406    12004.998     3333.788      924.512        1.969        0.813      152.028       44.532        0.086      348.375       28.024      858.764
07/16/2013  11:11:00      -86.945      -13.076      -16.329       85.552       54.739       35.098     7319.091     2996.337     1231.903        0.977        0.577       87.923       28.068        0.102      347.817       27.059      858.786
07/16/2013  11:12:00       13.098        2.139       44.110       50.783       70.596       48.586     2578.882     4983.841     2360.627        0.602        0.496       13.272       44.547       11.267      348.605       28.424      858.786
07/16/2013  11:13:00      -94.388       18.288       40.672       87.792       54.217       55.863     7707.385     2939.536     3120.637        1.233        0.688       96.144       56.758        0.349      348.398       28.065      858.750
07/16/2013  11:14:00      -48.377      -50.870       19.355       75.669       67.652       41.782     5725.775     4576.754     1745.776        0.867        0.602       70.200       47.062        0.449      348.616       28.442      858.799
07/16/2013  11:15:00     -124.319       -3.433        0.120       86.418       47.941       35.233     7468.029     2298.339     1241.340        1.324        0.550      124.367       44.279        0.127      348.244       27.798      858.792
07/16/2013  11:16:00     -186.965      -26.047       -1.830      111.694      106.256       43.732    12475.465    11290.418     1912.503        3.065        1.284      188.771       53.088        0.079      348.285       27.868      858.790
07/16/2013  11:17:00      -33.106       -7.787       21.748       42.793       39.490       26.488     1831.255     1559.428      701.639        0.286        0.205       34.009       26.056        0.587      349.092       29.265      858.787
07/16/2013  11:18:00      -84.022      -69.165       -6.053       61.703       63.096       34.566     3807.283     3981.127     1194.829        1.043        0.449      108.828       28.760        0.070      348.426       28.114      858.787
07/16/2013  11:19:00     -134.886     -108.102        6.118       98.215      104.701       45.043     9646.154    10962.361     2028.874        2.627        1.132      172.859       59.832        0.120      348.487       28.217      858.782
07/16/2013  11:20:00     -155.233     -131.973       -7.709       90.799       59.402       30.875     8244.525     3528.609      953.250        2.715        0.636      203.750       35.035        0.030      347.954       27.297      858.773
07/16/2013  11:21:00      -48.243        5.030        1.553       27.796       45.152       22.250      772.644     2038.688      495.083        0.283        0.165       48.504       12.593        0.067      348.331       27.950      858.782
07/16/2013  11:22:00      -23.272       68.458        2.299       28.276       28.667       28.143      799.507      821.807      792.002        0.382        0.121       72.306       14.469        0.040      348.644       28.491      858.764
07/16/2013  11:23:00      -93.483       -1.563      -18.047       42.178       55.300       21.882     1779.016     3058.063      478.807        0.719        0.266       93.496       22.166        0.056      348.052       27.468      858.759
07/16/2013  11:24:00     -127.027      -27.076      -12.150       28.660       41.160       24.061      821.380     1694.164      578.931        1.005        0.155      129.881       10.220        0.006      348.127       27.596      858.754
07/16/2013  11:25:00      -96.612      112.820       -1.509       90.951       65.251       53.157     8272.084     4257.689     2825.699        1.871        0.768      148.534       52.981        0.127      348.525       28.284      858.744
07/16/2013  11:26:00       45.440       90.192       -0.484       42.862       75.532       46.884     1837.149     5705.095     2198.109        0.997        0.487      100.992       31.340        0.096      348.679       28.552      858.722
07/16/2013  11:27:00       97.712       67.836       13.989       54.572       40.722       37.429     2978.098     1658.293     1400.948        1.019        0.302      118.951       25.919        0.047      348.622       28.453      858.691
07/16/2013  11:28:00       60.308       34.707       25.521       81.304       45.757       41.982     6610.367     2093.659     1762.475        0.798        0.523       69.582       22.582        0.105      348.545       28.319      858.691
07/16/2013  11:29:00     -115.125      -65.144       13.755       91.496       74.946       42.658     8371.568     5616.864     1819.673        1.674        0.790      132.278       43.629        0.109      348.640       28.485      858.711
07/16/2013  11:30:00     -214.209       18.911       -6.030      129.088       82.918       45.243    16663.723     6875.353     2046.889        3.593        1.279      215.042       52.202        0.059      348.554       28.334      858.683
07/16/2013  11:31:00     -268.704      -61.819       -8.402      120.141       91.316       59.149    14433.740     8338.691     3498.546        5.118        1.314      275.724       72.044        0.068      348.411       28.083      858.690
07/16/2013  11:32:00      -80.981       16.457        6.311       63.812       46.426       41.931     4071.983     2155.415     1758.206        0.743        0.399       82.636       37.142        0.202      348.756       28.684      858.673
07/16/2013  11:33:00      -31.369       21.884       12.856       42.463       53.570       36.431     1803.128     2869.700     1327.187        0.381        0.300       38.248       27.974        0.535      349.015       29.133      858.661
07/16/2013  11:34:00     -187.631       -7.633        9.645      127.632      107.193       58.295    16289.812    11490.335     3398.343        3.326        1.559      187.786       62.384        0.110      348.829       28.810      858.662
07/16/2013  11:35:00     -245.456      -97.220        4.916      161.533      117.079       68.870    26092.956    13707.583     4743.104        5.713        2.227      264.008       70.123        0.071      348.544       28.314      858.651
07/16/2013  11:36:00     -154.737      -97.208        3.584      127.478      111.309       71.957    16250.541    12389.689     5177.844        3.361        1.691      182.737       72.397        0.157      348.686       28.562      858.671
07/16/2013  11:37:00     -153.842     -126.717       -0.392       81.512       79.802       49.076     6644.264     6368.411     2408.434        2.757        0.771      199.310       43.995        0.049      348.390       28.049      858.671
07/16/2013  11:38:00     -173.378      -10.797      -12.128      104.217       87.016       35.025    10861.107     7571.802     1226.758        2.499        0.983      173.714       32.501        0.035      348.586       28.389      858.659
07/16/2013  11:39:00     -224.364       14.252       -8.880      115.431       76.551       49.463    13324.384     5860.023     2446.589        3.612        1.082      224.816       53.581        0.057      348.649       28.496      858.660
07/16/2013  11:40:00      -61.838      -75.924       18.882       87.843       70.081       44.673     7716.397     4911.403     1995.681        1.228        0.731       97.920       53.237        0.296      348.926       28.978      858.666
07/16/2013  11:41:00     -182.440      -47.537        8.842      116.218       80.962       45.218    13506.682     6554.823     2044.666        2.886        1.105      188.531       47.853        0.064      348.610       28.430      858.659
07/16/2013  11:42:00     -166.817      -88.873      -23.620      128.826      103.567       62.219    16596.183    10726.101     3871.248        3.373        1.560      189.014       48.814        0.067      348.547       28.320      858.657
07/16/2013  11:43:00     -118.598     -103.655       11.315      100.851       98.382       57.125    10170.972     9679.107     3263.222        2.402        1.156      157.512       53.279        0.114      348.827       28.805      858.659
07/16/2013  11:44:00     -292.226     -111.603       -4.863      146.306      128.946       62.924    21405.497    16627.170     3959.468        6.993        2.100      312.812       73.639        0.055      348.877       28.890      858.649
07/16/2013  11:45:00     -109.341     -173.031       11.631      134.788      127.393       71.216    18167.872    16229.018     5071.672        4.074        1.973      204.683       72.649        0.126      349.006       29.116      858.668
07/16/2013  11:46:00     -226.934     -175.233        1.101      151.719      111.302       67.771    23018.793    12388.167     4592.936        6.110        2.000      286.715       81.586        0.081      348.602       28.415      858.662
07/16/2013  11:47:00     -199.466     -107.111       -1.826      138.007       87.566       48.355    19045.805     7667.737     2338.233        4.015        1.453      226.406       57.136        0.064      348.437       28.129      858.640
07/16/2013  11:48:00     -229.068     -139.196       -5.309      157.467       96.977       59.911    24795.827     9404.483     3589.369        5.483        1.889      268.044       73.591        0.075      348.651       28.500      858.625
07/16/2013  11:49:00     -239.355      -77.132       11.457      112.152       88.541       58.665    12578.037     7839.547     3441.556        4.361        1.193      251.475       53.156        0.045      348.528       28.288      858.606
07/16/2013  11:50:00     -264.948     -167.157       -7.573      131.478      111.943       57.920    17286.480    12531.223     3354.750        6.568        1.659      313.272       64.530        0.042      348.494       28.227      858.599
07/16/2013  11:51:00     -239.660     -142.907      -14.891      103.156       86.692       45.183    10641.179     7515.555     2041.544        4.914        1.010      279.033       52.341        0.035      348.461       28.171      858.587
07/16/2013  11:52:00     -285.635     -182.997       -9.471       83.243      123.558       44.398     6929.384    15266.484     1971.159        6.966        1.208      339.227       56.321        0.028      348.295       27.883      858.587
07/16/2013  11:53:00     -128.490     -163.313        5.583       87.626       63.449       49.668     7678.306     4025.821     2466.890        2.869        0.709      207.800       42.177        0.041      348.611       28.429      858.617
07/16/2013  11:54:00      -65.495      -55.821       11.076       93.983       61.419       47.130     8832.760     3772.326     2221.228        1.117        0.741       86.055       27.973        0.106      348.888       28.912      858.626
07/16/2013  11:55:00        2.379      -41.391       17.881       51.729       51.364       44.622     2675.868     2638.287     1991.083        0.467        0.365       41.459       33.461        0.651      349.060       29.212      858.641
07/16/2013  11:56:00       -2.786       -1.984       41.134       30.233       34.143       27.089      914.009     1165.739      733.838        0.226        0.141        3.420        9.273        7.350      349.603       30.153      858.625
07/16/2013  11:57:00      -23.059      -12.082       -4.260       32.074       25.060       27.771     1028.717      628.001      771.222        0.156        0.121       26.032       16.190        0.387      349.101       29.282      858.636
07/16/2013  11:58:00       16.556      -24.912       -2.156       46.645       74.654       45.541     2175.739     5573.282     2073.956        0.536        0.491       29.912       12.745        0.182      349.112       29.300      858.624
07/16/2013  11:59:00      -49.158     -127.310        0.388       78.087       78.592       58.338     6097.540     6176.713     3403.303        1.715        0.784      136.471       44.627        0.107      349.080       29.244      858.616
07/16/2013  12:00:00       11.078      -31.750       34.331       50.955       87.978       37.621     2596.385     7740.076     1415.324        0.703        0.588       33.627       45.039        1.794      349.430       29.854      858.635
07/16/2013  12:01:00       32.586      -54.038       22.916       65.844       76.843       41.006     4335.442     5904.893     1681.461        0.821        0.596       63.103       47.538        0.568      349.362       29.734      858.641
07/16/2013  12:02:00      -52.479      -52.223        1.155       47.790       41.416       28.831     2283.839     1715.317      831.206        0.516        0.242       74.036       19.857        0.072      349.152       29.370      858.672
07/16/2013  12:03:00       -8.651       -7.946       18.770       54.117       32.557       31.811     2928.634     1059.929     1011.918        0.274        0.250       11.746       22.257        3.590      349.720       30.355      858.665
07/16/2013  12:04:00       20.493      -17.955       42.239       31.392       51.447       26.819      985.459     2646.840      719.234        0.344        0.218       27.246       19.590        0.517      349.647       30.230      858.660
07/16/2013  12:05:00       64.618      -23.700        9.780       38.090       48.766       38.440     1450.843     2378.094     1477.651        0.507        0.265       68.827       30.786        0.200      348.759       28.692      858.656
07/16/2013  12:06:00      -40.648      -35.451       14.974       80.375       78.478       36.784     6460.068     6158.868     1353.048        0.855        0.699       53.935       36.354        0.454      349.122       29.319      858.652
07/16/2013  12:07:00       -0.546     -171.828       28.740       55.749       88.967       35.027     3107.934     7915.145     1226.857        2.130        0.612      171.829       19.049        0.012      348.634       28.472      858.635
07/16/2013  12:08:00     -198.897     -151.252        2.337      122.531       90.862       55.945    15013.827     8255.857     3129.888        4.442        1.320      249.874       59.026        0.056      348.939       28.997      858.600
07/16/2013  12:09:00     -261.744       17.174      -16.436      130.341      123.183       52.254    16988.841    15173.950     2730.435        5.198        1.745      262.306       54.636        0.043      349.156       29.373      858.612
07/16/2013  12:10:00     -145.125      -33.922       -3.462      107.376      100.734       55.627    11529.621    10147.331     3094.416        2.349        1.239      149.037       37.235        0.062      349.158       29.379      858.643
07/16/2013  12:11:00     -197.024       -6.157      -26.906       89.078      115.782       51.251     7934.915    13405.417     2626.686        3.177        1.198      197.120       46.629        0.056      349.141       29.348      858.610
07/16/2013  12:12:00      -63.105       30.035       -2.719       70.659       60.503       40.653     4992.738     3660.585     1652.668        0.760        0.515       69.889       42.077        0.362      349.418       29.834      858.584
07/16/2013  12:13:00     -223.582        6.893      -12.297      148.848       90.901       58.518    22155.584     8262.971     3424.321        4.201        1.692      223.688       67.009        0.090      349.097       29.273      858.598
07/16/2013  12:14:00     -304.239      -60.205      -26.078      175.791      131.327       66.380    30902.562    17246.714     4406.274        7.470        2.628      310.139       83.889        0.073      349.094       29.266      858.586
07/16/2013  12:15:00     -496.303     -165.423      -14.206      177.605      143.326       82.252    31543.680    20542.274     6765.459       16.636        2.943      523.146       82.919        0.025      348.820       28.793      858.552
07/16/2013  12:16:00     -381.677      -88.036      -10.126      189.265      134.993       69.592    35821.282    18223.244     4843.048       10.620        2.944      391.698       61.079        0.024      349.061       29.208      858.540
07/16/2013  12:17:00     -460.636      -87.313       -9.577      206.053      160.516       84.505    42457.994    25765.246     7141.119       14.762        3.768      468.838       88.401        0.036      349.082       29.246      858.557
07/16/2013  12:18:00     -314.780     -275.074       -0.213      186.978      156.956       80.001    34960.649    24635.306     6400.109       12.036        3.300      418.034       98.625        0.056      349.015       29.129      858.576
07/16/2013  12:19:00     -259.073     -191.586       19.571      257.638      179.739      100.425    66377.445    32305.933    10085.267       10.647        5.438      322.217      139.473        0.187      349.056       29.201      858.601
07/16/2013  12:20:00     -340.313     -252.446        0.946      166.337      139.985       75.579    27668.092    19595.709     5712.150       11.625        2.649      423.724       77.197        0.033      348.743       28.658      858.654
07/16/2013  12:21:00     -342.096     -250.021       -1.384      227.892      190.293       97.384    51934.688    36211.275     9483.557       13.857        4.881      423.722      128.912        0.093      348.795       28.748      858.658
07/16/2013  12:22:00     -324.692     -161.934      -15.120      198.372      184.308       89.722    39351.594    33969.569     8049.950       10.661        4.069      362.832      109.800        0.092      348.805       28.767      858.669
07/16/2013  12:23:00     -245.528     -107.342       -0.850      124.523      127.583       49.054    15506.095    16277.376     2406.316        5.299        1.709      267.967       52.164        0.038      348.965       29.042      858.675
07/16/2013  12:24:00      -16.598      -69.752       12.205      116.998       88.863       62.893    13688.641     7896.613     3955.581        1.541        1.277       71.699       46.996        0.430      349.255       29.548      858.653
07/16/2013  12:25:00     -425.300     -142.893      -18.309      167.125      169.489       79.447    27930.736    28726.422     6311.786       13.229        3.148      448.663       88.633        0.039      349.031       29.157      858.645
07/16/2013  12:26:00     -382.431     -146.479      -38.057      228.750      124.388       85.867    52326.661    15472.263     7373.156       12.215        3.759      409.523      101.482        0.061      349.021       29.141      858.687
07/16/2013  12:27:00     -287.002     -309.647       14.612      183.508      145.341      104.135    33675.262    21124.015    10844.149       12.204        3.282      422.198      113.912        0.073      348.974       29.058      858.668
07/16/2013  12:28:00     -375.604     -123.270       -2.362      178.791      137.153      101.622    31966.359    18810.891    10327.012       10.868        3.055      395.315      102.229        0.067      348.830       28.808      858.704
07/16/2013  12:29:00     -287.676     -135.934       -7.047      151.877      132.826       67.076    23066.739    17642.829     4499.165        7.324        2.260      318.175       59.601        0.035      349.167       29.393      858.716
07/16/2013  12:30:00     -262.375      -39.837       -1.031      177.550      137.244       69.886    31524.173    18835.939     4884.083        6.283        2.762      265.382       92.112        0.120      349.021       29.140      858.721
07/16/2013  12:31:00     -370.863     -111.587       -6.162      195.836      128.229       72.952    38351.811    16442.739     5321.975       10.506        3.006      387.287       79.297        0.042      349.016       29.131      858.735
07/16/2013  12:32:00     -162.717     -105.761       20.990      147.575      105.984       80.843    21778.336    11232.519     6535.640        3.882        1.977      194.068       85.634        0.195      349.287       29.603      858.739
07/16/2013  12:33:00     -203.145     -124.453        3.132      174.241      138.906       83.638    30360.019    19295.007     6995.247        5.670        2.833      238.237      103.239        0.188      349.305       29.635      858.749
07/16/2013  12:34:00     -310.686       46.207      -17.268      166.528       83.261       53.465    27731.415     6932.450     2858.469        6.823        1.876      314.104       62.457        0.040      348.990       29.087      858.762
07/16/2013  12:35:00     -393.793       51.236      -21.309      111.091      123.626       65.608    12341.108    15283.475     4304.367        9.503        1.596      397.112       58.938        0.022      349.031       29.157      858.722
07/16/2013  12:36:00     -440.558      -75.768      -26.387      172.224      137.289       72.109    29661.136    18848.226     5199.741       12.711        2.685      447.026       81.432        0.033      349.086       29.252      858.650
07/16/2013  12:37:00     -421.425      -96.485        6.970      256.133      196.256      101.366    65603.969    38516.490    10274.993       15.065        5.720      432.329      133.919        0.096      349.346       29.703      858.657
07/16/2013  12:38:00     -517.599      -74.030      -23.115      214.122      182.368       89.745    45848.329    33257.968     8054.112       18.052        4.358      522.867      101.345        0.038      348.811       28.776      858.652
07/16/2013  12:39:00     -454.966       14.522      -22.213      180.945      154.164       83.303    32740.915    23766.532     6939.376       13.556        3.172      455.198       74.519        0.027      349.128       29.325      858.666
07/16/2013  12:40:00     -449.128     -150.418      -19.866      211.350      135.168       79.382    44668.638    18270.354     6301.567       14.697        3.462      473.647       69.980        0.022      348.938       28.996      858.714
07/16/2013  12:41:00     -389.087     -107.979      -18.800      198.243      182.297       88.487    39300.231    33232.113     7829.890       12.187        4.018      403.792       94.364        0.055      349.109       29.291      858.752
07/16/2013  12:42:00     -444.760      -10.616      -42.505      180.187      171.644       81.658    32467.288    29461.612     6668.080       13.415        3.430      444.887       83.250        0.035      348.932       28.986      858.778
07/16/2013  12:43:00     -349.183      -76.242       -2.474      233.873      147.472       81.923    54696.772    21748.012     6711.298       10.544        4.158      357.410      100.011        0.078      348.986       29.078      858.779
07/16/2013  12:44:00     -346.207      -62.448      -29.938      226.061      168.640       81.335    51103.726    28439.501     6615.332       10.539        4.308      351.794       91.737        0.068      348.979       29.066      858.769
07/16/2013  12:45:00     -508.479       44.556      -58.438      238.721      159.569       70.733    56987.772    25462.257     5003.194       17.568        4.373      510.428       81.786        0.026      348.971       29.052      858.759
07/16/2013  12:46:00     -352.446      -21.670      -27.920      181.578      133.512       76.453    32970.615    17825.416     5844.985        9.104        2.832      353.112       79.963        0.051      349.225       29.493      858.744
07/16/2013  12:47:00     -452.710        5.573      -32.411      138.934      104.023       70.919    19302.550    10820.800     5029.513       12.058        1.758      452.745       65.394        0.021      349.123       29.317      858.757
07/16/2013  12:48:00      -92.746      -23.157        5.954      116.163       72.134       51.968    13493.841     5203.284     2700.658        1.528        1.070       95.593       56.384        0.348      349.733       30.377      858.751
07/16/2013  12:49:00      -95.412       -5.348        4.075       82.158       60.996       52.164     6749.941     3720.516     2721.033        1.117        0.660       95.562       41.699        0.190      349.491       29.957      858.736
07/16/2013  12:50:00     -146.167       33.083        2.736      172.236      113.398       58.333    29665.372    12859.090     3402.709        3.419        2.296      149.864       70.105        0.219      349.661       30.252      858.724
07/16/2013  12:51:00     -506.858     -206.997      -38.164      221.485      172.570       95.031    49055.610    29780.278     9030.972       19.452        4.393      547.497      100.209        0.034      349.236       29.511      858.677
07/16/2013  12:52:00     -276.651      -69.348      -37.917      192.081      124.070       72.839    36895.101    15393.375     5305.587        7.018        2.880      285.210       83.131        0.085      349.358       29.725      858.647
07/16/2013  12:53:00     -595.359     -110.304      -35.339      196.442      179.569       83.307    38589.394    32245.026     6940.069       22.281        3.889      605.490       88.533        0.021      349.137       29.340      858.577
07/16/2013  12:54:00     -414.282     -218.203       -2.785      207.436      186.418       86.548    43029.739    34751.765     7490.540       15.224        4.264      468.233       91.170        0.038      349.099       29.276      858.637
07/16/2013  12:55:00     -255.345     -119.951        5.172      153.602      147.804       66.991    23593.536    21846.026     4487.750        6.476        2.496      282.116       73.108        0.067      349.388       29.776      858.644
07/16/2013  12:56:00     -480.609     -381.516      -27.440      225.499      179.641      104.011    50849.697    32270.992    10818.202       23.560        4.697      613.628      120.016        0.038      348.906       28.940      858.626
07/16/2013  12:57:00     -347.832     -212.954      -21.233      174.163      172.441       81.965    30332.687    29736.047     6718.258       11.677        3.339      407.843       89.874        0.049      349.213       29.473      858.650
07/16/2013  12:58:00     -163.419     -124.259       16.880      150.815      140.463       82.515    22745.143    19729.975     6808.688        4.585        2.464      205.295       85.940        0.175      349.630       30.197      858.708
07/16/2013  12:59:00     -273.946     -151.996        2.830      173.428      144.715       80.280    30077.386    20942.293     6444.839        7.780        2.873      313.287       89.185        0.081      349.557       30.068      858.737
07/16/2013  13:00:00     -387.745     -222.558      -31.276      125.403      156.275       73.372    15725.948    24421.855     5383.400       12.319        2.277      447.078       62.722        0.020      349.024       29.145      858.776
07/16/2013  13:01:00     -390.291      -50.768      -24.338      183.065      120.379       75.090    33512.844    14491.161     5638.491       10.456        2.682      393.579       80.007        0.041      348.869       28.876      858.777
07/16/2013  13:02:00     -455.355      -44.563      -30.131      152.872      106.590       77.520    23369.962    11361.421     6009.275       12.548        2.037      457.531       82.891        0.033      348.874       28.884      858.738
07/16/2013  13:03:00     -348.396      116.021      -32.714      237.780      237.907       92.100    56539.455    56599.805     8482.499       12.874        6.081      367.207      105.249        0.082      349.128       29.325      858.667
07/16/2013  13:04:00     -425.465      -92.619      -17.088      269.275      207.466       75.758    72508.856    43042.315     5739.320       15.557        6.065      435.429       96.101        0.049      349.288       29.603      858.590
07/16/2013  13:05:00     -448.367     -196.477      -15.943      193.289      235.078      101.210    37360.529    55261.669    10243.556       17.136        5.143      489.526      111.561        0.052      348.987       29.079      858.622
07/16/2013  13:06:00     -385.018     -148.200       -5.407      248.017      136.823       86.000    61512.226    18720.399     7395.959       12.891        4.381      412.556      101.525        0.061      349.100       29.279      858.604
07/16/2013  13:07:00     -412.258      -20.331      -17.977      240.464      194.779      103.023    57823.055    37938.951    10613.682       13.851        5.319      412.759      108.408        0.069      349.478       29.933      858.569
07/16/2013  13:08:00     -336.126     -202.266       12.772      251.250      212.750       96.866    63126.401    45262.381     9382.939       13.589        5.889      392.291      134.706        0.118      349.291       29.609      858.573
07/16/2013  13:09:00     -329.401     -247.541        7.524      276.888      223.909      127.972    76667.215    50135.352    16376.902       15.648        7.159      412.045      153.958        0.140      349.299       29.623      858.599
07/16/2013  13:10:00     -461.490     -331.516      -27.034      253.022      210.216      115.704    64020.385    44190.946    13387.375       22.258        6.080      568.222      118.594        0.044      348.910       28.948      858.712
07/16/2013  13:11:00     -479.641     -350.070        1.825      194.831      200.973      101.604    37959.154    40389.988    10323.298       22.062        4.434      593.805      111.280        0.035      348.726       28.630      858.731
07/16/2013  13:12:00     -157.905      -94.515        1.042      128.641       93.067       63.492    16548.510     8661.540     4031.189        3.155        1.462      184.030       70.912        0.148      348.853       28.851      858.747
07/16/2013  13:13:00     -194.115       25.119       -6.228      118.220       94.849       51.737    13976.039     8996.358     2676.725        3.199        1.282      195.734       43.255        0.049      349.018       29.135      858.729
07/16/2013  13:14:00     -383.641      -40.065      -25.602      178.721      157.997       67.403    31941.291    24962.990     4543.175       10.543        3.072      385.728       69.887        0.033      349.151       29.364      858.714
07/16/2013  13:15:00     -283.390     -148.273        6.272      203.071      155.533       97.130    41238.004    24190.542     9434.213        8.858        3.743      319.836      107.123        0.112      349.262       29.558      858.770
07/16/2013  13:16:00     -293.565     -108.653        3.191      190.053      173.603       80.608    36120.065    30138.013     6497.718        8.536        3.638      313.027       87.192        0.078      349.075       29.232      858.712
07/16/2013  13:17:00     -470.034     -201.677      -18.244      201.097      147.354       90.997    40439.904    21713.181     8280.378       16.617        3.522      511.473       97.134        0.036      349.174       29.404      858.689
07/16/2013  13:18:00     -439.515     -188.284      -24.164      262.873      178.180       98.717    69101.963    31748.098     9744.973       16.988        5.530      478.147      124.428        0.068      349.335       29.685      858.705
07/16/2013  13:19:00     -228.244     -169.125        1.820      204.637      111.473       67.622    41876.242    12426.183     4572.733        6.978        2.944      284.075       83.098        0.086      349.358       29.724      858.695
07/16/2013  13:20:00     -333.091     -267.597       11.783      257.998      155.281       93.572    66563.009    24112.307     8755.684       14.104        4.972      427.268      120.155        0.079      349.432       29.852      858.672
07/16/2013  13:21:00     -192.949     -290.774       12.314      203.920      174.179       88.319    41583.498    30338.441     7800.183       10.081        3.986      348.968       83.805        0.058      349.179       29.412      858.703
07/16/2013  13:22:00     -252.184     -163.984        7.965      164.961      138.834       79.914    27212.052    19274.842     6386.284        7.170        2.644      300.812       92.856        0.095      349.475       29.928      858.688
07/16/2013  13:23:00     -351.910     -193.004        6.716      250.933      268.682      102.627    62967.375    72189.755    10532.385       15.338        7.284      401.362       97.618        0.059      349.096       29.268      858.668
07/16/2013  13:24:00     -300.802     -318.922       12.381      270.261      241.302      109.901    73040.825    58226.894    12078.204       16.782        7.167      438.398      135.292        0.095      349.146       29.356      858.582
07/16/2013  13:25:00     -319.586     -219.220       16.125      242.173      151.695       94.191    58647.624    23011.294     8871.879       12.047        4.527      387.547      126.282        0.106      349.346       29.702      858.648
07/16/2013  13:26:00     -261.337     -169.063       20.485      163.220      149.853       61.306    26640.807    22455.978     3758.434        7.507        2.643      311.254       69.803        0.050      349.399       29.796      858.640
07/16/2013  13:27:00     -358.376     -193.985        3.862      278.273      202.832      108.177    77435.903    41141.005    11702.346       14.815        6.514      407.510      128.906        0.100      349.363       29.734      858.620
07/16/2013  13:28:00     -456.070      -46.526      -25.349      223.586      176.102       87.887    49990.807    31011.888     7724.109       14.975        4.436      458.437       91.269        0.040      349.321       29.660      858.614
07/16/2013  13:29:00     -489.547     -239.496       -5.906      286.837      224.669      114.393    82275.593    50476.065    13085.865       22.141        7.292      544.990      154.032        0.080      348.963       29.041      858.562
07/16/2013  13:30:00     -517.084     -172.042      -22.995      252.721      225.867      100.195    63867.872    51016.053    10039.012       21.119        6.246      544.954      122.997        0.051      349.121       29.312      858.592
07/16/2013  13:31:00     -374.798     -137.271       -1.030      258.750      185.191      114.135    66951.562    34295.799    13026.889       13.677        5.714      399.146      117.538        0.087      349.252       29.541      858.597
07/16/2013  13:32:00     -319.281      -41.174       12.835      203.384      205.091       86.818    41365.133    42062.114     7537.319        9.736        4.548      321.925       90.796        0.080      349.239       29.519      858.615
07/16/2013  13:33:00     -391.873     -130.029        1.924      192.775      187.362      102.376    37162.393    35104.620    10480.847       12.660        4.137      412.883      102.357        0.061      349.145       29.354      858.612
07/16/2013  13:34:00     -597.989     -276.865      -27.931      287.239      213.335      126.303    82506.126    45511.827    15952.526       28.947        7.199      658.973      135.256        0.042      349.015       29.130      858.621
07/16/2013  13:35:00      -83.703     -120.574       45.240      156.330      141.283       76.428    24438.937    19960.818     5841.185        3.691        2.512      146.780       88.491        0.363      349.483       29.940      858.675
07/16/2013  13:36:00     -279.976     -193.404      -11.621      157.633      111.119       64.199    24848.012    12347.407     4121.564        7.861        2.066      340.282       56.017        0.027      349.255       29.546      858.694
07/16/2013  13:37:00     -323.278     -124.687       -8.170      214.718      128.238       82.006    46103.793    16445.021     6725.009        9.468        3.464      346.490       98.676        0.081      349.194       29.440      858.710
07/16/2013  13:38:00     -267.947      -59.910       12.997      192.846      148.724       99.362    37189.611    22118.715     9872.848        7.235        3.459      274.563       87.085        0.101      349.469       29.917      858.678
07/16/2013  13:39:00     -405.698     -164.411        7.838      217.553      230.417      102.814    47329.419    53091.854    10570.809       15.132        5.550      437.747      118.686        0.074      349.078       29.238      858.670
07/16/2013  13:40:00     -314.928     -107.905       24.447      242.513      174.891       89.091    58812.662    30586.886     7937.219       10.436        4.867      332.901      109.817        0.109      349.334       29.683      858.673
07/16/2013  13:41:00     -562.502     -424.819       -7.343      262.513      229.760      110.119    68913.036    52789.576    12126.237       31.535        6.691      704.897      119.661        0.029      348.798       28.753      858.704
07/16/2013  13:42:00     -426.449     -285.416      -11.548      209.670      193.784       98.626    43961.564    37552.393     9727.120       17.733        4.562      513.148      105.503        0.042      348.964       29.042      858.690
07/16/2013  13:43:00     -410.105      -93.635      -22.344      147.346      150.218       80.293    21710.978    22565.398     6446.994       11.408        2.536      420.658       81.411        0.037      349.057       29.202      858.675
07/16/2013  13:44:00     -275.345     -132.777      -18.029      186.806      159.808       83.907    34896.559    25538.502     7040.311        8.061        3.374      305.687       95.278        0.097      348.923       28.971      858.674
07/16/2013  13:45:00     -393.865     -287.955        9.463      269.862      244.452      113.550    72825.430    59756.592    12893.642       19.178        7.274      487.902      132.390        0.074      348.991       29.089      858.666
07/16/2013  13:46:00     -369.266     -288.638       30.012      306.495      255.009      124.215    93938.990    65029.395    15429.369       19.745        8.720      468.689      146.433        0.098      348.954       29.023      858.649
07/16/2013  13:47:00     -192.950     -259.457       42.443      277.749      246.412      144.221    77144.612    60718.996    20799.592       13.247        7.933      323.339      158.825        0.241      349.111       29.296      858.657
07/16/2013  13:48:00     -433.955     -144.997       19.997      320.693      225.478      151.847   102843.893    50840.306    23057.483       19.321        8.837      457.538      173.318        0.143      349.224       29.492      858.600
07/16/2013  13:49:00     -636.299     -179.634      -37.704      273.147      215.016       96.230    74609.551    46231.826     9260.173       28.431        6.505      661.170      109.879        0.028      348.832       28.812      858.602
07/16/2013  13:50:00     -571.051     -129.065      -20.066      232.820      214.570      103.704    54205.126    46040.390    10754.511       22.706        5.550      585.454       99.729        0.029      348.857       28.856      858.633
07/16/2013  13:51:00     -416.429     -269.948      -13.038      230.996      233.812      105.362    53359.020    54668.140    11101.155       18.277        5.956      496.271      109.465        0.049      348.881       28.896      858.614
07/16/2013  13:52:00     -376.307     -176.350       -6.320      213.160      149.895       79.892    45436.979    22468.624     6382.761       12.350        3.714      415.580       87.072        0.044      349.205       29.457      858.646
07/16/2013  13:53:00     -220.373     -159.374       -6.643      248.178      210.583      103.369    61592.169    44345.072    10685.209        9.529        5.831      271.964      116.804        0.184      349.247       29.532      858.630
07/16/2013  13:54:00     -363.947     -278.749        0.872      249.402      208.452      133.818    62201.476    43452.231    17907.249       16.684        6.178      458.431      136.270        0.088      348.981       29.071      858.590
07/16/2013  13:55:00     -383.511      -31.009      -22.863      197.323      164.695       89.106    38936.307    27124.374     7939.821       11.127        3.700      384.762       96.962        0.064      349.172       29.402      858.599
07/16/2013  13:56:00     -367.108     -124.580      -11.692      199.243      140.734       91.458    39697.619    19806.115     8364.491       10.913        3.393      387.670      107.335        0.077      349.320       29.658      858.621
07/16/2013  13:57:00     -310.073     -149.117        2.612      125.273      126.259       65.030    15693.277    15941.420     4228.945        7.712        1.793      344.066       64.859        0.036      349.315       29.650      858.624
07/16/2013  13:58:00     -324.191     -123.704       -5.545      200.324      166.088       92.283    40129.869    27585.066     8516.119        9.832        3.812      346.991       99.258        0.082      349.414       29.822      858.646
07/16/2013  13:59:00     -304.468     -294.917       -7.273      251.990      192.244      106.615    63498.886    36957.781    11366.687       14.575        5.591      423.883      109.883        0.067      349.224       29.492      858.666
07/16/2013  14:00:00     -401.292      -15.759       -9.223      183.068      202.290       84.036    33514.032    40921.225     7062.032       12.142        4.075      401.601       83.035        0.043      349.253       29.540      858.682
07/16/2013  14:01:00     -267.958       31.682        7.443      183.900      124.791       80.173    33819.334    15572.898     6427.722        6.433        2.791      269.825       92.124        0.117      349.425       29.839      858.664
07/16/2013  14:02:00     -119.390     -137.215       23.371      152.917      112.597       64.013    23383.549    12678.179     4097.710        3.689        2.008      181.884       75.673        0.173      349.608       30.158      858.673
07/16/2013  14:03:00     -261.464     -248.195      -13.051      188.785      153.725       83.384    35639.697    23631.497     6952.886        9.817        3.311      360.505       73.087        0.041      349.339       29.691      858.687
07/16/2013  14:04:00     -408.649     -349.276       16.370      264.222      157.161      121.641    69813.432    24699.433    14796.477       19.926        5.465      537.575      142.639        0.070      349.151       29.366      858.631
07/16/2013  14:05:00     -404.872      -48.334       -1.099      254.981      168.346       87.919    65015.237    28340.297     7729.711       13.365        5.054      407.747       96.535        0.056      349.307       29.636      858.669
07/16/2013  14:06:00     -438.797      -23.738      -26.977      264.061      159.462       92.489    69728.407    25428.008     8554.142       14.875        5.186      439.439      114.339        0.068      349.291       29.608      858.640
07/16/2013  14:07:00     -468.316     -235.753      -26.152      228.941      197.949       77.728    52414.085    39183.632     6041.686       18.659        4.882      524.308       93.020        0.031      349.125       29.319      858.645
07/16/2013  14:08:00     -231.023     -144.431       28.972      228.237      175.390       86.411    52092.160    30761.817     7466.866        8.268        4.516      272.456      103.212        0.144      349.367       29.740      858.615
07/16/2013  14:09:00     -313.838     -198.702       -3.054      203.599      164.982       84.192    41452.594    27219.168     7088.297       10.686        3.788      371.452       97.301        0.069      349.465       29.910      858.609
07/16/2013  14:10:00     -458.307     -239.070       -9.389      266.908      189.001       97.618    71239.706    35721.261     9529.345       19.187        5.825      516.914      114.147        0.049      349.349       29.708      858.604
07/16/2013  14:11:00     -499.461     -230.406      -12.352      263.524      197.617      103.091    69444.648    39052.565    10627.655       21.089        5.956      550.043       96.921        0.031      349.039       29.170      858.593
07/16/2013  14:12:00     -490.425     -206.524      -19.329      201.523      205.818      104.769    40611.635    42361.003    10976.625       18.873        4.697      532.136      115.980        0.048      349.059       29.207      858.611
07/16/2013  14:13:00     -306.937     -143.278       18.999      230.412      151.742      108.276    53089.696    23025.489    11723.689       10.145        4.392      338.731      120.902        0.127      349.201       29.451      858.619
07/16/2013  14:14:00     -408.437     -284.785       -7.703      329.455      216.220      106.127   108540.923    46750.956    11262.851       20.724        8.328      497.919      125.413        0.063      349.048       29.187      858.631
07/16/2013  14:15:00     -183.162      -25.765       11.817      180.829      118.443       73.449    32698.960    14028.830     5394.776        4.323        2.606      184.965       81.178        0.193      349.426       29.844      858.620
07/16/2013  14:16:00     -469.963     -146.325      -18.743      377.751      221.854      105.789   142695.779    49219.260    11191.268       22.283       10.155      492.216      144.991        0.087      349.086       29.251      858.569
07/16/2013  14:17:00     -755.926     -244.286      -32.772      268.437      240.437      129.804    72058.165    57810.001    16849.066       38.942        7.336      794.418      140.534        0.031      349.016       29.131      858.536
07/16/2013  14:18:00     -391.672     -135.618       -9.548      231.809      205.518      120.850    53735.354    42237.478    14604.605       14.121        5.529      414.487      129.879        0.098      349.160       29.380      858.560
07/16/2013  14:19:00     -605.035     -149.471      -26.596      252.930      256.979      113.242    63973.568    66038.131    12823.862       26.595        7.142      623.225      106.830        0.029      349.097       29.270      858.577
07/16/2013  14:20:00     -549.995        1.054      -41.451      307.032      216.225      107.598    94268.362    46753.465    11577.344       22.838        7.630      549.996      129.205        0.055      349.158       29.377      858.598
07/16/2013  14:21:00     -362.883     -171.666      -25.123      158.878      194.984       90.564    25242.339    38018.787     8201.854       11.661        3.573      401.439       88.845        0.049      349.270       29.572      858.650
07/16/2013  14:22:00     -342.722      -50.937      -16.774      141.128      160.461       66.939    19917.186    25747.678     4480.841        8.523        2.507      346.487       56.176        0.026      349.432       29.852      858.669
07/16/2013  14:23:00     -256.350      -92.549        8.409      185.633      158.927       82.452    34459.734    25257.822     6798.321        7.042        3.326      272.545       91.927        0.114      349.454       29.892      858.656
07/16/2013  14:24:00     -292.639     -173.828       -9.204      164.352      164.207       88.093    27011.611    26963.806     7760.457        8.882        3.087      340.373       89.828        0.070      349.424       29.839      858.635
07/16/2013  14:25:00     -413.679     -194.495        5.754      207.246      229.775      105.872    42950.734    52796.445    11208.914       15.795        5.348      457.120      118.090        0.067      349.394       29.786      858.622
07/16/2013  14:26:00     -361.017     -214.439       12.121      319.968      187.297      118.344   102379.558    35080.090    14005.189       16.393        7.573      419.902      168.983        0.162      349.303       29.629      858.594
07/16/2013  14:27:00     -618.870     -200.246      -26.944      251.943      274.933      105.649    63475.371    75588.272    11161.805       28.699        7.511      650.461      114.696        0.031      349.005       29.112      858.620
07/16/2013  14:28:00     -537.046      -68.574      -16.557      275.411      168.788      112.311    75851.016    28489.232    12613.818       20.515        5.848      541.406      129.823        0.057      349.129       29.327      858.632
07/16/2013  14:29:00     -465.942     -170.031      -15.669      190.147      197.743       97.035    36155.730    39102.460     9415.729       16.545        4.234      495.996       92.110        0.034      349.102       29.281      858.662
07/16/2013  14:30:00     -374.342     -190.273       -3.583      254.451      195.256      116.687    64745.499    38124.740    13615.799       14.639        5.824      419.923      135.560        0.104      349.230       29.502      858.654
07/16/2013  14:31:00     -659.846     -156.320      -27.075      261.318      177.395      109.041    68286.856    31468.898    11889.929       28.608        5.582      678.110      113.780        0.028      349.077       29.239      858.656
07/16/2013  14:32:00     -342.783     -141.917        2.038      261.686      185.545      104.281    68479.722    34427.087    10874.475       12.569        5.689      370.999      132.040        0.127      349.342       29.697      858.674
07/16/2013  14:33:00     -676.269     -136.187      -53.851      259.111      240.213      105.103    67138.489    57702.238    11046.717       30.731        6.794      689.845      110.980        0.026      348.912       28.951      858.670
07/16/2013  14:34:00     -693.557     -198.375      -34.344      237.769      260.376      108.017    56534.216    67795.560    11667.689       32.875        6.800      721.370      112.341        0.024      348.845       28.834      858.654
07/16/2013  14:35:00     -510.944     -221.665      -26.176      253.471      261.307      116.451    64247.792    68281.406    13560.928       22.846        7.305      556.955      128.991        0.054      349.034       29.162      858.632
07/16/2013  14:36:00     -259.220     -191.344       19.418      202.721      164.277       95.834    41095.749    26986.954     9184.076        9.071        3.863      322.191       96.272        0.089      349.250       29.536      858.691
07/16/2013  14:37:00     -254.379      -77.153       -7.154      225.421      136.984       81.798    50814.682    18764.682     6690.880        7.348        3.814      265.822       79.472        0.089      349.472       29.922      858.722
07/16/2013  14:38:00     -661.302     -143.702      -36.155      272.605      281.976      112.166    74313.704    79510.263    12581.285       31.281        8.320      676.735      118.464        0.031      348.982       29.073      858.702
07/16/2013  14:39:00     -469.375     -184.279      -22.630      264.926      199.621       99.668    70185.759    39848.635     9933.788       18.735        5.998      504.253      118.902        0.056      349.127       29.323      858.706
07/16/2013  14:40:00     -291.883     -234.141       20.460      224.769      193.603      116.698    50520.940    37482.049    13618.452       12.101        5.081      374.189      113.502        0.092      349.123       29.316      858.717
07/16/2013  14:41:00     -350.123     -149.528       15.069      405.803      188.577      111.075   164676.331    35561.386    12337.546       17.883       10.629      380.716      163.999        0.186      349.362       29.731      858.705
07/16/2013  14:42:00     -501.578     -284.981      -20.726      254.093      215.901      107.017    64563.256    46613.291    11452.676       22.790        6.131      576.883      123.366        0.046      349.072       29.229      858.717
07/16/2013  14:43:00     -427.141     -192.830        4.778      281.137      234.953      105.467    79038.086    55202.817    11123.353       18.248        7.268      468.650      129.341        0.076      349.001       29.106      858.714
07/16/2013  14:44:00     -632.840     -401.806      -16.228      342.685      275.742      149.456   117433.241    76033.452    22337.242       38.896       10.790      749.623      169.707        0.051      348.910       28.949      858.580
07/16/2013  14:45:00     -618.452     -321.702      -19.210      348.747      241.668      123.292   121624.150    58403.213    15201.007       34.075        9.761      697.119      157.090        0.051      348.873       28.883      858.639
07/16/2013  14:46:00     -375.506     -190.122      -11.282      264.336      225.583      108.862    69873.265    50887.577    11850.942       15.492        6.631      420.893      115.241        0.075      348.927       28.976      858.716
07/16/2013  14:47:00     -436.168     -351.320      -15.146      247.488      190.700      111.097    61250.116    36366.308    12342.456       21.191        5.498      560.061      117.162        0.044      349.012       29.124      858.729
07/16/2013  14:48:00     -484.209     -205.756      -17.482      232.012      188.632      106.790    53829.431    35582.042    11404.063       18.894        5.041      526.113      105.963        0.041      348.969       29.049      858.791
07/16/2013  14:49:00     -263.232     -112.047      -13.621      243.238      146.503       84.835    59164.484    21463.192     7197.049        8.491        4.391      286.087       97.404        0.116      349.225       29.493      858.798
07/16/2013  14:50:00     -323.889      -91.688      -19.064      207.475      150.734       78.578    43045.897    22720.615     6174.434        9.279        3.597      336.617      103.559        0.095      349.345       29.701      858.808
07/16/2013  14:51:00     -699.921     -237.811      -39.625      272.679      225.566      123.467    74353.834    50880.207    15244.130       34.422        7.024      739.219      137.407        0.035      348.960       29.036      858.788
07/16/2013  14:52:00     -556.922     -101.718       -9.122      329.597      202.700      112.409   108634.345    41087.156    12635.791       24.144        8.118      566.134      142.077        0.063      348.954       29.024      858.789
07/16/2013  14:53:00     -422.774     -151.147        5.156      317.951      191.041      119.361   101093.003    36496.706    14246.975       17.669        7.592      448.980      164.578        0.134      348.988       29.083      858.775
07/16/2013  14:54:00     -349.215     -109.579        2.321      248.672      168.688      106.556    61837.873    28455.613    11354.240       11.779        5.082      366.003      121.056        0.109      349.289       29.604      858.771
07/16/2013  14:55:00     -508.013     -190.585      -21.102      287.684      183.153       95.020    82762.289    33545.009     9028.765       21.007        6.267      542.586      101.854        0.035      348.956       29.028      858.798
07/16/2013  14:56:00     -443.090     -178.773       -3.929      314.776      242.579      109.833    99083.733    58844.729    12063.307       19.911        8.500      477.795      141.582        0.088      349.198       29.446      858.751
07/16/2013  14:57:00     -572.795      -75.963      -22.555      245.008      185.401       97.850    60029.082    34373.602     9574.625       21.915        5.199      577.810      102.959        0.032      349.199       29.446      858.785
07/16/2013  14:58:00     -383.714     -108.848        4.408      253.760      195.748      109.390    64393.958    38317.323    11966.212       13.687        5.734      398.854      105.949        0.071      349.163       29.385      858.814
07/16/2013  14:59:00     -322.615     -133.281       -1.771      268.770      182.760       99.453    72237.431    33401.271     9890.801       11.867        5.776      349.062      114.343        0.107      349.244       29.526      858.780
07/16/2013  15:00:00     -355.845      -82.153       -2.085      201.407      177.686       90.668    40564.644    31572.160     8220.719       10.685        4.018      365.205       99.533        0.074      349.367       29.739      858.820
07/16/2013  15:01:00     -418.023     -238.349      -17.141      257.538      200.825       97.389    66325.985    40330.676     9484.641       17.397        5.807      481.200      124.348        0.067      349.137       29.340      858.828
07/16/2013  15:02:00     -320.648      -53.686       -4.687      175.925      136.070       71.149    30949.456    18515.152     5062.113        8.011        2.726      325.111       87.122        0.072      349.445       29.876      858.829
07/16/2013  15:03:00     -608.761     -134.688      -24.815      264.019      322.477      107.158    69706.265   103991.676    11482.837       28.723        9.259      623.483      108.988        0.031      349.094       29.265      858.844
07/16/2013  15:04:00     -559.754     -280.284      -31.990      233.029      205.266      100.679    54302.459    42134.215    10136.356       24.972        5.329      626.006       84.638        0.018      348.982       29.072      858.853
07/16/2013  15:05:00     -316.912     -162.136        9.478      212.945      177.902       98.405    45345.525    31649.272     9683.583       10.673        4.334      355.980      107.120        0.091      349.156       29.374      858.842
07/16/2013  15:06:00     -379.919     -221.246      -18.555      226.209      139.542       91.048    51170.356    19472.000     8289.764       13.627        3.947      439.645       94.346        0.046      349.162       29.384      858.800
07/16/2013  15:07:00     -347.016     -230.673       -4.071      272.410      185.105       91.043    74207.141    34263.880     8288.872       14.518        5.838      416.690      117.183        0.079      349.191       29.434      858.801
07/16/2013  15:08:00     -480.784       24.612      -30.240      278.879      164.788       81.889    77773.361    27155.188     6705.774       17.213        5.582      481.413      103.711        0.046      349.343       29.698      858.784
07/16/2013  15:09:00     -497.900     -178.864      -12.880      249.979      205.531      105.368    62489.635    42242.848    11102.400       19.793        5.792      529.053      103.183        0.038      349.171       29.398      858.772
07/16/2013  15:10:00     -464.050     -230.344       -9.717      207.412      156.792       82.090    43019.787    24583.803     6738.755       17.140        3.717      518.074      101.712        0.039      349.314       29.647      858.804
07/16/2013  15:11:00     -451.518     -126.490      -21.883      207.136      188.307       97.426    42905.136    35459.404     9491.750       15.408        4.393      468.901      111.774        0.057      349.389       29.777      858.800
07/16/2013  15:12:00     -242.601     -173.319        1.541      184.498      179.803       99.378    34039.647    32329.160     9875.970        8.256        3.812      298.152      103.914        0.121      349.463       29.907      858.826
07/16/2013  15:13:00     -445.986     -180.292      -21.230      217.054      209.786      104.687    47112.633    44010.244    10959.304       16.695        5.104      481.050       99.669        0.043      349.026       29.150      858.799
07/16/2013  15:14:00     -343.924     -298.843        5.513      264.726      208.027      130.128    70079.970    43275.225    16933.168       16.893        6.514      455.621      142.107        0.097      349.117       29.307      858.746
07/16/2013  15:15:00     -494.520     -237.849       15.596      277.613      189.136      112.387    77069.200    35772.441    12630.842       21.339        6.274      548.746      132.616        0.058      349.061       29.209      858.753
07/16/2013  15:16:00     -516.238     -303.421      -33.289      237.811      165.530      107.420    56554.232    27400.069    11539.146       22.756        4.775      598.804      111.720        0.035      349.056       29.200      858.738
07/16/2013  15:17:00     -558.140     -165.115      -20.687      263.113      205.069      112.449    69228.541    42053.099    12644.717       23.154        6.196      582.051      131.678        0.051      349.188       29.428      858.731
07/16/2013  15:18:00     -396.865       -6.929      -26.591      221.794      169.492      105.556    49192.550    28727.434    11142.140       12.364        4.453      396.926       97.810        0.061      349.452       29.886      858.769
07/16/2013  15:19:00     -550.119      -54.400      -15.843      258.695      187.898      104.463    66923.166    35305.737    10912.526       20.947        5.657      552.802      124.252        0.051      349.258       29.550      858.770
07/16/2013  15:20:00     -503.683      -85.932      -26.820      303.928      139.989      105.608    92372.310    19596.856    11153.049       19.244        6.156      510.961      137.764        0.073      349.240       29.520      858.808
07/16/2013  15:21:00     -514.028     -274.114      -24.579      238.610      207.063      108.487    56934.960    42875.172    11769.442       22.575        5.579      582.549       94.040        0.026      349.049       29.188      858.807
07/16/2013  15:22:00     -286.393     -208.535       14.267      208.776      158.803      111.438    43587.324    25218.437    12418.369       10.345        4.061      354.271      123.756        0.122      349.220       29.485      858.812
07/16/2013  15:23:00     -381.647     -207.245      -11.081      161.883      155.251       79.929    26205.946    24102.803     6388.584       12.270        2.835      434.286       72.522        0.028      349.132       29.332      858.850
07/16/2013  15:24:00     -421.096     -211.672      -18.052      238.970      198.656      119.175    57106.705    39464.370    14202.590       16.659        5.539      471.303      139.694        0.088      349.286       29.598      858.840
07/16/2013  15:25:00     -232.632      -68.425       18.597      233.777      190.739       93.065    54651.763    36381.262     8661.151        7.940        4.985      242.486      104.683        0.186      349.330       29.675      858.815
07/16/2013  15:26:00     -366.480      -54.466      -13.724      182.168      154.189       86.338    33185.063    23774.353     7454.289       10.093        3.221      370.506       94.506        0.065      349.317       29.653      858.810
07/16/2013  15:27:00     -538.483      -56.552      -19.900      220.280      147.367       97.872    48523.084    21717.023     9578.897       18.667        3.991      541.445      106.309        0.039      349.136       29.339      858.807
07/16/2013  15:28:00     -549.122     -143.324      -23.499      287.497      191.918       96.942    82654.321    36832.628     9397.716       22.573        6.444      567.519      114.721        0.041      349.085       29.250      858.816
07/16/2013  15:29:00     -647.388     -110.034      -30.100      287.185      196.287      108.524    82475.369    38528.455    11777.405       28.243        6.639      656.672      128.541        0.038      348.967       29.046      858.815
07/16/2013  15:30:00     -612.554     -255.628      -32.553      291.170      216.200      118.490    84779.791    46742.364    14039.916       29.357        7.278      663.753      138.585        0.044      348.873       28.883      858.805
07/16/2013  15:31:00     -270.118      -95.521       13.328      220.333      162.107       98.678    48546.806    26278.608     9737.381        8.340        4.228      286.510      106.640        0.139      349.359       29.726      858.809
07/16/2013  15:32:00     -374.105     -204.519      -21.896      200.464      205.551       85.244    40186.005    42251.331     7266.462       13.596        4.485      426.360       86.898        0.042      349.184       29.422      858.809
07/16/2013  15:33:00     -404.462     -286.448       -6.006      198.913      194.279      100.668    39566.514    37744.472    10134.138       16.654        4.372      495.623       99.710        0.040      349.138       29.342      858.767
07/16/2013  15:34:00     -318.914     -121.528       -1.317      171.779      181.917       79.408    29507.951    33093.737     6305.709        9.268        3.445      341.284       66.173        0.038      349.382       29.764      858.794
07/16/2013  15:35:00     -346.010      -18.834       -7.744      167.674      195.296       95.536    28114.711    38140.366     9127.152        9.774        3.769      346.522       90.544        0.068      349.187       29.427      858.786
07/16/2013  15:36:00     -410.318     -164.233       -9.854      253.194      244.451      105.022    64107.150    59756.471    11029.533       16.513        6.745      441.965      134.664        0.093      349.248       29.533      858.782
07/16/2013  15:37:00     -294.737     -249.402       26.530      270.062      195.648      126.149    72933.564    38278.050    15913.470       13.842        6.356      386.098      122.355        0.100      349.137       29.342      858.731
07/16/2013  15:38:00     -331.796      -25.116       -8.356      195.635      133.147       71.396    38272.941    17728.184     5097.349        8.593        3.055      332.745       84.382        0.064      349.380       29.763      858.785
07/16/2013  15:39:00     -250.243      -67.454        6.675      168.234      136.137       80.441    28302.576    18533.269     6470.834        6.025        2.665      259.174       82.077        0.100      349.318       29.654      858.778
07/16/2013  15:40:00     -214.473     -172.579       12.001      146.080      133.963       76.221    21339.483    17945.966     5809.665        6.050        2.255      275.285       87.690        0.101      349.326       29.670      858.731
07/16/2013  15:41:00     -323.937     -137.920        3.909      248.517      198.973       83.951    61760.813    39590.285     7047.772       11.616        5.420      352.075       94.103        0.071      349.389       29.778      858.768
07/16/2013  15:42:00     -409.129     -232.483       -8.288      270.241      203.722      109.040    73030.190    41502.733    11889.732       17.394        6.321      470.568      131.537        0.078      349.185       29.424      858.732
07/16/2013  15:43:00     -427.786     -274.199      -26.858      212.735      173.787      112.225    45255.999    30201.808    12594.533       17.346        4.403      508.120      117.057        0.053      349.223       29.489      858.735
07/16/2013  15:44:00     -292.705     -142.514       16.352      223.205      150.081       98.362    49820.547    22524.182     9675.110        9.412        4.101      325.556      116.025        0.127      349.502       29.972      858.754
07/16/2013  15:45:00     -434.012       12.399      -21.148      258.678      126.627       87.479    66914.448    16034.399     7652.576       13.977        4.530      434.189      113.938        0.069      349.459       29.899      858.787
07/16/2013  15:46:00     -348.084      -68.691      -15.336      193.140      184.884       68.293    37302.984    34181.992     4663.904       10.112        3.807      354.797       74.498        0.044      349.411       29.817      858.784
07/16/2013  15:47:00     -525.254     -159.570      -28.698      224.848      193.677      123.476    50556.474    37510.890    15246.255       20.273        5.166      548.958      110.983        0.041      349.212       29.471      858.761
07/16/2013  15:48:00     -506.335     -232.363      -17.781      301.811      226.489      111.806    91090.140    51297.492    12500.602       23.276        7.744      557.107      128.916        0.054      349.131       29.331      858.760
07/16/2013  15:49:00     -243.855      -67.701       -3.760      145.815      117.053       78.118    21261.962    13701.397     6102.391        5.256        2.053      253.079       72.889        0.083      349.427       29.843      858.762
07/16/2013  15:50:00     -408.112     -241.465       -9.859      334.319      263.498      128.621   111769.116    69431.197    16543.463       21.131        9.887      474.195      157.990        0.111      349.181       29.418      858.763
07/16/2013  15:51:00     -296.651      -44.718       -8.213      210.207      148.035       72.690    44187.005    21914.395     5283.783        8.071        3.569      300.003       76.150        0.064      349.365       29.736      858.782
07/16/2013  15:52:00     -311.554     -188.178       -1.934      218.987      178.433       99.368    47955.317    31838.222     9874.008       11.106        4.483      363.974      103.293        0.081      349.225       29.495      858.799
07/16/2013  15:53:00     -435.014     -134.068        9.713      332.399      200.410      125.337   110488.779    40164.059    15709.468       18.680        8.318      455.205      153.695        0.114      349.143       29.351      858.805
07/16/2013  15:54:00     -395.554     -152.844       18.031      287.797      250.806      106.552    82827.094    62903.438    11353.245       16.859        7.854      424.057      128.852        0.092      349.162       29.384      858.840
07/16/2013  15:55:00     -414.600      -49.750       12.861      404.055      217.316      117.438   163260.245    47226.412    13791.751       19.936       11.214      417.574      173.821        0.173      349.026       29.148      858.881
07/16/2013  15:56:00     -587.125      -84.211      -17.785      305.638      179.566      117.225    93414.623    32243.929    13741.710       24.573        6.970      593.134      146.915        0.061      348.886       28.905      858.880
07/16/2013  15:57:00     -485.353     -140.666      -18.556      251.690      251.077      112.504    63348.057    63039.877    12657.096       19.734        6.952      505.326      119.301        0.056      348.859       28.859      858.851
07/16/2013  15:58:00     -381.832      -11.233      -27.032      141.845      159.684       76.149    20120.036    25499.055     5798.725        9.903        2.571      381.998       71.649        0.035      349.048       29.186      858.856
07/16/2013  15:59:00     -570.248     -147.420      -25.909      216.238      263.880      113.015    46758.773    69632.489    12772.311       23.835        6.458      588.995      100.548        0.029      349.016       29.131      858.811
07/16/2013  16:00:00     -643.223     -134.851      -22.725      371.994      212.425      103.225   138379.769    45124.431    10655.320       31.326        9.708      657.207       99.905        0.023      348.893       28.917      858.820
07/16/2013  16:01:00     -439.023      -12.968      -31.671      265.815      168.784       91.247    70657.697    28487.932     8326.086       15.067        5.374      439.215      111.942        0.065      349.212       29.470      858.823
07/16/2013  16:02:00     -629.872     -146.411      -32.165      181.656      185.009      100.183    32998.935    34228.309    10036.610       24.822        3.863      646.665       92.387        0.020      349.086       29.253      858.835
07/16/2013  16:03:00     -269.545     -191.522        7.817      222.618      193.935      114.227    49558.735    37610.847    13047.710       10.479        5.011      330.659      113.325        0.117      349.070       29.225      858.857
07/16/2013  16:04:00     -120.887      -66.695       22.690      133.591      115.672       66.542    17846.605    13380.073     4427.834        2.761        1.783      138.065       62.600        0.206      349.275       29.582      858.827
07/16/2013  16:05:00     -213.480      -81.804        3.625      193.966      150.555       74.247    37622.974    22666.851     5512.673        5.903        3.290      228.616       67.821        0.088      349.433       29.856      858.853
07/16/2013  16:06:00     -307.843     -101.950      -20.063      161.893      154.346       74.195    26209.494    23822.607     5504.947        8.054        2.777      324.286       80.275        0.061      349.201       29.450      858.864
07/16/2013  16:07:00     -634.699     -256.898      -37.763      255.654      245.572      108.668    65359.166    60305.369    11808.774       30.384        6.874      684.719      101.881        0.022      349.098       29.273      858.809
07/16/2013  16:08:00     -482.926     -175.116      -19.921      345.338      195.704      135.700   119258.367    38300.147    18414.505       22.009        8.799      513.695      171.292        0.111      349.087       29.255      858.817
07/16/2013  16:09:00     -517.021      -60.275      -12.711      241.525      191.125      115.482    58334.201    36528.762    13336.017       18.963        5.410      520.523      120.363        0.053      349.152       29.367      858.820
07/16/2013  16:10:00     -571.046     -128.630      -26.111      239.855      208.628      106.801    57530.514    43525.682    11406.373       22.787        5.623      585.354      116.089        0.039      349.007       29.116      858.843
07/16/2013  16:11:00     -542.750      -43.252      -15.150      266.854      175.655      113.388    71211.117    30854.627    12856.800       20.578        5.746      544.470      131.319        0.058      349.139       29.344      858.829
07/16/2013  16:12:00     -816.835     -249.937      -30.886      318.154      221.201      119.323   101222.093    48930.072    14238.076       44.748        8.220      854.218      129.869        0.023      348.942       29.001      858.832
07/16/2013  16:13:00     -293.170     -208.560       18.169      216.598      186.446       96.741    46914.908    34761.954     9358.798       11.039        4.552      359.786      103.848        0.083      349.124       29.318      858.914
07/16/2013  16:14:00     -550.769     -218.830      -40.374      203.554      177.705       80.730    41434.248    31579.184     6517.263       21.618        3.977      592.649       74.197        0.016      348.760       28.687      858.897
07/16/2013  16:15:00     -585.136      -77.962      -21.268      229.578      164.176      102.685    52705.975    26953.680    10544.223       21.954        4.510      590.307      107.268        0.033      348.944       29.008      858.849
07/16/2013  16:16:00     -371.785      -56.977      -14.541      190.719      173.970       93.885    36373.729    30265.447     8814.481       10.855        3.773      376.125      103.296        0.075      349.274       29.577      858.913
07/16/2013  16:17:00     -451.261     -270.975      -22.621      318.916      188.487      135.136   101707.619    35527.479    18261.708       21.651        7.775      526.369      178.067        0.114      348.973       29.057      858.955
07/16/2013  16:18:00     -103.873      -25.213       34.010      237.716      138.929       74.892    56508.950    19301.188     5608.840        4.698        4.071      106.890      100.590        0.886      349.262       29.559      858.903
07/16/2013  16:19:00     -313.481     -106.177       -2.505      208.182      203.182       74.620    43339.567    41282.767     5568.149        9.985        4.510      330.974       62.777        0.036      349.102       29.281      858.887
07/16/2013  16:20:00     -734.199      -20.962      -36.513      303.849      232.304      115.981    92324.124    53965.131    13451.593       35.025        7.987      734.498      127.861        0.030      348.923       28.968      858.842
07/16/2013  16:21:00     -579.929      -99.570      -40.390      261.105      259.234      109.654    68175.714    67202.125    12024.053       24.760        7.370      588.414      112.330        0.036      348.990       29.086      858.860
07/16/2013  16:22:00     -606.018      -75.745      -36.443      242.982      255.645       95.495    59040.063    65354.230     9119.226       25.389        6.676      610.733      103.905        0.029      348.906       28.942      858.863
07/16/2013  16:23:00     -486.388      -19.332      -38.980      231.956      148.180      106.212    53803.758    21957.304    11281.012       16.274        4.352      486.772      113.593        0.054      349.112       29.297      858.868
07/16/2013  16:24:00     -456.371     -194.407      -25.949      241.567      188.766      110.629    58354.806    35632.580    12238.820       17.646        5.311      496.053      105.289        0.045      349.081       29.244      858.888
07/16/2013  16:25:00     -369.387      -38.392      -10.691      168.332      149.564       95.930    28335.803    22369.465     9202.585        9.896        2.995      371.377       93.480        0.063      349.155       29.372      858.898
07/16/2013  16:26:00     -319.540      -10.359      -10.647      144.525       96.533       77.411    20887.557     9318.566     5992.467        6.926        1.810      319.708       78.120        0.060      349.358       29.723      858.887
07/16/2013  16:27:00     -492.807      -91.033      -45.307      210.687      179.068       81.747    44389.174    32065.399     6682.608       16.815        4.157      501.144       73.040        0.021      349.281       29.588      858.882
07/16/2013  16:28:00     -430.891      -61.996      -15.964      205.788      126.948       92.945    42348.525    16115.688     8638.764       12.842        3.355      435.328       99.149        0.052      349.128       29.324      858.882
07/16/2013  16:29:00     -849.576     -132.774      -25.514      317.675      202.947      109.232   100917.424    41187.380    11931.644       44.702        7.702      859.889      124.246        0.021      348.862       28.865      858.870
07/16/2013  16:30:00     -424.767     -115.241      -22.048      178.669      178.906       95.161    31922.740    32007.454     9055.617       13.358        3.649      440.122       81.366        0.034      348.904       28.936      858.905
07/16/2013  16:31:00     -543.214       49.573      -34.616      301.041      190.761       93.195    90625.952    36389.572     8685.379       21.719        6.785      545.471      111.482        0.042      349.087       29.253      858.869
07/16/2013  16:32:00     -644.889     -162.877      -67.766      187.386      173.920       95.201    35113.600    30248.095     9063.312       26.070        3.721      665.140       78.173        0.014      348.899       28.928      858.862
07/16/2013  16:33:00     -679.156     -165.147      -33.927      341.925      184.567      115.174   116912.508    34065.083    13265.018       32.693        8.212      698.947      142.254        0.041      348.883       28.900      858.818
07/16/2013  16:34:00     -629.013     -129.118      -27.007      303.053      240.443      102.658    91841.026    57812.987    10538.737       28.659        8.010      642.129      127.142        0.039      349.023       29.142      858.861
07/16/2013  16:35:00     -448.459     -137.544      -32.452      292.817      148.966       94.855    85741.922    22191.008     8997.416       16.899        5.847      469.078      116.022        0.061      349.170       29.399      858.936
07/16/2013  16:36:00     -415.955       48.435      -29.671      233.190      177.231      103.006    54377.649    31410.742    10610.158       13.630        4.820      418.766      118.062        0.079      349.106       29.289      858.903
07/16/2013  16:37:00     -528.815     -130.498      -25.318      291.094      221.741       94.238    84735.864    49168.976     8880.876       22.002        7.139      544.679      104.257        0.037      348.937       28.995      858.899
07/16/2013  16:38:00     -641.494     -107.550      -61.428      192.879      159.390       93.522    37202.280    25405.098     8746.335       24.909        3.568      650.448       81.050        0.016      348.911       28.948      858.869
07/16/2013  16:39:00     -552.969     -148.347       -5.496      235.001      190.022      105.812    55225.541    36108.187    11196.134       21.515        5.126      572.522      127.661        0.050      348.968       29.049      858.865
07/16/2013  16:40:00     -567.890     -112.892      -21.208      308.414      188.113      113.625    95119.459    35386.346    12910.744       23.953        7.171      579.002      125.436        0.047      349.000       29.103      858.879
07/16/2013  16:41:00     -675.954     -216.671      -28.039      269.898      225.868      111.951    72845.045    51016.154    12532.937       32.049        6.820      709.831      136.030        0.037      348.806       28.769      858.858
07/16/2013  16:42:00     -455.868      -81.496      -37.539      197.740      185.341       91.289    39101.249    34351.466     8333.715       14.881        4.089      463.096      105.659        0.052      349.166       29.391      858.867
07/16/2013  16:43:00     -212.061      -88.279       16.439      185.332      128.175       91.397    34348.106    16428.889     8353.352        5.607        2.957      229.702      111.087        0.234      349.234       29.511      858.885
07/16/2013  16:44:00     -227.948     -129.027        1.825      188.500      147.905       81.792    35532.399    21875.985     6690.003        6.634        3.205      261.932       93.504        0.127      349.394       29.787      858.876
07/16/2013  16:45:00     -236.752      -94.324        7.217      163.169      164.981       81.839    26624.273    27218.609     6697.638        6.276        3.027      254.850       65.874        0.067      349.583       30.114      858.886
07/16/2013  16:46:00     -497.058     -274.576      -21.835      236.010      163.373      106.711    55700.615    26690.842    11387.173       20.834        4.689      567.855      110.530        0.038      348.964       29.041      858.894
07/16/2013  16:47:00     -308.099      -70.023       -5.627      202.706      160.253       80.891    41089.808    25681.123     6543.307        8.657        3.666      315.956      104.633        0.110      349.277       29.584      858.858
07/16/2013  16:48:00     -473.484     -175.326      -20.045      263.345      218.120      114.501    69350.386    47576.362    13110.449       19.266        6.502      504.902      122.116        0.058      349.046       29.183      858.842
07/16/2013  16:49:00     -709.847       69.920      -52.594      293.569      178.747       96.092    86182.990    31950.401     9233.679       31.943        6.368      713.282      109.349        0.024      348.863       28.865      858.816
07/16/2013  16:50:00     -309.387      -56.379       -5.141      145.155      171.547       81.815    21069.884    29428.233     6693.690        7.805        2.860      314.482       58.962        0.035      349.205       29.458      858.856
07/16/2013  16:51:00     -466.617     -219.893      -14.439      207.341      167.607       90.253    42990.209    28092.192     8145.519       17.274        3.961      515.834      102.270        0.039      348.920       28.965      858.932
07/16/2013  16:52:00     -358.512     -144.226        0.787      271.391      184.976      108.342    73653.144    34216.284    11737.933       13.445        5.980      386.434      138.559        0.129      349.067       29.219      858.899
07/16/2013  16:53:00     -185.854     -133.081       28.138      199.091      141.067       94.351    39637.204    19899.896     8902.049        6.073        3.422      228.588      106.256        0.216      349.070       29.225      858.890
07/16/2013  16:54:00     -424.553     -132.583       10.807      281.723      182.639      102.848    79367.875    33357.098    10577.724       16.060        6.165      444.773      127.072        0.082      349.054       29.198      858.891
07/16/2013  16:55:00     -714.739     -225.867      -31.706      304.279      176.937      118.369    92585.843    31306.792    14011.207       35.036        6.895      749.578      134.637        0.032      348.860       28.862      858.830
07/16/2013  16:56:00     -530.214     -248.175      -22.632      262.750      191.552      102.967    69037.567    36692.068    10602.232       22.976        5.817      585.421      116.315        0.039      348.812       28.778      858.921
07/16/2013  16:57:00     -258.070      -68.369        5.008      195.204      179.281       95.125    38104.450    32141.583     9048.812        7.528        3.965      266.972      112.854        0.179      349.169       29.395      858.855
07/16/2013  16:58:00     -344.793     -171.037       -3.037      224.893      194.980       91.815    50576.866    38017.286     8430.084       12.257        4.851      384.884      102.366        0.071      349.106       29.288      858.893
07/16/2013  16:59:00     -543.256     -294.887      -21.414      284.527      271.679      135.359    80955.520    73809.641    18322.149       27.778        8.654      618.130      143.883        0.054      348.874       28.886      858.883
07/16/2013  17:00:00     -378.430      -76.645       -0.558      258.652      202.470      112.641    66900.960    40994.170    12688.044       13.481        6.029      386.114      124.488        0.104      348.985       29.079      858.866
07/16/2013  17:01:00     -340.439     -159.646        1.832      241.234      180.332      100.348    58193.861    32519.676    10069.621       12.107        5.039      376.013       97.910        0.068      348.931       28.983      858.861
07/16/2013  17:02:00     -488.426     -180.197       -8.624      281.573      220.635      120.062    79283.206    48679.673    14414.850       20.671        7.119      520.606      142.576        0.075      348.869       28.876      858.873
07/16/2013  17:03:00     -545.011     -163.329      -39.708      270.261      192.228      116.438    73041.152    36951.528    13557.833       22.440        6.178      568.958      130.553        0.053      348.764       28.694      858.877
07/16/2013  17:04:00     -442.323      -81.796       -4.930      263.739      163.733      114.557    69558.476    26808.414    13123.339       15.591        5.475      449.822      115.385        0.066      348.700       28.586      858.880
07/16/2013  17:05:00     -337.992      -53.218       10.295      227.748      113.252       87.942    51868.970    12825.957     7733.871        9.479        3.621      342.156      102.583        0.090      348.933       28.989      858.816
07/16/2013  17:06:00     -508.698      -69.537      -37.371      223.372      165.271       94.211    49894.921    27314.636     8875.706       17.553        4.304      513.428       87.961        0.029      348.917       28.961      858.782
07/16/2013  17:07:00     -704.129     -148.690      -32.209      324.896      245.024      109.286   105557.462    60036.645    11943.533       34.821        8.877      719.658      117.750        0.027      348.810       28.775      858.759
07/16/2013  17:08:00     -732.850     -227.263      -22.877      327.654      194.693      124.900   107357.438    37905.171    15600.133       37.502        8.043      767.279      139.034        0.033      348.655       28.505      858.783
07/16/2013  17:09:00     -690.443     -150.860      -30.605      277.382      211.343      123.723    76940.865    44665.658    15307.385       31.863        6.846      706.732      148.304        0.044      348.676       28.543      858.774
07/16/2013  17:10:00     -482.274     -143.194      -30.231      204.919      131.351       92.976    41991.835    17253.079     8644.615       16.093        3.394      503.083      103.055        0.042      348.932       28.986      858.772
07/16/2013  17:11:00     -706.370     -258.049       -9.130      270.285      183.707      108.775    73053.876    33748.418    11831.902       34.211        5.932      752.029      106.188        0.020      348.634       28.470      858.724
07/16/2013  17:12:00     -648.787     -217.454      -17.764      283.683      176.863      103.499    80475.893    31280.504    10712.026       29.547        6.123      684.260      122.194        0.032      348.702       28.588      858.767
07/16/2013  17:13:00     -619.678     -154.009      -37.643      257.971      213.698      104.712    66549.013    45666.974    10964.511       26.613        6.159      638.529      129.877        0.041      348.751       28.673      858.787
07/16/2013  17:14:00     -335.213     -136.643        7.596      231.639      170.361       93.776    53656.823    29022.787     8794.011       11.127        4.574      361.993      109.096        0.091      348.840       28.826      858.816
07/16/2013  17:15:00     -347.171      -73.745       -6.728      326.842      174.794       93.899   106825.872    30552.816     8817.040       13.607        7.310      354.917      142.037        0.160      348.733       28.642      858.833
07/16/2013  17:16:00     -242.419      -70.015        3.727      170.222      157.240       96.086    28975.557    24724.567     9232.446        6.330        3.147      252.328      101.063        0.160      348.869       28.877      858.786
07/16/2013  17:17:00     -237.948        8.071        6.743      177.398      111.211       64.959    31470.216    12367.884     4219.612        5.238        2.403      238.085       59.802        0.063      349.120       29.312      858.776
07/16/2013  17:18:00     -402.980     -101.348       -7.343      231.072      175.456       91.584    53394.281    30784.913     8387.627       13.262        4.628      415.528       93.417        0.051      348.911       28.949      858.786
07/16/2013  17:19:00     -476.308     -111.232      -27.800      242.646      160.124       90.116    58877.292    25639.782     8120.826       16.631        4.632      489.123      112.532        0.053      348.642       28.484      858.776
07/16/2013  17:20:00     -449.236      -45.678       -4.564      248.739      142.401       77.902    61871.177    20277.992     6068.677       14.605        4.411      451.552       90.504        0.040      348.813       28.780      858.761
07/16/2013  17:21:00     -601.545      -55.260      -28.052      223.781      242.746       99.618    50077.768    58925.752     9923.772       24.229        5.946      604.078      103.552        0.029      348.728       28.633      858.778
07/16/2013  17:22:00     -677.406     -176.794      -32.053      245.313      291.266      111.520    60178.469    84835.877    12436.665       32.428        7.873      700.096      125.848        0.032      348.543       28.311      858.763
07/16/2013  17:23:00     -451.808      -99.689      -20.541      247.732      176.564       94.255    61371.131    31174.964     8883.958       15.794        5.072      462.675      111.057        0.058      348.645       28.489      858.789
07/16/2013  17:24:00     -344.118      -35.310        8.769      301.690      219.072      108.697    91016.987    47992.555    11815.032       13.525        7.541      345.925      133.915        0.150      348.789       28.740      858.782
07/16/2013  17:25:00     -525.114     -221.589       -8.678      255.452      181.966      101.780    65255.946    33111.482    10359.177       21.680        5.436      569.953      113.713        0.040      348.477       28.198      858.708
07/16/2013  17:26:00     -689.437     -149.860      -27.254      293.280      162.902      104.178    86012.986    26537.145    10853.143       31.094        6.170      705.537      108.385        0.024      348.447       28.146      858.722
07/16/2013  17:27:00     -487.786     -170.528       -9.451      254.142      231.086      108.046    64588.160    53400.621    11673.861       19.836        6.483      516.735      108.668        0.044      348.650       28.499      858.682
07/16/2013  17:28:00     -269.369      -41.271       -9.457      222.884      177.283       92.216    49677.351    31429.156     8503.719        8.196        4.481      272.512      103.145        0.143      348.922       28.969      858.769
07/16/2013  17:29:00     -374.398     -279.186       -2.795      266.073      212.306      110.669    70794.861    45073.683    12247.707       17.310        6.406      467.032      131.316        0.079      348.686       28.558      858.741
07/16/2013  17:30:00     -521.969     -202.682      -27.458      311.054      194.339      102.943    96754.581    37767.695    10597.277       22.967        7.256      559.939      126.399        0.051      348.748       28.666      858.755
07/16/2013  17:31:00     -613.265     -120.300      -25.781      200.952      201.333      106.916    40381.862    40535.164    11430.992       24.177        4.617      624.952      102.177        0.027      348.751       28.673      858.771
07/16/2013  17:32:00     -579.435     -285.999      -36.996      228.792      224.298      119.987    52346.001    50309.382    14396.813       26.796        5.853      646.173      131.996        0.042      348.608       28.424      858.735
07/16/2013  17:33:00     -475.616     -235.377      -21.790      286.401      248.418      130.914    82025.529    61711.724    17138.478       22.145        8.044      530.672      150.239        0.080      348.584       28.384      858.733
07/16/2013  17:34:00     -494.082     -252.588      -10.566      228.487      215.484      111.777    52206.485    46433.301    12494.181       20.956        5.557      554.904      117.598        0.045      348.597       28.406      858.730
07/16/2013  17:35:00     -324.416      -56.111        3.053      214.020      197.791       98.117    45804.550    39121.133     9626.897       10.146        4.728      329.233       94.752        0.083      348.845       28.836      858.744
07/16/2013  17:36:00     -749.101     -172.723      -34.340      286.573      197.488      122.031    82124.359    39001.685    14891.563       36.406        6.801      768.756      153.190        0.040      348.440       28.134      858.740
07/16/2013  17:37:00     -504.986     -197.665        6.087      289.091      210.558      119.183    83573.848    44334.478    14204.494       21.809        7.106      542.294      139.200        0.066      348.544       28.315      858.732
07/16/2013  17:38:00     -390.247      -96.845        4.660      215.027      228.684      101.551    46236.708    52296.278    10312.591       13.525        5.442      402.084      105.946        0.069      348.612       28.431      858.760
07/16/2013  17:39:00     -332.202      -68.162        0.504      214.844      145.848       94.263    46157.913    21271.782     8885.542        9.564        3.816      339.123      105.469        0.097      348.748       28.668      858.741
07/16/2013  17:40:00     -530.322     -120.178      -26.925      237.830      147.890       84.741    56563.303    21871.490     7181.061       19.100        4.281      543.769       90.070        0.027      348.707       28.595      858.766
07/16/2013  17:41:00     -527.792     -172.417      -17.087      209.908      220.721      112.787    44061.258    48717.887    12720.974       20.702        5.275      555.240      122.395        0.049      348.551       28.326      858.744
07/16/2013  17:42:00     -310.899     -137.264        3.384      228.539      144.914      101.191    52229.868    20999.962    10239.553        9.947        4.173      339.853      122.746        0.130      348.611       28.430      858.740
07/16/2013  17:43:00     -453.713     -193.078      -11.175      286.496      244.877      120.316    82079.691    59964.672    14475.932       19.986        7.826      493.086      155.978        0.100      348.574       28.365      858.741
07/16/2013  17:44:00     -355.633     -271.755        5.134      270.217      259.599      115.891    73017.468    67391.884    13430.703       17.707        7.692      447.577      140.638        0.099      348.504       28.245      858.729
07/16/2013  17:45:00     -453.975     -122.518       -8.470      280.013      156.472       89.902    78407.480    24483.423     8082.299       16.605        5.549      470.217      100.347        0.046      348.683       28.554      858.735
07/16/2013  17:46:00     -598.698     -253.660      -28.454      293.071      274.613      124.928    85890.500    75412.155    15607.116       30.022        8.845      650.218      137.705        0.045      348.464       28.176      858.752
07/16/2013  17:47:00     -445.168     -215.351       -9.690      250.013      266.639      109.512    62506.517    71096.387    11992.893       19.509        7.280      494.521      108.912        0.049      348.502       28.240      858.744
07/16/2013  17:48:00     -603.103      -72.741      -32.374      274.413      188.465      112.800    75302.555    35519.216    12723.803       24.678        6.177      607.474      127.537        0.044      348.494       28.228      858.757
07/16/2013  17:49:00     -458.780     -172.198      -12.750      293.425      214.944      109.690    86098.123    46200.709    12031.892       19.228        7.217      490.032      129.702        0.070      348.530       28.290      858.766
07/16/2013  17:50:00     -727.247      -87.287      -45.620      266.085      198.307      119.726    70801.063    39325.643    14334.291       33.150        6.223      732.466      139.618        0.036      348.392       28.050      858.776
07/16/2013  17:51:00     -325.252     -143.641       21.316      265.470      219.976      125.354    70474.070    48389.529    15713.514       13.070        6.729      355.558      139.651        0.154      348.456       28.161      858.773
07/16/2013  17:52:00     -229.848      -14.512       13.659      241.295      134.365       84.498    58223.183    18053.857     7139.856        6.831        4.171      230.306      102.541        0.198      348.624       28.454      858.775
07/16/2013  17:53:00     -617.056     -145.482      -27.121      280.743      223.311      109.303    78816.717    49867.925    11947.234       27.162        7.032      633.974      112.409        0.031      348.423       28.103      858.764
07/16/2013  17:54:00     -437.423     -185.955        4.978      283.724      254.152      120.565    80499.405    64593.083    14535.876       19.275        7.981      475.309      139.805        0.087      348.471       28.187      858.783
07/16/2013  17:55:00     -499.166     -215.222       -9.634      269.118      264.691      111.276    72424.648    70061.552    12382.384       22.519        7.743      543.587      123.003        0.051      348.380       28.030      858.759
07/16/2013  17:56:00     -400.233     -208.674      -13.437      180.028      195.813      108.825    32410.027    38342.835    11842.833       14.324        4.130      451.366       94.360        0.044      348.390       28.049      858.814
07/16/2013  17:57:00     -560.234     -174.424      -11.549      332.200      189.700       98.323   110356.857    35986.244     9667.317       25.018        7.801      586.759      122.282        0.043      348.298       27.889      858.796
07/16/2013  17:58:00     -404.585      -87.346      -13.691      213.084      183.262      101.442    45404.877    33584.801    10290.551       13.038        4.464      413.906      105.175        0.065      348.445       28.142      858.834
07/16/2013  17:59:00     -426.696     -235.754      -20.423      201.960      169.957      100.163    40787.936    28885.407    10032.559       15.887        3.985      487.493      111.732        0.053      348.413       28.089      858.815
07/16/2013  18:00:00     -427.709     -324.129      -15.497      276.772      211.298      114.182    76602.480    44646.946    13037.580       21.123        6.714      536.651      124.956        0.054      348.391       28.048      858.837
07/16/2013  18:01:00     -381.315     -142.156       -8.849      230.245      156.043       86.362    53012.866    24349.473     7458.414       12.524        4.241      406.951      110.065        0.073      348.424       28.107      858.802
07/16/2013  18:02:00     -333.722     -189.988       10.354      276.990      219.927      124.117    76723.289    48368.064    15405.097       14.401        7.025      384.013      139.051        0.131      348.474       28.192      858.827
07/16/2013  18:03:00     -353.545     -128.015        8.236      298.753      238.853      107.877    89253.327    57050.614    11637.485       14.966        7.897      376.008      129.774        0.119      348.524       28.281      858.848
07/16/2013  18:04:00     -617.970      -26.229      -39.185      239.594      259.551      101.210    57405.421    67366.650    10243.428       25.954        6.751      618.526       98.571        0.025      348.410       28.083      858.878
07/16/2013  18:05:00     -327.879     -128.554        5.762      155.911      179.026       99.151    24308.266    32050.270     9830.894        9.511        3.309      352.180      103.771        0.087      348.551       28.328      858.891
07/16/2013  18:06:00     -389.416     -154.930        0.899      204.562      198.802      100.515    41845.729    39522.071    10103.347       13.354        4.574      419.104      108.719        0.067      348.466       28.178      858.863
07/16/2013  18:07:00     -266.219      -73.701      -13.263      192.357      130.817       78.527    37001.359    17113.061     6166.553        6.837        3.014      276.233       86.991        0.099      348.488       28.218      858.885
07/16/2013  18:08:00     -212.159      -63.107        9.916      193.888      127.887       77.083    37592.437    16355.018     5941.851        5.448        2.994      221.345       75.517        0.116      348.552       28.329      858.904
07/16/2013  18:09:00     -318.912     -120.857       -3.847      231.524      191.531      111.119    53603.317    36684.240    12347.427       10.946        5.132      341.044      120.889        0.126      348.425       28.107      858.872
07/16/2013  18:10:00     -458.475      -86.045      -13.638      269.812      209.733      108.162    72798.621    43987.794    11699.007       17.311        6.424      466.480      128.196        0.076      348.358       27.990      858.909
07/16/2013  18:11:00     -339.818      -49.615       -0.485      194.167      148.864       87.349    37700.863    22160.481     7629.884        9.270        3.375      343.421       97.463        0.081      348.464       28.176      858.886
07/16/2013  18:12:00     -521.373     -203.088      -19.806      230.758      173.564       95.476    53249.199    30124.394     9115.578       20.296        4.624      559.530      104.189        0.035      348.291       27.875      858.870
07/16/2013  18:13:00     -539.336     -125.420      -18.010      241.830      163.198       98.378    58481.734    26633.636     9678.137       20.085        4.740      553.726      115.693        0.044      348.333       27.948      858.914
07/16/2013  18:14:00     -537.539     -139.859       -3.829      269.538      230.861      121.747    72650.930    53297.009    14822.240       22.462        7.039      555.436      137.106        0.061      348.265       27.830      858.918
07/16/2013  18:15:00     -406.899     -131.202        1.707      251.685      198.757      109.512    63345.137    39504.434    11992.889       14.879        5.742      427.529      128.075        0.090      348.297       27.886      858.922
07/16/2013  18:16:00     -365.136     -115.844        1.533      263.895      178.080      114.240    69640.541    31712.567    13050.687       13.055        5.720      383.072      124.624        0.106      348.308       27.906      858.923
07/16/2013  18:17:00     -343.765     -155.816      -18.885      273.878      195.636      121.018    75008.962    38273.456    14645.450       13.534        6.396      377.430      131.248        0.121      348.216       27.746      858.956
07/16/2013  18:18:00     -417.362     -250.622      -16.261      238.432      178.296      115.136    56850.057    31789.437    13256.400       16.956        5.095      486.829      126.900        0.068      348.167       27.661      858.958
07/16/2013  18:19:00     -386.895     -190.368        1.751      234.739      179.499       95.832    55102.606    32219.912     9183.805       14.120        4.825      431.194      117.772        0.075      348.252       27.809      858.983
07/16/2013  18:20:00     -437.037     -118.699      -13.121      240.124      156.337       95.914    57659.507    24441.282     9199.471       14.826        4.565      452.870      105.384        0.054      348.270       27.838      859.000
07/16/2013  18:21:00     -362.912      -38.645      -11.725      202.090      186.735       84.979    40840.229    34869.924     7221.375       10.812        4.147      364.964       99.952        0.075      348.307       27.904      859.000
07/16/2013  18:22:00     -407.775      -87.132       -8.889      256.610      212.041      103.819    65848.717    44961.256    10778.291       14.774        6.079      416.980       94.503        0.051      348.211       27.737      858.949
07/16/2013  18:23:00     -346.741      -90.681       -8.048      261.818      177.503      102.723    68548.839    31507.401    10552.069       11.954        5.530      358.403      124.520        0.121      348.243       27.793      858.985
07/16/2013  18:24:00     -303.988     -246.448       -2.984      223.333      177.445      121.294    49877.769    31486.710    14712.331       12.460        4.804      391.338      111.151        0.081      348.211       27.738      858.983
07/16/2013  18:25:00     -525.155     -209.776      -17.642      348.966      233.987      107.232   121777.063    54749.823    11498.647       25.403        9.401      565.503      137.325        0.059      348.140       27.615      858.988
07/16/2013  18:26:00     -304.726     -218.038        8.136      234.789      211.056      104.196    55125.994    44544.589    10856.898       12.547        5.526      374.697      120.177        0.103      348.169       27.666      859.019
07/16/2013  18:27:00     -323.774     -104.147        0.346      236.590      151.392       76.688    55975.062    22919.584     5881.041       10.021        4.239      340.112       91.131        0.072      348.227       27.766      859.021
07/16/2013  18:28:00     -395.867     -268.681       -7.100      262.927      168.027      102.702    69130.683    28233.230    10547.777       16.841        5.396      478.435      119.798        0.063      348.144       27.622      859.004
07/16/2013  18:29:00     -545.168     -132.350      -20.604      325.066      243.229      126.913   105667.818    59160.322    16106.923       24.801        9.047      561.003      162.443        0.084      348.086       27.521      858.994
07/16/2013  18:30:00     -550.190     -180.095      -18.122      294.218      194.251      117.053    86564.304    37733.400    13701.291       23.671        6.900      578.915      117.939        0.042      348.075       27.502      859.030
07/16/2013  18:31:00     -425.495     -184.208       -2.533      229.697      185.169       87.997    52760.938    34287.440     7743.436       15.487        4.740      463.658      108.740        0.055      348.126       27.591      859.044
07/16/2013  18:32:00     -465.625     -276.964      -10.972      224.440      260.108      118.258    50373.134    67656.189    13984.918       21.280        6.601      541.771      121.924        0.051      348.090       27.529      859.044
07/16/2013  18:33:00     -339.630     -253.634        0.352      225.002      206.777      101.975    50625.852    42756.695    10398.892       14.171        5.189      423.885      108.683        0.066      348.152       27.635      859.069
07/16/2013  18:34:00     -419.895     -128.064       -5.278      190.992      157.508      105.942    36478.040    24808.851    11223.687       13.261        3.626      438.990      115.001        0.069      348.062       27.480      859.054
07/16/2013  18:35:00     -404.531      -83.051      -16.855      245.854      203.912      107.917    60444.205    41580.127    11645.980       14.223        5.684      412.968      128.369        0.097      348.093       27.534      859.037
07/16/2013  18:36:00     -571.526     -166.661      -28.035      289.821      194.734      110.478    83995.954    37921.493    12205.304       24.464        6.706      595.330      114.776        0.037      348.027       27.418      859.061
07/16/2013  18:37:00     -462.891      -71.510      -20.038      231.115      204.565      108.899    53414.217    41847.024    11858.986       16.343        5.356      468.382      114.243        0.059      348.017       27.404      859.079
07/16/2013  18:38:00     -590.861     -101.147      -24.523      262.726      198.934      110.050    69024.834    39574.917    12110.917       24.031        6.036      599.456      129.078        0.046      347.920       27.235      859.109
07/16/2013  18:39:00     -626.226     -135.404      -21.014      282.406      224.301      118.492    79753.266    50310.865    14040.439       27.749        7.205      640.697      137.253        0.046      347.916       27.230      859.102
07/16/2013  18:40:00     -417.735     -233.555        6.577      264.189      249.234      126.483    69795.593    62117.609    15997.870       18.847        7.396      478.592      145.968        0.093      347.947       27.282      859.111
07/16/2013  18:41:00     -437.664      -46.137      -15.491      247.076      221.606       95.335    61046.687    49109.112     9088.766       15.656        5.962      440.089      112.699        0.066      347.940       27.271      859.166
07/16/2013  18:42:00     -297.335     -248.620       -0.041      202.096      210.581      116.389    40842.890    44344.487    13546.479       12.446        4.937      387.582      113.947        0.086      347.943       27.275      859.165
07/16/2013  18:43:00     -368.529     -251.357       -3.293      264.485      220.885      128.770    69952.358    48789.992    16581.664       16.714        6.766      446.087      152.404        0.117      347.910       27.217      859.168
07/16/2013  18:44:00     -350.450     -261.104      -17.997      207.226      199.022      110.171    42942.743    39609.873    12137.690       14.298        4.735      437.025      119.093        0.074      347.917       27.231      859.175
07/16/2013  18:45:00     -336.984     -204.387       -8.683      259.180      192.486      105.292    67174.521    37051.033    11086.326       13.534        5.766      394.122      110.035        0.078      347.921       27.236      859.204
07/16/2013  18:46:00     -324.959     -115.140      -11.487      201.103      138.971       82.918    40442.376    19312.929     6875.441        9.280        3.332      344.754       87.921        0.065      347.969       27.321      859.249
07/16/2013  18:47:00     -408.184      -69.918      -12.288      199.903      134.923       95.907    39961.044    18204.113     9198.153       11.949        3.368      414.129       99.877        0.058      347.960       27.305      859.284
07/16/2013  18:48:00     -326.021     -131.139       -9.080      171.989      131.798       73.840    29580.058    17370.830     5452.306        8.798        2.620      351.408       74.299        0.045      347.997       27.369      859.268
07/16/2013  18:49:00     -570.727     -157.924      -22.844      290.687      183.118       99.774    84498.936    33532.228     9954.805       23.956        6.399      592.173      118.291        0.040      347.873       27.153      859.255
07/16/2013  18:50:00     -465.454      -16.553      -37.712      259.801      178.541       97.567    67496.766    31876.927     9519.297       16.360        5.445      465.748      122.786        0.070      347.912       27.222      859.280
07/16/2013  18:51:00     -242.429      -60.879       23.296      259.949      146.100       98.489    67573.461    21345.186     9700.050        8.080        4.931      249.957      131.104        0.275      347.898       27.197      859.303
07/16/2013  18:52:00     -745.106      -73.841      -45.721      358.820      225.501      103.763   128752.097    50850.672    10766.764       37.651        9.518      748.756      133.046        0.032      347.812       27.050      859.346
07/16/2013  18:53:00     -361.021      -99.266        1.092      289.679      216.486       95.537    83913.787    46866.124     9127.266       14.002        6.995      374.419      128.618        0.118      347.883       27.170      859.329
07/16/2013  18:54:00     -353.822      -99.439       -2.520      242.855      178.179       91.532    58978.438    31747.808     8378.121       11.707        4.955      367.530      119.948        0.107      347.877       27.162      859.358
07/16/2013  18:55:00     -341.315      -94.366       -3.582      190.042      159.079       73.713    36115.777    25306.175     5433.641        9.612        3.343      354.120       84.078        0.056      347.886       27.178      859.370
07/16/2013  18:56:00     -586.613     -110.123      -45.011      260.387      162.694       85.018    67801.295    26469.207     7228.099       22.986        5.075      596.860       96.330        0.026      347.834       27.087      859.361
07/16/2013  18:57:00     -666.624     -190.603      -43.668      291.459      231.515      119.411    84948.258    53599.130    14258.910       31.768        7.640      693.337      137.502        0.039      347.682       26.825      859.392
07/16/2013  18:58:00     -401.263     -265.330        1.023      231.408      229.444      116.961    53549.807    52644.592    13679.872       17.562        5.994      481.053      132.609        0.076      347.691       26.840      859.386
07/16/2013  18:59:00     -538.561       14.368      -25.763      286.503      236.072      102.717    82083.846    55729.764    10550.856       21.961        7.418      538.753      112.139        0.043      347.760       26.959      859.425
07/16/2013  19:00:00     -515.320     -166.917      -20.069      262.843      227.756       91.371    69086.605    51872.849     8348.610       21.154        6.465      541.679      112.380        0.043      347.719       26.888      859.434
07/16/2013  19:01:00     -524.619     -115.618      -34.167      240.252      181.898      101.302    57720.884    33087.044    10262.193       19.540        5.054      537.208      124.897        0.054      347.711       26.873      859.486
07/16/2013  19:02:00     -231.394     -118.255        8.379      240.411      171.410       85.772    57797.618    29381.555     7356.856        8.105        4.727      259.861      106.576        0.168      347.752       26.946      859.486
07/16/2013  19:03:00     -659.948     -148.771      -47.613      336.227      219.822      117.160   113048.626    48321.550    13726.532       31.748        8.755      676.508      152.742        0.051      347.610       26.700      859.493
07/16/2013  19:04:00     -410.743     -189.216      -20.719      271.761      153.898      108.940    73854.025    23684.726    11867.876       15.715        5.470      452.231      137.077        0.092      347.663       26.792      859.500
07/16/2013  19:05:00     -640.351      -34.359      -20.360      245.587      178.210      106.911    60313.127    31758.938    11429.878       25.755        5.175      641.272       99.660        0.024      347.615       26.709      859.533
07/16/2013  19:06:00     -383.012      -78.683      -13.502      225.103      165.457       82.355    50671.564    27375.928     6782.298       11.893        4.241      391.011       95.824        0.060      347.655       26.779      859.542
07/16/2013  19:07:00     -416.518     -116.579      -11.407      276.293      166.248       97.088    76337.999    27638.513     9426.143       15.028        5.670      432.525      123.220        0.081      347.643       26.758      859.537
07/16/2013  19:08:00     -458.460      -31.839        4.423      276.250      185.325      104.658    76313.843    34345.195    10953.318       16.639        6.081      459.564      120.058        0.068      347.624       26.726      859.549
07/16/2013  19:09:00     -226.416      -67.522       16.104      157.012      171.482       84.111    24652.693    29406.156     7074.699        5.860        3.057      236.270       92.688        0.154      347.683       26.828      859.575
07/16/2013  19:10:00     -245.496     -159.987       13.983      163.433      129.141       92.254    26710.250    16677.368     8510.809        6.897        2.595      293.025       95.264        0.106      347.666       26.797      859.583
07/16/2013  19:11:00     -391.642     -206.892      -21.491      207.947      184.008       98.968    43241.787    33858.913     9794.717       14.176        4.345      442.931       98.478        0.049      347.593       26.671      859.621
07/16/2013  19:12:00     -592.619     -170.236      -26.050      273.436      191.207      103.138    74767.054    36559.950    10637.437       25.139        6.098      616.585      124.094        0.041      347.550       26.596      859.621
07/16/2013  19:13:00     -503.032     -147.896       -5.533      272.638      250.876      105.225    74331.471    62938.846    11072.323       21.161        7.417      524.323      121.103        0.053      347.511       26.529      859.652
07/16/2013  19:14:00     -470.007     -119.956      -30.874      246.798      210.783       96.448    60909.456    44429.600     9302.267       17.542        5.732      485.073      107.097        0.049      347.488       26.491      859.712
07/16/2013  19:15:00     -389.951      -45.021      -28.659      158.691      120.773       76.057    25182.901    14586.228     5784.632       10.022        2.278      392.541       75.880        0.037      347.527       26.556      859.738
07/16/2013  19:16:00     -517.138       21.658      -39.125      216.205      140.083       87.021    46744.781    19623.332     7572.681       17.167        3.697      517.591      102.784        0.039      347.506       26.520      859.716
07/16/2013  19:17:00     -375.787     -214.603      -14.787      243.160      177.097       97.907    59126.716    31363.330     9585.820       14.376        5.004      432.747      107.738        0.062      347.444       26.413      859.693
07/16/2013  19:18:00     -387.974     -125.126       -4.355      271.183      142.885       86.328    73540.192    20416.015     7452.549       13.378        5.070      407.652       87.900        0.046      347.444       26.413      859.690
07/16/2013  19:19:00     -813.963     -155.614      -33.269      305.086      252.745      116.698    93077.707    63879.860    13618.312       42.918        8.529      828.705      129.299        0.024      347.315       26.190      859.675
07/16/2013  19:20:00     -448.769      -33.199      -17.601      281.695      192.290      121.190    79351.922    36975.416    14686.929       16.688        6.551      449.995      143.318        0.101      347.362       26.272      859.710
07/16/2013  19:21:00     -485.840      -78.593      -32.623      241.917      167.182       85.582    58524.053    27949.718     7324.317       16.852        4.690      492.156       89.715        0.033      347.353       26.259      859.738
07/16/2013  19:22:00     -224.916      -29.794        3.844      194.908      141.790       78.688    37989.016    20104.268     6191.742        5.787        3.214      226.881       89.436        0.155      347.421       26.376      859.771
07/16/2013  19:23:00     -514.163      -69.672      -29.694      279.384      168.649       86.700    78055.306    28442.514     7516.928       19.203        5.701      518.862      108.898        0.044      347.354       26.259      859.734
07/16/2013  19:24:00     -413.218      -88.698      -18.694      180.785      168.353       70.809    32683.106    28342.759     5013.905       12.249        3.302      422.631       79.295        0.035      347.380       26.304      859.723
07/16/2013  19:25:00     -492.131      -47.485      -12.998      209.451      189.189       88.912    43869.735    35792.544     7905.321       16.607        4.378      494.416      102.686        0.043      347.361       26.271      859.730
07/16/2013  19:26:00     -550.979     -148.289      -20.399      301.789      196.758       93.651    91076.717    38713.631     8770.574       23.224        6.928      570.586      111.054        0.038      347.283       26.138      859.762
07/16/2013  19:27:00     -462.503     -155.261      -42.365      257.959      186.984      103.539    66543.033    34963.121    10720.327       17.600        5.611      487.868      104.009        0.045      347.317       26.194      859.781
07/16/2013  19:28:00     -401.654     -101.333      -12.910      205.408      185.596       93.036    42192.306    34445.833     8655.673       12.851        4.265      414.239      100.343        0.059      347.337       26.230      859.839
07/16/2013  19:29:00     -407.215      -79.652      -18.109      230.533      187.765       79.826    53145.466    35255.731     6372.187       13.362        4.739      414.932       79.699        0.037      347.294       26.154      859.855
07/16/2013  19:30:00     -161.788       -8.870       -3.686      143.200      115.217       62.704    20506.159    13275.032     3931.788        3.198        1.886      162.031       58.359        0.130      347.346       26.245      859.835
07/16/2013  19:31:00     -343.143      -94.285        2.304      252.231      181.304      119.469    63620.723    32871.089    14272.766       11.868        5.538      355.860      132.291        0.138      347.274       26.119      859.801
07/16/2013  19:32:00     -357.072        1.494      -15.713      234.160      121.418       90.599    54831.008    14742.400     8208.236       10.275        3.889      357.075       98.588        0.076      347.306       26.178      859.845
07/16/2013  19:33:00     -456.237      -80.902      -28.571      201.910      147.725       70.342    40767.552    21822.800     4948.047       14.151        3.377      463.354       83.208        0.032      347.240       26.064      859.883
07/16/2013  19:34:00     -466.880     -111.319      -16.682      249.992      152.732       99.141    62495.862    23327.098     9829.015       16.313        4.783      479.968       97.670        0.041      347.187       25.970      859.877
07/16/2013  19:35:00     -229.140      -56.386        6.674      151.744      125.914       76.078    23026.150    15854.343     5787.817        5.019        2.233      235.975       73.180        0.096      347.284       26.139      859.907
07/16/2013  19:36:00     -587.764      -83.553      -38.701      230.875      142.552       87.249    53303.231    20321.035     7612.364       21.758        4.062      593.673       97.859        0.027      347.151       25.908      859.932
07/16/2013  19:37:00     -438.774     -112.135      -30.981      191.988      178.298       97.182    36859.296    31790.049     9444.300       14.206        3.905      452.876       93.866        0.043      347.143       25.894      859.933
07/16/2013  19:38:00     -434.363     -116.842       -9.889      238.785      168.484       93.472    57018.100    28386.702     8736.975       14.826        4.707      449.803      114.642        0.065      347.118       25.850      859.944
07/16/2013  19:39:00     -591.648      -64.804      -26.663      215.701      179.725       85.287    46526.911    32300.983     7273.872       22.051        4.305      595.186       92.176        0.024      347.098       25.816      859.934
07/16/2013  19:40:00     -495.526     -174.628      -17.258      248.665      215.740      111.079    61834.103    46543.715    12338.479       19.850        6.036      525.397      131.162        0.062      347.113       25.842      859.958
07/16/2013  19:41:00     -248.800      -79.015       12.350      178.561      169.433       85.767    31884.170    28707.386     7356.005        6.811        3.397      261.045       92.337        0.125      347.150       25.908      859.974
07/16/2013  19:42:00     -473.481      -62.452      -22.500      202.567      145.344       77.643    41033.464    21124.911     6028.431       14.838        3.409      477.582       92.044        0.037      347.090       25.804      859.995
07/16/2013  19:43:00     -514.724     -158.537      -17.018      260.867      218.775       91.793    68051.596    47862.504     8426.026       20.733        6.217      538.586       98.630        0.034      347.045       25.726      859.983
07/16/2013  19:44:00     -505.947       -8.609      -26.878      220.882      174.924       99.569    48788.798    30598.443     9913.959       17.302        4.465      506.020      102.925        0.041      347.046       25.728      859.996
07/16/2013  19:45:00     -397.027      -84.506       -9.938      185.017      192.397       94.496    34231.412    37016.509     8929.493       12.251        4.009      405.921       93.853        0.053      347.040       25.718      859.999
07/16/2013  19:46:00     -549.694     -107.142      -22.545      192.476      149.976       86.308    37046.870    22492.694     7448.986       19.056        3.349      560.038       85.535        0.023      347.010       25.666      859.985
07/16/2013  19:47:00     -526.215     -114.319      -27.851      226.209      197.627       82.814    51170.354    39056.462     6858.147       19.390        4.854      538.490       87.187        0.026      347.001       25.650      860.011
07/16/2013  19:48:00     -587.963      -92.091      -31.047      244.248      181.897      109.057    59657.151    33086.414    11893.449       22.987        5.232      595.132      115.334        0.038      346.970       25.596      860.054
07/16/2013  19:49:00     -360.947      -85.247        9.049      208.582      140.177       91.713    43506.243    19649.597     8411.352       10.459        3.578      370.877      107.001        0.083      346.975       25.605      860.086
07/16/2013  19:50:00     -498.066      -82.705      -29.191      252.543      169.086       93.114    63777.980    28590.195     8670.295       17.838        5.052      504.886      111.122        0.048      346.965       25.588      860.101
07/16/2013  19:51:00     -552.539        4.521      -29.227      203.357      166.848       94.198    41353.927    27838.277     8873.338       19.210        3.903      552.558       94.561        0.029      346.924       25.517      860.129
07/16/2013  19:52:00     -566.152       11.731      -33.382      137.920      129.095       67.426    19021.836    16665.565     4546.263       18.100        2.012      566.273       58.127        0.011      346.905       25.483      860.146
07/16/2013  19:53:00     -434.578      -91.239      -15.794      241.473      154.563       95.180    58309.032    23889.618     9059.223       14.433        4.563      444.053      110.268        0.062      346.890       25.457      860.161
07/16/2013  19:54:00     -414.481       63.506      -21.472      210.231      111.188       74.784    44197.269    12362.780     5592.599       11.921        3.108      419.318       92.564        0.049      346.856       25.401      860.195
07/16/2013  19:55:00     -492.953       12.918      -37.792      188.691      155.887       88.882    35604.375    24300.710     7899.952       15.619        3.390      493.122       87.399        0.031      346.821       25.342      860.190
07/16/2013  19:56:00     -630.002      -86.843      -43.688      196.617      138.782       83.933    38658.314    19260.543     7044.779       23.565        3.248      635.960       97.485        0.023      346.795       25.297      860.206
07/16/2013  19:57:00     -436.656     -105.416       -1.673      183.624      157.600       83.490    33717.718    24837.704     6970.529       13.364        3.276      449.200       87.826        0.038      346.784       25.276      860.223
07/16/2013  19:58:00     -587.432     -185.591      -30.990      202.129      159.766       80.304    40856.258    25525.091     6448.778       22.664        3.642      616.052       79.172        0.017      346.769       25.252      860.253
07/16/2013  19:59:00     -381.498      -66.934       -8.907      157.178      105.055       79.329    24704.975    11036.617     6293.130        9.606        2.102      387.325       84.106        0.047      346.755       25.228      860.268
07/16/2013  20:00:00     -488.580      -80.079      -33.539      182.272      181.060       83.130    33222.938    32782.617     6910.559       15.957        3.646      495.099       91.562        0.034      346.730       25.182      860.247
07/16/2013  20:01:00     -495.258      -63.846      -26.165      237.721      125.119       71.559    56511.076    15654.854     5120.620       16.365        3.864      499.357       78.731        0.025      346.716       25.159      860.245
07/16/2013  20:02:00     -411.831      -84.403      -17.438      200.398      133.582       85.531    40159.282    17844.164     7315.505       12.116        3.266      420.391      102.126        0.059      346.663       25.070      860.239
07/16/2013  20:03:00     -423.815       17.521      -20.566      171.507      134.450       86.272    29414.774    18076.925     7442.829       11.763        2.747      424.177       87.684        0.043      346.646       25.038      860.254
07/16/2013  20:04:00     -573.857     -131.203      -37.048      156.830      174.694       86.970    24595.802    30518.066     7563.818       20.528        3.134      588.665       84.125        0.020      346.634       25.018      860.262
07/16/2013  20:05:00     -261.641      -54.137       -0.006      226.811      103.915       90.618    51443.192    10798.330     8211.664        7.091        3.523      267.183      107.905        0.163      346.619       24.995      860.257
07/16/2013  20:06:00     -442.310      -66.991      -13.615      217.681      131.100       76.251    47384.818    17187.099     5814.163       13.533        3.519      447.354       97.536        0.048      346.594       24.951      860.284
07/16/2013  20:07:00     -551.522      -17.191      -41.235      186.248      198.726       89.597    34688.438    39492.191     8027.541       19.417        4.110      551.790       85.131        0.024      346.591       24.947      860.281
07/16/2013  20:08:00     -532.605      -58.121      -31.015      198.652      148.258       78.216    39462.641    21980.314     6117.689       17.777        3.378      535.767       80.349        0.022      346.575       24.916      860.334
07/16/2013  20:09:00     -401.086      -56.106      -11.186      196.196       98.135       69.965    38493.011     9630.401     4895.091       10.857        2.651      404.991       78.772        0.038      346.572       24.912      860.334
07/16/2013  20:10:00     -246.769      -50.734       -1.116      147.053      135.992       61.907    21624.530    18493.884     3832.479        5.370        2.198      251.930       57.305        0.052      346.548       24.870      860.327
07/16/2013  20:11:00     -383.606     -104.168      -24.095      221.021      113.413       67.310    48850.123    12862.556     4530.602       11.240        3.312      397.498       88.555        0.050      346.548       24.872      860.330
07/16/2013  20:12:00     -406.138      -44.231      -13.504      224.009      189.634       91.478    50180.071    35961.236     8368.202       13.078        4.725      408.539      104.266        0.065      346.552       24.878      860.318
07/16/2013  20:13:00     -438.957      -10.028      -11.880      211.391      166.354       93.108    44686.338    27673.661     8669.073       13.696        4.051      439.071       98.937        0.051      346.506       24.800      860.340
07/16/2013  20:14:00     -527.413      -29.845      -24.882      207.498      190.780       91.640    43055.277    36396.944     8397.969       18.375        4.393      528.257       93.267        0.031      346.526       24.833      860.328
07/16/2013  20:15:00     -266.493      -62.677        5.639      173.399      152.305       86.209    30067.307    23196.950     7432.049        6.783        3.035      273.765       95.174        0.121      346.508       24.804      860.338
07/16/2013  20:16:00     -330.363      -62.361      -14.157      253.404      120.300       85.955    64213.736    14472.063     7388.268        9.963        4.304      336.198      111.978        0.111      346.513       24.812      860.373
07/16/2013  20:17:00     -215.556      -17.941       12.936      136.023      113.608       61.358    18502.170    12906.742     3764.823        4.106        1.759      216.301       71.360        0.109      346.494       24.781      860.410
07/16/2013  20:18:00     -314.816     -156.059       -7.789      127.562      136.961       64.696    16272.171    18758.370     4185.540        8.136        1.961      351.374       63.720        0.033      346.512       24.811      860.392
07/16/2013  20:19:00     -251.694      -74.584       -0.209      221.168      179.124      100.771    48915.358    32085.436    10154.807        8.002        4.558      262.512      115.677        0.194      346.507       24.802      860.388
07/16/2013  20:20:00     -511.140      -73.539      -36.666      182.944      177.160       92.958    33468.344    31385.663     8641.160       17.074        3.675      516.403       82.614        0.026      346.482       24.759      860.409
07/16/2013  20:21:00     -417.631     -124.596      -25.388      248.504      135.973       78.103    61754.485    18488.614     6100.044       13.845        4.317      435.821       89.376        0.042      346.495       24.782      860.406
07/16/2013  20:22:00     -396.458      -50.198      -16.664      171.535      129.169       76.414    29424.351    16684.685     5839.042       10.595        2.597      399.623       89.275        0.050      346.436       24.679      860.391
07/16/2013  20:23:00     -404.077     -188.311       -7.293      244.392      172.744       78.635    59727.212    29840.629     6183.410       14.725        4.788      445.802       93.146        0.044      346.433       24.673      860.410
07/16/2013  20:24:00     -546.336     -110.425      -21.272      237.588      184.943       99.961    56448.053    34204.065     9992.146       20.587        5.032      557.384      114.913        0.043      346.428       24.665      860.413
07/16/2013  20:25:00     -455.941     -152.419      -27.474      190.059      157.691       84.234    36122.534    24866.334     7095.304       14.996        3.404      480.743       90.603        0.036      346.427       24.662      860.422
07/16/2013  20:26:00     -214.200       -3.889        7.172      173.198      117.650       66.327    29997.517    13841.581     4399.217        4.708        2.412      214.236       68.702        0.103      346.409       24.632      860.389
07/16/2013  20:27:00     -348.759     -125.594       -5.303      227.906      132.419       92.938    51941.147    17534.865     8637.387       10.776        3.906      370.685      108.888        0.086      346.393       24.607      860.404
07/16/2013  20:28:00     -379.061     -124.258       -4.516      212.929      133.973       84.161    45338.616    17948.815     7083.051       11.475        3.519      398.907       89.518        0.050      346.373       24.569      860.431
07/16/2013  20:29:00     -374.243     -105.966      -13.205      172.589      136.230       71.498    29787.068    18558.652     5111.907       10.245        2.673      388.956       59.251        0.023      346.359       24.546      860.459
07/16/2013  20:30:00     -290.525      -63.022      -13.447      152.082      127.195       70.696    23128.815    16178.596     4997.914        6.642        2.215      297.282       68.517        0.053      346.354       24.537      860.474
07/16/2013  20:31:00     -220.129      -44.220       18.281      215.809      137.093       82.577    46573.643    18794.428     6818.936        6.145        3.609      224.527       98.478        0.192      346.326       24.491      860.497
07/16/2013  20:32:00     -389.541      -76.964      -27.917      193.033      150.913       79.460    37261.618    22774.696     6313.946       11.238        3.318      397.071       93.597        0.056      346.347       24.526      860.522
07/16/2013  20:33:00     -500.653      -35.407      -16.397      168.223      160.871       75.549    28299.076    25879.523     5707.609       15.602        2.994      501.904       77.740        0.024      346.286       24.421      860.545
07/16/2013  20:34:00     -387.142      -76.120      -13.032      251.071      118.060       81.116    63036.463    13938.151     6579.847       11.968        4.178      394.555      102.596        0.068      346.281       24.413      860.556
07/16/2013  20:35:00     -490.439     -119.588      -40.629      189.397      175.492       79.843    35871.141    30797.449     6374.853       16.475        3.652      504.808       74.511        0.022      346.281       24.411      860.560
07/16/2013  20:36:00     -536.354     -100.174      -22.617      216.360      142.848       73.255    46811.591    20405.509     5366.246       18.539        3.629      545.628       73.743        0.018      346.236       24.334      860.547
07/16/2013  20:37:00     -521.554     -137.178      -38.804      162.659      151.658       71.340    26458.072    23000.197     5089.427       17.343        2.727      539.292       67.229        0.016      346.201       24.275      860.564
07/16/2013  20:38:00     -457.177     -215.685       -2.000      220.873      160.148       95.549    48784.802    25647.361     9129.658       16.953        4.178      505.501      101.657        0.040      346.204       24.279      860.578
07/16/2013  20:39:00     -513.686     -171.923      -27.304      205.190      130.049       85.724    42103.030    16912.756     7348.549       18.026        3.318      541.692       90.109        0.028      346.204       24.277      860.585
07/16/2013  20:40:00     -422.781      -39.640      -33.969      151.163      118.931       70.623    22850.117    14144.479     4987.678       11.172        2.099      424.635       74.846        0.031      346.183       24.243      860.593
07/16/2013  20:41:00     -540.328      -91.371      -38.955      156.296      112.234       77.386    24428.457    12596.378     5988.564       17.241        2.151      547.999       87.269        0.025      346.134       24.158      860.573
07/16/2013  20:42:00     -342.401     -112.387       -8.454      171.534      106.557       64.026    29424.034    11354.466     4099.375        8.740        2.244      360.374       69.845        0.038      346.089       24.083      860.601
07/16/2013  20:43:00     -348.003      -82.494        0.801      223.925      130.504       74.667    50142.239    17031.216     5575.179       10.032        3.637      357.647       92.124        0.066      346.055       24.025      860.610
07/16/2013  20:44:00     -351.017     -104.368        4.538      170.227      106.722       68.385    28977.317    11389.617     4676.463        8.958        2.252      366.204       80.663        0.049      346.042       24.002      860.625
07/16/2013  20:45:00     -404.696      -54.739      -28.534      152.917      145.098       70.304    23383.491    21053.316     4942.632       10.847        2.469      408.381       65.059        0.025      346.043       24.003      860.637
07/16/2013  20:46:00     -392.279      -84.910      -28.630      190.253      162.049       82.458    36196.360    26259.749     6799.327       11.557        3.463      401.363       88.450        0.049      346.041       23.999      860.636
07/16/2013  20:47:00     -477.964      -93.081      -21.740      203.135      159.444       94.862    41263.640    25422.317     8998.771       15.662        3.784      486.943      113.274        0.054      346.027       23.976      860.626
07/16/2013  20:48:00     -428.871     -122.091      -25.084      279.552      166.989      105.146    78149.442    27885.419    11055.681       15.825        5.855      445.911      111.617        0.063      346.022       23.967      860.658
07/16/2013  20:49:00     -593.108      -47.799      -32.002      246.218      134.349       89.847    60623.185    18049.753     8072.433       22.090        4.337      595.031       93.011        0.024      346.014       23.954      860.717
07/16/2013  20:50:00     -478.167     -157.085       -8.363      175.561      157.195       81.159    30821.521    24710.368     6586.827       15.774        3.106      503.308       66.408        0.017      346.026       23.974      860.710
07/16/2013  20:51:00     -503.225     -201.983      -14.562      233.879      192.909       84.072    54699.462    37213.950     7068.072       19.659        4.949      542.248      102.494        0.036      346.008       23.942      860.697
07/16/2013  20:52:00     -500.416     -105.221      -27.895      232.964      203.896       86.318    54272.457    41573.475     7450.747       18.276        5.165      511.359      102.510        0.040      346.004       23.937      860.724
07/16/2013  20:53:00     -330.587     -108.261       -4.920      216.111      156.909       78.633    46704.081    24620.505     6183.071        9.925        3.875      347.863       86.119        0.061      346.018       23.961      860.778
07/16/2013  20:54:00     -438.093      -21.612      -35.573      188.298      181.968       98.962    35456.260    33112.281     9793.504       13.599        3.918      438.626       99.580        0.052      346.004       23.937      860.807
07/16/2013  20:55:00     -517.663      -80.339      -29.437      189.724      193.117       92.796    35995.079    37294.066     8611.096       17.858        4.095      523.860       97.223        0.034      345.940       23.827      860.793
07/16/2013  20:56:00     -345.823     -116.853        3.363      210.404      182.006      107.997    44269.883    33126.232    11663.351       11.114        4.453      365.032      121.812        0.111      345.905       23.766      860.777
07/16/2013  20:57:00     -288.351      -75.461      -25.101      227.043      154.210       84.487    51548.642    23780.750     7138.136        8.595        4.123      298.061       95.256        0.102      345.909       23.773      860.793
07/16/2013  20:58:00     -380.811      -96.483        6.243      249.423      123.325       82.391    62211.783    15208.954     6788.348       11.927        4.210      392.843       98.268        0.063      345.864       23.696      860.807
07/16/2013  20:59:00     -513.898      -93.708      -22.502      273.612      204.040       89.690    74863.337    41632.501     8044.318       19.893        6.227      522.372      116.371        0.050      345.893       23.746      860.788
07/16/2013  21:00:00     -619.255      -71.693      -39.399      223.892      218.005       96.955    50127.626    47526.239     9400.275       24.859        5.353      623.391       98.684        0.025      345.870       23.705      860.772
07/16/2013  21:01:00     -406.577      -37.105       -8.086      253.673      153.604       93.846    64349.975    23594.316     8807.107       13.173        4.838      408.266      116.711        0.082      345.834       23.646      860.811
07/16/2013  21:02:00     -547.592      -68.779      -24.026      181.623      187.798       77.667    32987.018    35268.237     6032.099       18.971        3.714      551.895       77.437        0.020      345.852       23.677      860.835
07/16/2013  21:03:00     -605.324      -32.155      -36.540      233.257      143.938       85.669    54408.902    20718.245     7339.154       22.561        4.123      606.178      108.101        0.032      345.839       23.653      860.849
07/16/2013  21:04:00     -339.066     -200.024      -15.785      200.033      144.773       77.876    40013.067    20959.105     6064.696       11.112        3.352      393.669       79.450        0.041      345.839       23.652      860.848
07/16/2013  21:05:00     -426.777     -118.943      -16.397      244.581      166.514       88.357    59819.757    27726.763     7807.038       14.594        4.768      443.042      101.870        0.053      345.821       23.622      860.827
07/16/2013  21:06:00     -448.800      -71.068      -30.086      161.448      151.377       79.151    26065.341    22915.131     6264.853       13.130        2.762      454.392       71.028        0.024      345.811       23.606      860.877
07/16/2013  21:07:00     -547.121       22.465      -29.933      222.737      136.698       87.180    49611.669    18686.253     7600.354       18.831        3.795      547.582      101.161        0.034      345.817       23.617      860.872
07/16/2013  21:08:00     -566.430     -148.809      -32.225      306.014      159.917      106.438    93644.424    25573.601    11329.044       23.726        6.527      585.651      135.810        0.054      345.821       23.623      860.869
07/16/2013  21:09:00     -487.270      -51.051      -38.396      220.221      153.994       84.746    48497.298    23714.224     7181.864       16.044        3.970      489.937       95.093        0.038      345.806       23.596      860.899
07/16/2013  21:10:00     -307.361      -74.298       -0.360      192.331      164.175       80.764    36991.348    26953.374     6522.855        8.522        3.523      316.214       96.892        0.094      345.766       23.530      860.932
07/16/2013  21:11:00     -241.940     -120.491        1.924      172.013      119.070       72.799    29588.543    14177.628     5299.741        6.105        2.453      270.283       86.357        0.102      345.804       23.594      860.969
07/16/2013  21:12:00     -205.281      -40.605       -4.638      136.893       94.250       62.255    18739.678     8883.152     3875.736        3.765        1.575      209.259       55.818        0.071      345.798       23.584      860.936
07/16/2013  21:13:00     -409.831      -11.165      -17.922      171.535      157.324       96.799    29424.141    24750.933     9370.080       11.596        3.177      409.983       64.990        0.025      345.797       23.581      860.910
07/16/2013  21:14:00     -482.331     -108.226       -9.392      233.581      235.167      109.113    54560.154    55303.529    11905.666       18.308        6.088      494.324      111.472        0.051      345.774       23.542      860.921
07/16/2013  21:15:00     -172.668     -112.775        9.751      194.808      166.222       83.445    37950.323    27629.665     6962.989        5.757        3.627      206.233       90.982        0.195      345.755       23.511      860.981
07/16/2013  21:16:00     -219.558      -79.041        3.256      150.795      130.533       79.121    22739.168    17038.824     6260.153        5.024        2.302      233.352       79.072        0.115      345.786       23.564      861.044
07/16/2013  21:17:00     -356.280      -70.113       -6.163      266.169      195.809       81.111    70846.104    38341.059     6579.013       12.380        5.788      363.114      104.941        0.084      345.774       23.542      861.052
07/16/2013  21:18:00     -370.694      -98.153       -7.296      247.343      143.725       91.269    61178.701    20656.944     8330.107       11.862        4.508      383.469      100.433        0.069      345.791       23.571      861.095
07/16/2013  21:19:00     -236.142      -72.559      -19.445      202.384      105.371       75.282    40959.255    11103.027     5667.404        5.956        2.886      247.038       95.606        0.150      345.787       23.565      861.100
07/16/2013  21:20:00     -290.468     -126.084        7.694      234.370      159.247       90.013    54929.129    25359.740     8102.356        9.434        4.420      316.653      116.166        0.135      345.732       23.470      861.091
07/16/2013  21:21:00     -420.621     -156.442       -9.013      215.845      197.938       94.769    46588.872    39179.582     8981.110       14.809        4.737      448.772      103.470        0.053      345.732       23.471      861.068
07/16/2013  21:22:00     -454.900     -148.304      -10.294      218.873      193.430      102.657    47905.220    37415.089    10538.482       16.243        4.793      478.465      108.582        0.052      345.696       23.409      861.116
07/16/2013  21:23:00     -647.624     -162.546      -50.705      220.756      231.684      103.720    48733.415    53677.361    10757.899       28.077        5.658      667.711       93.604        0.020      345.707       23.427      861.156
07/16/2013  21:24:00     -541.548     -141.435      -15.596      288.072      170.435       95.028    82985.346    29048.040     9030.306       21.727        6.053      559.713      110.437        0.039      345.699       23.415      861.197
07/16/2013  21:25:00     -392.242     -177.243       -3.547      245.209      215.141      118.994    60127.553    46285.456    14159.683       15.290        6.029      430.428      118.440        0.076      345.684       23.387      861.204
07/16/2013  21:26:00     -461.653      -57.720      -24.139      207.019      209.777       90.635    42856.662    44006.371     8214.634       15.604        4.754      465.248       97.782        0.044      345.641       23.312      861.227
07/16/2013  21:27:00     -336.657     -138.023       -0.739      240.848      173.434       82.517    58007.785    30079.389     6809.018       11.362        4.745      363.852       95.530        0.069      345.625       23.287      861.245
07/16/2013  21:28:00     -420.546      -94.485       -5.101      274.501      165.227      102.720    75350.692    27300.014    10551.407       14.948        5.660      431.030      110.366        0.066      345.637       23.306      861.287
07/16/2013  21:29:00     -364.338      -69.794      -13.143      207.202      178.197       91.446    42932.623    31754.175     8362.280       11.040        4.152      370.963      101.409        0.075      345.641       23.312      861.324
07/16/2013  21:30:00     -416.494      -23.976       -7.607      253.860      151.456       86.420    64444.716    22939.047     7468.417       13.446        4.743      417.184       90.860        0.047      345.614       23.266      861.321
07/16/2013  21:31:00     -478.886     -153.291      -27.839      224.846      180.456       93.062    50555.881    32564.249     8660.569       17.267        4.589      502.822       98.150        0.038      345.607       23.254      861.348
07/16/2013  21:32:00     -382.643      -33.068      -16.164      270.251      169.354       90.864    73035.430    28680.623     8256.226       12.885        5.499      384.069      106.732        0.077      345.581       23.209      861.305
07/16/2013  21:33:00     -601.335      -34.913      -48.674      249.150      177.966       93.095    62075.896    31672.020     8666.635       23.378        5.121      602.347      104.721        0.030      345.587       23.221      861.371
07/16/2013  21:34:00     -301.804      -41.461      -14.742      197.528      118.607       82.680    39017.429    14067.527     6836.054        7.646        2.996      304.639       84.521        0.077      345.535       23.133      861.432
07/16/2013  21:35:00     -358.587      -12.365      -27.596      191.408      120.552       74.575    36637.187    14532.814     5561.446        9.310        2.837      358.800       80.426        0.050      345.569       23.188      861.424
07/16/2013  21:36:00     -497.123      -37.093      -35.742      198.271      130.889       77.014    39311.549    17131.913     5931.155       15.607        3.119      498.505       87.166        0.031      345.522       23.106      861.448
07/16/2013  21:37:00     -598.163      -80.919      -29.025      294.767      189.375      104.522    86887.593    35862.989    10924.939       24.941        6.684      603.611      136.512        0.051      345.486       23.047      861.418
07/16/2013  21:38:00     -319.424      -82.109        2.012      213.716      167.622       90.094    45674.343    28097.274     8116.961        9.532        4.094      329.808       89.166        0.073      345.521       23.107      861.435
07/16/2013  21:39:00     -387.956     -117.343       -5.097      231.272      208.528      109.058    53486.757    43484.053    11893.589       13.656        5.443      405.314      116.554        0.083      345.478       23.032      861.467
07/16/2013  21:40:00     -523.705      -99.541      -16.724      206.601      175.998       94.183    42683.809    30975.262     8870.488       18.348        4.126      533.081      108.041        0.041      345.480       23.037      861.484
07/16/2013  21:41:00     -390.310      -28.873       -9.919      173.608      158.950       85.673    30139.690    25265.147     7339.789       10.800        3.137      391.377       82.451        0.044      345.476       23.029      861.522
07/16/2013  21:42:00     -377.135      -36.819      -24.961      146.084      113.175       72.007    21340.413    12808.545     5185.021        9.176        1.967      378.928       74.230        0.038      345.478       23.033      861.525
07/16/2013  21:43:00     -509.678     -129.044      -14.113      218.166      216.694      100.298    47596.187    46956.460    10059.779       19.060        5.231      525.760      111.902        0.045      345.456       22.994      861.522
07/16/2013  21:44:00     -552.749     -118.098      -32.707      175.593      149.109       77.312    30832.925    22233.505     5977.206       18.978        2.952      565.225       75.849        0.018      345.456       22.994      861.517
07/16/2013  21:45:00     -545.264      -33.349      -40.423      237.291      180.995       98.129    56306.910    32759.072     9629.368       19.936        4.935      546.283      113.238        0.043      345.450       22.983      861.514
07/16/2013  21:46:00     -428.731     -150.878      -45.182      266.698      167.967      100.788    71127.784    28212.883    10158.157       15.904        5.475      454.505      121.716        0.072      345.437       22.963      861.525
07/16/2013  21:47:00     -339.313     -122.234      -14.342      189.276      129.220       84.073    35825.486    16697.890     7068.270        9.492        2.980      360.658       92.419        0.066      345.413       22.921      861.537
07/16/2013  21:48:00     -590.041      -81.715      -34.170      222.877      166.183      102.259    49674.111    27616.698    10456.896       22.185        4.387      595.673      112.389        0.036      345.403       22.904      861.578
07/16/2013  21:49:00     -408.437     -113.905       -5.184      260.383      210.818       87.080    67799.137    44444.247     7582.898       14.980        5.991      424.022       88.081        0.043      345.435       22.960      861.568
07/16/2013  21:50:00     -289.267      -71.723       27.878      257.764      194.533      120.038    66442.328    37843.257    14409.223       10.412        5.935      298.027      142.542        0.229      345.395       22.891      861.579
07/16/2013  21:51:00     -371.323      -65.640        1.953      218.728      152.026       91.624    47842.137    23111.845     8394.870       11.076        3.967      377.080      110.808        0.086      345.375       22.856      861.606
07/16/2013  21:52:00     -456.991      -17.940      -20.288      113.861      129.338       72.158    12964.226    16728.246     5206.742       12.223        1.745      457.343       59.671        0.017      345.384       22.872      861.624
07/16/2013  21:53:00     -414.785       -4.616      -38.900      170.618      131.498       77.491    29110.521    17291.750     6004.895       11.298        2.620      414.811       77.219        0.035      345.367       22.843      861.614
07/16/2013  21:54:00     -410.667      -59.542      -33.053      169.885      136.738       88.086    28860.965    18697.161     7759.148       11.429        2.766      414.961       94.206        0.052      345.350       22.813      861.639
07/16/2013  21:55:00     -238.597      -38.196        1.389      142.399      150.946       72.648    20277.611    22784.825     5277.693        5.336        2.417      241.635       66.046        0.075      345.293       22.717      861.662
07/16/2013  21:56:00     -266.885     -104.969       14.412      192.245      114.746       84.655    36958.309    13166.758     7166.545        6.986        2.865      286.786      104.706        0.133      345.298       22.726      861.659
07/16/2013  21:57:00     -376.465     -219.236      -14.264      225.848      178.121       84.175    51007.130    31726.968     7085.351       13.989        4.491      435.649       92.675        0.045      345.291       22.713      861.655
07/16/2013  21:58:00     -388.946     -109.968      -15.784      208.370      132.954       72.841    43417.859    17676.679     5305.773       11.500        3.320      404.193       89.722        0.049      345.243       22.630      861.694
07/16/2013  21:59:00     -298.338     -161.212       -7.797      179.148      165.049       88.247    32094.000    27241.227     7787.570        9.108        3.356      339.109       89.400        0.070      345.274       22.683      861.698
07/16/2013  22:00:00     -462.133      -74.056      -27.066      226.830      192.862       89.545    51452.053    37195.837     8018.219       15.821        4.833      468.029       96.283        0.042      345.279       22.691      861.691
07/16/2013  22:01:00     -430.040     -145.940       -9.736      163.168      162.964       92.675    26623.734    26557.178     8588.703       13.404        3.088      454.128       96.677        0.045      345.244       22.632      861.701
07/16/2013  22:02:00     -512.434     -110.395      -36.191      180.729      135.677       80.981    32663.007    18408.159     6557.958       16.685        2.881      524.190       80.382        0.024      345.237       22.622      861.735
07/16/2013  22:03:00     -370.843      -14.522       -0.673      184.613      143.890       78.834    34081.895    20704.457     6214.757        9.936        3.050      371.127       86.334        0.054      345.211       22.576      861.711
07/16/2013  22:04:00     -437.279      -86.137      -25.407      213.997      190.258       95.905    45794.504    36198.097     9197.728       14.522        4.560      445.682       96.203        0.047      345.240       22.627      861.706
07/16/2013  22:05:00     -481.943      -94.906      -37.131      212.011      167.269       75.451    44948.818    27978.803     5692.863       16.062        3.931      491.199       82.625        0.028      345.223       22.595      861.724
07/16/2013  22:06:00     -493.189      -27.125      -31.487      200.892      172.358       88.765    40357.774    29707.166     7879.200       16.144        3.897      493.934       95.647        0.037      345.254       22.650      861.742
07/16/2013  22:07:00     -232.187      -77.715        7.815      140.665      109.486       67.055    19786.642    11987.252     4496.318        4.813        1.814      244.848       72.083        0.087      345.207       22.570      861.770
07/16/2013  22:08:00     -184.955       -7.577       -0.187      144.913      122.816       71.997    20999.870    15083.691     5183.568        3.776        2.063      185.110       61.324        0.110      345.210       22.576      861.780
07/16/2013  22:09:00     -289.558      -22.445        5.478      250.577      130.692       81.616    62788.952    17080.489     6661.174        8.544        4.327      290.427       98.537        0.115      345.195       22.548      861.764
07/16/2013  22:10:00     -476.395      -32.588      -20.883      241.698      124.836       89.987    58418.022    15583.923     8097.698       15.526        4.105      477.508      112.352        0.055      345.178       22.518      861.751
07/16/2013  22:11:00     -401.916      -82.744      -25.538      151.813      142.317       61.495    23047.272    20254.147     3781.607       10.805        2.354      410.345       48.338        0.014      345.226       22.601      861.810
07/16/2013  22:12:00     -516.239        2.967      -30.038      226.197      185.712       92.455    51165.083    34488.774     8547.991       18.079        4.710      516.248      101.893        0.039      345.231       22.610      861.799
07/16/2013  22:13:00     -362.729      -85.854        0.662      173.730      128.979       78.650    30182.074    16635.476     6185.791        9.596        2.650      372.751       78.813        0.045      345.212       22.576      861.781
07/16/2013  22:14:00     -510.928      -49.172      -38.761      231.208      193.231       86.977    53457.341    37338.271     7564.912       18.164        4.918      513.289       96.033        0.035      345.222       22.595      861.800
07/16/2013  22:15:00     -355.768      -58.283       -6.863      196.123      144.565       76.828    38464.220    20898.931     5902.604        9.763        3.263      360.510       99.640        0.076      345.214       22.581      861.813
07/16/2013  22:16:00     -467.871     -142.439       -5.752      209.581      147.978       78.393    43924.246    21897.423     6145.500       15.558        3.598      489.073       71.728        0.022      345.194       22.546      861.816
07/16/2013  22:17:00     -517.969     -112.765      -19.173      263.658      178.171       93.583    69515.512    31744.951     8757.768       19.568        5.501      530.102      118.156        0.050      345.218       22.588      861.823
07/16/2013  22:18:00     -406.375       -0.029      -20.314      189.018      185.808       87.744    35727.944    34524.652     7698.975       12.174        3.898      406.375       91.713        0.051      345.216       22.584      861.870
07/16/2013  22:19:00     -527.239      -97.185      -27.335      185.831      160.951       86.525    34533.232    25905.211     7486.606       17.804        3.396      536.121       78.320        0.021      345.228       22.605      861.875
07/16/2013  22:20:00     -346.798      -83.065      -14.402      165.831      108.104       67.924    27499.882    11686.556     4613.679        8.558        2.190      356.607       75.074        0.044      345.163       22.494      861.890
07/16/2013  22:21:00     -403.257     -101.645      -17.216      219.784      147.111       96.412    48304.806    21641.734     9295.291       12.623        3.962      415.870      106.216        0.065      345.148       22.469      861.883
07/16/2013  22:22:00     -430.513      -99.928      -20.527      179.216      121.350       79.488    32118.218    14725.879     6318.321       12.444        2.658      441.958       80.159        0.033      345.139       22.452      861.915
07/16/2013  22:23:00     -433.335       36.453      -30.140      153.130      160.294       80.554    23448.666    25694.102     6488.916       12.281        2.782      434.865       73.270        0.028      345.162       22.490      861.915
07/16/2013  22:24:00     -283.065      -76.957       -3.395      167.327      135.157       86.523    27998.335    18267.282     7486.227        6.989        2.688      293.339       91.347        0.097      345.098       22.382      861.889
07/16/2013  22:25:00     -350.991      -31.850       -7.338      194.938      127.047       70.953    38000.960    16140.860     5034.391        9.171        2.959      352.433       81.843        0.054      345.092       22.372      861.865
07/16/2013  22:26:00     -329.675     -101.957      -11.767      230.045      157.750       93.285    52920.671    24885.037     8702.033       10.285        4.325      345.080      117.417        0.116      345.128       22.434      861.871
07/16/2013  22:27:00     -358.062      -84.339      -15.033      207.586      149.863       71.654    43091.819    22458.862     5134.268       10.310        3.534      367.860       87.279        0.056      345.104       22.395      861.870
07/16/2013  22:28:00     -444.636      -78.345      -10.262      229.301      178.261       88.604    52578.989    31777.033     7850.672       14.806        4.610      451.485       92.810        0.042      345.159       22.487      861.876
07/16/2013  22:29:00     -354.053      -38.996       -5.458      202.361      131.499       76.497    40949.795    17292.078     5851.829        9.549        3.205      356.194       83.486        0.055      345.141       22.456      861.884
07/16/2013  22:30:00     -316.486     -128.380      -10.202      213.957      132.359       81.404    45777.491    17518.791     6626.660        9.332        3.496      341.533      104.933        0.094      345.150       22.473      861.883
07/16/2013  22:31:00     -350.146     -126.160      -12.472      127.860      162.676       71.892    16348.241    26463.439     5168.500        9.332        2.399      372.181       71.419        0.037      345.148       22.467      861.860
07/16/2013  22:32:00     -473.789     -120.092      -54.646      216.576      156.560       91.115    46905.345    24510.968     8302.009       16.079        3.986      488.772       83.120        0.029      345.177       22.517      861.844
07/16/2013  22:33:00     -625.302      -96.253      -26.299      250.850      165.248       93.019    62925.567    27307.018     8652.612       24.990        4.944      632.667      121.952        0.037      345.161       22.490      861.838
07/16/2013  22:34:00     -380.700     -141.744       -2.006      182.253      133.364       76.439    33216.252    17786.089     5842.889       11.093        2.842      406.231       82.040        0.041      345.154       22.479      861.868
07/16/2013  22:35:00     -308.014      -44.583      -31.267      143.521      111.088       63.164    20598.286    12340.523     3989.722        6.738        1.846      311.224       59.311        0.036      345.134       22.443      861.893
07/16/2013  22:36:00     -299.918      -85.261        6.823      187.372      115.677       73.769    35108.290    13381.145     5441.870        7.559        2.697      311.801       92.116        0.087      345.151       22.474      861.898
07/16/2013  22:37:00     -517.678     -106.075       -9.418      161.475      132.583       82.714    26074.263    17578.318     6841.640       16.490        2.525      528.434       83.509        0.025      345.155       22.480      861.907
07/16/2013  22:38:00     -380.746       10.783      -32.584      132.350      112.240       60.499    17516.579    12597.899     3660.157        8.995        1.689      380.899       51.170        0.018      345.161       22.489      861.921
07/16/2013  22:39:00     -361.743     -109.666       -1.443      121.052      121.775       62.722    14653.701    14829.057     3934.101        8.815        1.671      378.001       53.094        0.020      345.120       22.419      861.922
07/16/2013  22:40:00     -422.751        6.660      -42.529      140.362      138.401       67.411    19701.532    19154.884     4544.292       11.198        2.170      422.804       58.043        0.019      345.125       22.428      861.895
07/16/2013  22:41:00     -350.331      -71.424       -8.785      171.359      132.647       65.096    29363.899    17595.332     4237.502        8.954        2.560      357.538       59.392        0.028      345.121       22.421      861.899
07/16/2013  22:42:00     -540.785        7.355      -38.223      213.385      145.091       82.754    45533.257    21051.539     6848.211       18.368        3.672      540.835       89.265        0.027      345.148       22.469      861.912
07/16/2013  22:43:00     -262.407     -119.453        2.258      166.594      132.488       88.094    27753.483    17553.065     7760.607        6.809        2.653      288.317       86.466        0.090      345.129       22.435      861.930
07/16/2013  22:44:00     -199.003      -69.009        9.912      108.732      112.080       65.733    11822.750    12561.883     4320.878        3.658        1.435      210.628       58.252        0.076      345.129       22.436      861.923
07/16/2013  22:45:00     -199.846     -140.842        4.916      164.983      181.231       99.317    27219.296    32844.709     9863.928        6.485        3.496      244.489      109.178        0.199      345.125       22.430      861.916
07/16/2013  22:46:00     -278.320      -63.155       -1.726      222.621      135.610       81.603    49560.108    18390.010     6659.026        7.802        3.730      285.395      104.328        0.134      345.097       22.381      861.939
07/16/2013  22:47:00     -440.218      -50.794      -26.166      178.368      137.501       74.876    31815.312    18906.487     5606.341       12.668        2.816      443.138       77.871        0.031      345.122       22.423      861.947
07/16/2013  22:48:00     -364.014     -112.412      -29.866      149.546      132.324       77.757    22363.915    17509.759     6046.197        9.597        2.296      380.975       80.537        0.045      345.135       22.445      861.970
07/16/2013  22:49:00     -200.804      -36.364       15.936      224.087      110.170       81.058    50214.911    12137.460     6570.392        5.540        3.446      204.070      103.660        0.258      345.118       22.418      861.974
07/16/2013  22:50:00     -232.682      -35.776        0.585      156.658      126.200       76.398    24541.683    15926.549     5836.729        5.085        2.315      235.416       62.171        0.070      345.119       22.419      861.995
07/16/2013  22:51:00     -374.356      -79.476      -26.457      204.078      124.919       74.265    41648.005    15604.723     5515.327       10.495        3.138      382.700       85.951        0.050      345.136       22.449      862.013
07/16/2013  22:52:00     -119.538     -117.833        9.164      125.247      128.183       68.867    15686.784    16430.801     4742.712        3.255        1.843      167.851       77.676        0.214      345.095       22.378      862.003
07/16/2013  22:53:00     -150.919      -56.838       -1.872      118.302      104.911       62.683    13995.318    11006.278     3929.103        2.746        1.447      161.267       56.528        0.123      345.072       22.340      861.992
07/16/2013  22:54:00     -284.655     -131.620       -7.153      227.036      120.523       75.724    51545.154    14525.745     5734.120        8.509        3.590      313.612       90.159        0.083      345.117       22.414      861.997
07/16/2013  22:55:00     -146.364      -22.230        7.073       98.070      114.866       60.705     9617.793    13194.206     3685.057        2.423        1.325      148.043       55.569        0.141      345.107       22.399      862.007
07/16/2013  22:56:00     -211.306      -48.353       -8.690      159.547       93.898       55.815    25455.105     8816.757     3115.303        4.222        1.869      216.768       64.185        0.088      345.094       22.377      862.023
07/16/2013  22:57:00     -124.578      -54.599       -1.014       86.660       81.890       35.886     7509.978     6706.051     1287.821        1.700        0.775      136.018       24.917        0.034      345.061       22.322      862.017
07/16/2013  22:58:00     -138.022     -109.046       21.196      151.793       98.142       71.227    23041.264     9631.898     5073.282        3.456        1.887      175.901       81.811        0.216      345.025       22.259      862.022
07/16/2013  22:59:00     -274.045     -161.836      -11.852      158.796      131.584       77.681    25216.186    17314.234     6034.357        7.499        2.428      318.264       73.002        0.053      345.034       22.275      862.034
07/16/2013  23:00:00     -119.071      -77.309        9.294      113.991       97.081       56.874    12994.000     9424.761     3234.682        2.294        1.283      141.967       57.191        0.162      345.023       22.255      862.058
07/16/2013  23:01:00     -151.439      -92.755       16.943      146.376      117.020       63.667    21425.862    13693.592     4053.438        3.549        1.959      177.587       72.742        0.168      344.998       22.214      862.073
07/16/2013  23:02:00     -129.256      -74.620        7.303      130.136       86.316       54.386    16935.277     7450.418     2957.856        2.483        1.367      149.249       68.080        0.208      344.994       22.205      862.108
07/16/2013  23:03:00     -156.323      -96.057        3.186      112.126      114.478       51.291    12572.312    13105.176     2630.750        3.099        1.415      183.478       58.296        0.101      344.968       22.162      862.122
07/16/2013  23:04:00     -103.330     -136.312       33.549      157.351      124.741       80.346    24759.309    15560.382     6455.487        3.857        2.339      171.050       95.212        0.310      344.984       22.188      862.120
07/16/2013  23:05:00     -181.346     -101.120        8.602      199.857      128.754       71.181    39942.932    16577.509     5066.777        5.237        3.079      207.634       98.819        0.227      345.007       22.227      862.118
07/16/2013  23:06:00     -160.127     -115.445       11.697      167.480      131.482       80.390    28049.406    17287.579     6462.591        4.544        2.590      197.404       95.208        0.233      345.031       22.270      862.126
07/16/2013  23:07:00     -138.327      -65.942       10.824      101.356       85.936       57.915    10272.984     7385.037     3354.165        2.230        1.051      153.241       58.914        0.148      344.969       22.163      862.150
07/16/2013  23:08:00     -338.594     -105.177      -30.147      172.401      116.130       72.533    29722.035    13486.091     5261.039        8.753        2.423      354.553       87.261        0.061      345.032       22.271      862.176
07/16/2013  23:09:00     -224.875      -72.434       -6.690       90.066      116.110       62.142     8111.831    13481.438     3861.610        4.065        1.273      236.253       47.991        0.041      345.023       22.254      862.166
07/16/2013  23:10:00     -126.934     -106.284       29.130      137.608      109.769       77.578    18935.840    12049.327     6018.334        3.262        1.850      165.555       89.639        0.293      344.991       22.200      862.167
07/16/2013  23:11:00     -109.512      -78.193        0.181       67.945       84.973       32.602     4616.500     7220.437     1062.869        1.550        0.645      134.563       31.281        0.054      344.995       22.209      862.171
07/16/2013  23:12:00     -122.799      -95.159        4.712      116.817       86.550       48.897    13646.119     7490.977     2390.944        2.384        1.176      155.354       51.352        0.109      344.983       22.187      862.184
07/16/2013  23:13:00      -52.866      -18.420       17.063       98.730       64.617       42.207     9747.667     4175.302     1781.421        0.956        0.785       55.983       39.136        0.489      344.903       22.051      862.216
07/16/2013  23:14:00     -127.953      -32.950       -9.897       83.786       70.113       40.308     7020.175     4915.869     1624.767        1.556        0.678      132.128       36.276        0.075      344.986       22.193      862.253
07/16/2013  23:15:00     -133.669      -40.270        0.191       97.002       86.708       42.453     9409.424     7518.193     1802.278        1.911        0.936      139.603       40.014        0.082      344.920       22.080      862.264
07/16/2013  23:16:00      -84.689      -98.671        6.965      109.825       66.739       45.920    12061.481     4454.161     2108.625        1.779        0.931      130.032       52.178        0.161      344.973       22.171      862.285
07/16/2013  23:17:00      -73.219      -33.744       -4.074       55.135       70.635       26.607     3039.888     4989.353      707.953        0.762        0.437       80.620       31.076        0.149      344.939       22.114      862.287
07/16/2013  23:18:00      -28.483      -90.879       11.355       48.310       30.229       26.925     2333.861      913.800      724.938        0.659        0.199       95.238       28.315        0.088      344.968       22.163      862.294
07/16/2013  23:19:00        0.669      -38.788       11.887       45.049       88.316       26.483     2029.408     7799.766      701.375        0.609        0.527       38.794       31.360        0.653      344.981       22.186      862.314
07/16/2013  23:20:00      -15.168     -118.039        6.997       80.335       95.997       38.610     6453.701     9215.517     1490.769        1.568        0.858      119.010       16.708        0.020      344.997       22.212      862.324
07/16/2013  23:21:00      -56.131       37.625       11.238       43.724       64.425       40.242     1911.753     4150.631     1619.452        0.619        0.384       67.575       31.884        0.223      344.974       22.174      862.341
07/16/2013  23:22:00      -66.387     -107.591        7.581       78.181       74.396       35.729     6112.247     5534.832     1276.563        1.448        0.646      126.424       22.394        0.031      344.976       22.175      862.379
07/16/2013  23:23:00     -111.583     -169.407       10.952      119.874       98.711       68.510    14369.762     9743.899     4693.662        3.503        1.440      202.853       59.441        0.086      345.024       22.257      862.383
07/16/2013  23:24:00      -27.619      -56.505       14.379       67.680       42.393       34.894     4580.637     1797.187     1217.575        0.588        0.380       62.894       40.621        0.417      344.947       22.128      862.406
07/16/2013  23:25:00      -75.138      -90.543       -7.442       54.989       69.008       41.192     3023.805     4762.142     1696.772        1.169        0.474      117.660       30.403        0.067      344.955       22.140      862.435
07/16/2013  23:26:00       15.144      -92.677        7.353       77.615       59.027       43.020     6024.053     3484.151     1850.749        1.011        0.568       93.906       29.800        0.101      344.921       22.083      862.442
07/16/2013  23:27:00      -46.277     -135.788        6.587       97.154       59.459       46.244     9438.993     3535.338     2138.506        1.787        0.756      143.457       12.702        0.008      344.938       22.112      862.461
07/16/2013  23:28:00      -68.997     -160.423      -10.041       62.920       70.414       35.199     3958.963     4958.084     1238.938        2.037        0.508      174.632       19.496        0.012      344.896       22.040      862.454
07/16/2013  23:29:00       -8.577     -151.857        4.445       82.671       93.012       40.694     6834.510     8651.298     1656.039        2.014        0.857      152.099       48.738        0.103      344.908       22.059      862.453
07/16/2013  23:30:00       37.922     -109.330       -0.283       61.405      107.058       57.406     3770.612    11461.367     3295.465        1.596        0.926      115.720       66.886        0.334      344.869       21.992      862.438
07/16/2013  23:31:00       40.647      -94.367      -27.419       49.354       60.327       44.165     2435.854     3639.334     1950.553        0.967        0.401      102.749       43.976        0.183      344.880       22.013      862.459
07/16/2013  23:32:00        0.918     -139.461      -10.608      102.184       92.029       55.696    10441.480     8469.273     3102.094        2.078        1.101      139.464       45.145        0.105      344.909       22.059      862.454
07/16/2013  23:33:00      -25.863     -125.679      -34.359       88.978       84.311       51.993     7917.146     7108.324     2703.253        1.768        0.886      128.313       42.335        0.109      344.871       21.996      862.451
07/16/2013  23:34:00       76.767     -123.604       -7.245       40.953       37.517       28.511     1677.120     1407.555      812.856        1.256        0.195      145.503       12.140        0.007      344.863       21.983      862.478
07/16/2013  23:35:00      -11.499     -161.583        7.630       54.035       88.926       43.858     2919.730     7907.870     1923.528        1.952        0.638      161.992       37.699        0.054      344.921       22.082      862.517
07/16/2013  23:36:00     -109.039      -68.280       -3.018       84.902       67.434       43.375     7208.429     4547.326     1881.397        1.510        0.682      128.653       35.739        0.077      344.864       21.985      862.519
07/16/2013  23:37:00      -55.729      -77.356       14.168       71.539       94.935       47.005     5117.853     9012.727     2209.442        1.281        0.817       95.340       40.423        0.180      344.840       21.943      862.511
07/16/2013  23:38:00      -77.951      -42.053      -16.714      131.595       66.756       28.652    17317.249     4456.331      820.919        1.535        1.130       88.571       13.723        0.024      344.832       21.929      862.522
07/16/2013  23:39:00     -194.226     -110.626      -15.187      147.283       77.541       58.190    21692.367     6012.655     3386.122        4.064        1.555      223.521       55.155        0.061      344.902       22.050      862.490
07/16/2013  23:40:00     -150.014     -131.417       -5.953      114.164       83.750       40.459    13033.367     7014.142     1636.945        3.074        1.084      199.436       46.732        0.055      344.885       22.019      862.464
07/16/2013  23:41:00     -234.069     -112.248       -6.969      119.521      104.993       52.377    14285.170    11023.520     2743.389        4.774        1.403      259.592       45.189        0.030      344.884       22.015      862.439
07/16/2013  23:42:00     -250.682     -116.655        2.687      167.648      126.897       61.219    28105.834    16102.738     3747.790        6.220        2.398      276.495       78.923        0.081      344.880       22.009      862.444
07/16/2013  23:43:00     -170.782     -103.406        0.496      128.437       91.216       65.087    16496.029     8320.290     4236.274        3.445        1.453      199.648       66.737        0.112      344.873       21.998      862.463
07/16/2013  23:44:00     -151.693     -153.077        3.527      116.285      110.006       64.898    13522.138    12101.347     4211.742        3.814        1.492      215.507       72.396        0.113      344.901       22.047      862.463
07/16/2013  23:45:00     -148.396     -150.143        6.527      132.482      111.877       58.116    17551.390    12516.502     3377.459        3.902        1.672      211.103       67.059        0.101      344.878       22.007      862.458
07/16/2013  23:46:00     -218.937     -130.104       -1.584      143.604       95.865       58.320    20622.018     9190.061     3401.217        4.903        1.661      254.677       59.144        0.054      344.877       22.004      862.465
07/16/2013  23:47:00     -163.915      -75.658        6.264      139.052       97.195       44.210    19335.377     9446.844     1954.548        3.168        1.537      180.533       51.064        0.080      344.806       21.885      862.479
07/16/2013  23:48:00     -156.409     -155.396        1.405      102.014       96.854       43.679    10406.860     9380.717     1907.841        3.515        1.085      220.480       38.881        0.031      344.862       21.981      862.485
07/16/2013  23:49:00     -157.526     -112.354       -4.398       94.117       97.806       41.597     8858.060     9566.106     1730.326        2.880        1.008      193.489       44.858        0.054      344.813       21.895      862.495
07/16/2013  23:50:00     -113.268     -145.893       16.299      104.299       99.573       51.978    10878.333     9914.720     2701.696        2.893        1.175      184.700       43.806        0.056      344.784       21.846      862.524
07/16/2013  23:51:00     -107.309     -224.253      -10.379      126.946      106.213       41.693    16115.227    11281.122     1738.295        4.552        1.457      248.605       39.096        0.025      344.830       21.924      862.517
07/16/2013  23:52:00     -130.827     -162.938      -12.655       74.390       59.731       41.463     5533.909     3567.783     1719.146        2.732        0.541      208.961       33.952        0.026      344.748       21.783      862.564
07/16/2013  23:53:00     -127.881     -165.919        5.568      101.893       76.342       41.770    10382.120     5828.174     1744.736        3.093        0.898      209.482       43.554        0.043      344.727       21.748      862.600
07/16/2013  23:54:00     -107.344     -175.732       -7.544       71.512       89.673       32.494     5114.026     8041.281     1055.874        2.833        0.711      205.924       28.022        0.019      344.708       21.715      862.615
07/16/2013  23:55:00      -61.990     -118.101       -4.386       52.903       54.318       31.991     2798.693     2950.497     1023.412        1.229        0.339      133.382       16.559        0.015      344.727       21.750      862.632
07/16/2013  23:56:00     -148.741      -76.230        4.616       74.299       61.383       43.662     5520.374     3767.848     1906.379        1.957        0.560      167.138       34.916        0.044      344.675       21.660      862.637
07/16/2013  23:57:00      -59.583      -17.390        7.372       70.501       42.343       32.068     4970.444     1792.952     1028.341        0.585        0.390       62.069       27.370        0.194      344.619       21.567      862.656
07/16/2013  23:58:00       -2.176      -13.107        3.815       15.430       27.382       14.133      238.094      749.768      199.746        0.069        0.059       13.286        8.729        0.432      344.526       21.408      862.671
07/16/2013  23:59:00      -50.422      -69.344       -3.118       49.092       59.494       22.583     2410.049     3539.578      509.988        0.691        0.323       85.738       21.819        0.065      344.628       21.582      862.684
